Big Piney River (Missouri), Fort Leonard Wood (06930060)

StateMissouriLatestLow (497 cfs)
RiverBig Piney RiverRatingObservedEstimated
Updated2020-08-11 18:00 (57 minutes ago)Flood - The river is flooding. Obstacles can be treacherous or deadly. The river should be avoided at this stage for casual trips and definitely for the inexperienced. Trips should be attempted only with protective gear and equipment.Flood(none)3031
Discharge497 cfs (median: 201 cfs)High - The river is high and potentially dangerous, especially for the young and / or inexperienced. Normal stream obstacles are sometimes difficult to navigate. Extended distances can be attempted, but canoe travel may not be advisable.High(none)1449
Height2.69 feetGood - Conditions are ideal for a canoe or kayak. Boats typically will drag on fewer than one-quarter of riffles, if at all, and portages are unnecessary or rare. Normal float lengths can be attempted without a problem.Good(none)638
TrendFalling (rising over 24 hours)Low - River is low but can still be floated. Some riffles are okay but most come with significant dragging and might need a portage. Float lengths should be reduced to accommodate low flow, dragging, and portages.Low(none)385
USGSExternal icon USGS Site (External icon Google Maps)Poor - River is too low to float comfortably. Most or all riffles will drag or must be portaged and some obstacles (such as slick shelf rock) cause undue problems. Avoid the river at this stage for casual paddling trips.Poor(none)204

Trending Data

Plot Image

Trips for Big Piney River (Missouri), Fort Leonard Wood (06930060)

DateStartEndDistanceConditionDischargeHeightFishingDetails

A total of 0 rows are displayed.

Condition Descriptions

Fishing Conditions

Fish Species

Notes

Classic Trip List

The classic River Trips application is still available for use. It is updated with the new system using a data retrofit. It is no longer maintained. The original River Trips application is no longer updated (as of 1 Dec 2016) but can be checked for errors or for the condition of the data before it was converted to the new system.

Gauge Data Table

ObservationHeightDischargeMaximum
Discharge
Minimum
Discharge
Mean
Discharge
P05P10P20P25P50
(Median)
P75P80P90P95
2020-08-11 18:00 2.69 497 4870 (2015) 127 (2007) 672 127 131 140 146 201 310 314 4360 4870
2020-08-11 17:00 2.72 509 4870 (2015) 127 (2007) 672 127 131 140 146 201 310 314 4360 4870
2020-08-11 16:00 2.71 505 4870 (2015) 127 (2007) 672 127 131 140 146 201 310 314 4360 4870
2020-08-11 15:00 2.70 501 4870 (2015) 127 (2007) 672 127 131 140 146 201 310 314 4360 4870
2020-08-11 14:00 2.71 505 4870 (2015) 127 (2007) 672 127 131 140 146 201 310 314 4360 4870
2020-08-11 13:00 2.69 497 4870 (2015) 127 (2007) 672 127 131 140 146 201 310 314 4360 4870
2020-08-11 12:00 2.69 497 4870 (2015) 127 (2007) 672 127 131 140 146 201 310 314 4360 4870
2020-08-11 11:00 2.69 497 4870 (2015) 127 (2007) 672 127 131 140 146 201 310 314 4360 4870
2020-08-11 10:00 2.65 481 4870 (2015) 127 (2007) 672 127 131 140 146 201 310 314 4360 4870
2020-08-11 09:00 2.61 466 4870 (2015) 127 (2007) 672 127 131 140 146 201 310 314 4360 4870
2020-08-11 08:00 2.59 458 4870 (2015) 127 (2007) 672 127 131 140 146 201 310 314 4360 4870
2020-08-11 07:00 2.56 447 4870 (2015) 127 (2007) 672 127 131 140 146 201 310 314 4360 4870
2020-08-11 06:00 2.55 443 4870 (2015) 127 (2007) 672 127 131 140 146 201 310 314 4360 4870
2020-08-11 05:00 2.51 429 4870 (2015) 127 (2007) 672 127 131 140 146 201 310 314 4360 4870
2020-08-11 04:00 2.47 414 4870 (2015) 127 (2007) 672 127 131 140 146 201 310 314 4360 4870
2020-08-11 03:00 2.45 406 4870 (2015) 127 (2007) 672 127 131 140 146 201 310 314 4360 4870
2020-08-11 02:00 2.47 414 4870 (2015) 127 (2007) 672 127 131 140 146 201 310 314 4360 4870
2020-08-11 01:00 2.45 406 4870 (2015) 127 (2007) 672 127 131 140 146 201 310 314 4360 4870
2020-08-11 00:00 2.44 402 4870 (2015) 127 (2007) 672 127 131 140 146 201 310 314 4360 4870
2020-08-10 23:00 2.45 406 5610 (2013) 128 (2001) 590 128 129 142 146 197 317 340 2130 5450
2020-08-10 22:00 2.42 395 5610 (2013) 128 (2001) 590 128 129 142 146 197 317 340 2130 5450
2020-08-10 21:00 2.38 381 5610 (2013) 128 (2001) 590 128 129 142 146 197 317 340 2130 5450
2020-08-10 20:00 2.38 381 5610 (2013) 128 (2001) 590 128 129 142 146 197 317 340 2130 5450
2020-08-10 19:00 2.36 374 5610 (2013) 128 (2001) 590 128 129 142 146 197 317 340 2130 5450
2020-08-10 18:00 2.37 377 5610 (2013) 128 (2001) 590 128 129 142 146 197 317 340 2130 5450
2020-08-10 17:00 2.38 381 5610 (2013) 128 (2001) 590 128 129 142 146 197 317 340 2130 5450
2020-08-10 16:00 2.36 374 5610 (2013) 128 (2001) 590 128 129 142 146 197 317 340 2130 5450
2020-08-10 15:00 2.37 377 5610 (2013) 128 (2001) 590 128 129 142 146 197 317 340 2130 5450
2020-08-10 14:00 2.38 381 5610 (2013) 128 (2001) 590 128 129 142 146 197 317 340 2130 5450
2020-08-10 13:00 2.38 381 5610 (2013) 128 (2001) 590 128 129 142 146 197 317 340 2130 5450
2020-08-10 12:00 2.37 377 5610 (2013) 128 (2001) 590 128 129 142 146 197 317 340 2130 5450
2020-08-10 11:00 2.36 374 5610 (2013) 128 (2001) 590 128 129 142 146 197 317 340 2130 5450
2020-08-10 10:00 2.39 384 5610 (2013) 128 (2001) 590 128 129 142 146 197 317 340 2130 5450
2020-08-10 09:00 2.37 377 5610 (2013) 128 (2001) 590 128 129 142 146 197 317 340 2130 5450
2020-08-10 08:00 2.37 377 5610 (2013) 128 (2001) 590 128 129 142 146 197 317 340 2130 5450
2020-08-10 07:00 2.37 377 5610 (2013) 128 (2001) 590 128 129 142 146 197 317 340 2130 5450
2020-08-10 06:00 2.38 381 5610 (2013) 128 (2001) 590 128 129 142 146 197 317 340 2130 5450
2020-08-10 05:00 2.39 406 5610 (2013) 128 (2001) 590 128 129 142 146 197 317 340 2130 5450
2020-08-10 04:00 2.39 406 5610 (2013) 128 (2001) 590 128 129 142 146 197 317 340 2130 5450
2020-08-10 03:00 2.39 406 5610 (2013) 128 (2001) 590 128 129 142 146 197 317 340 2130 5450
2020-08-10 02:00 2.40 410 5610 (2013) 128 (2001) 590 128 129 142 146 197 317 340 2130 5450
2020-08-10 01:00 2.39 406 5610 (2013) 128 (2001) 590 128 129 142 146 197 317 340 2130 5450
2020-08-10 00:00 2.39 406 5610 (2013) 128 (2001) 590 128 129 142 146 197 317 340 2130 5450
2020-08-09 23:00 2.37 399 14500 (2013) 124 (2001) 936 124 129 142 147 194 327 337 434 13800
2020-08-09 22:00 2.36 395 14500 (2013) 124 (2001) 936 124 129 142 147 194 327 337 434 13800
2020-08-09 21:00 2.40 410 14500 (2013) 124 (2001) 936 124 129 142 147 194 327 337 434 13800
2020-08-09 20:00 2.40 410 14500 (2013) 124 (2001) 936 124 129 142 147 194 327 337 434 13800
2020-08-09 19:00 2.39 406 14500 (2013) 124 (2001) 936 124 129 142 147 194 327 337 434 13800
2020-08-09 18:00 2.39 406 14500 (2013) 124 (2001) 936 124 129 142 147 194 327 337 434 13800
2020-08-09 17:00 2.38 402 14500 (2013) 124 (2001) 936 124 129 142 147 194 327 337 434 13800
2020-08-09 16:00 2.38 402 14500 (2013) 124 (2001) 936 124 129 142 147 194 327 337 434 13800
2020-08-09 15:00 2.39 406 14500 (2013) 124 (2001) 936 124 129 142 147 194 327 337 434 13800
2020-08-09 14:00 2.41 414 14500 (2013) 124 (2001) 936 124 129 142 147 194 327 337 434 13800
2020-08-09 13:00 2.42 417 14500 (2013) 124 (2001) 936 124 129 142 147 194 327 337 434 13800
2020-08-09 12:00 2.41 414 14500 (2013) 124 (2001) 936 124 129 142 147 194 327 337 434 13800
2020-08-09 11:00 2.42 417 14500 (2013) 124 (2001) 936 124 129 142 147 194 327 337 434 13800
2020-08-09 10:00 2.40 410 14500 (2013) 124 (2001) 936 124 129 142 147 194 327 337 434 13800
2020-08-09 09:00 2.40 410 14500 (2013) 124 (2001) 936 124 129 142 147 194 327 337 434 13800
2020-08-09 08:00 2.42 417 14500 (2013) 124 (2001) 936 124 129 142 147 194 327 337 434 13800
2020-08-09 07:00 2.42 417 14500 (2013) 124 (2001) 936 124 129 142 147 194 327 337 434 13800
2020-08-09 06:00 2.43 421 14500 (2013) 124 (2001) 936 124 129 142 147 194 327 337 434 13800
2020-08-09 05:00 2.40 410 14500 (2013) 124 (2001) 936 124 129 142 147 194 327 337 434 13800
2020-08-09 04:00 2.44 425 14500 (2013) 124 (2001) 936 124 129 142 147 194 327 337 434 13800
2020-08-09 03:00 2.43 421 14500 (2013) 124 (2001) 936 124 129 142 147 194 327 337 434 13800
2020-08-09 02:00 2.45 429 14500 (2013) 124 (2001) 936 124 129 142 147 194 327 337 434 13800
2020-08-09 01:00 2.44 425 14500 (2013) 124 (2001) 936 124 129 142 147 194 327 337 434 13800
2020-08-09 00:00 2.46 433 14500 (2013) 124 (2001) 936 124 129 142 147 194 327 337 434 13800
2020-08-08 23:00 2.46 433 19000 (2013) 114 (2001) 1170 115 132 138 146 196 338 392 511 18100
2020-08-08 22:00 2.47 437 19000 (2013) 114 (2001) 1170 115 132 138 146 196 338 392 511 18100
2020-08-08 21:00 2.48 440 19000 (2013) 114 (2001) 1170 115 132 138 146 196 338 392 511 18100
2020-08-08 20:00 2.47 437 19000 (2013) 114 (2001) 1170 115 132 138 146 196 338 392 511 18100
2020-08-08 19:00 2.46 433 19000 (2013) 114 (2001) 1170 115 132 138 146 196 338 392 511 18100
2020-08-08 18:00 2.47 437 19000 (2013) 114 (2001) 1170 115 132 138 146 196 338 392 511 18100
2020-08-08 17:00 2.46 433 19000 (2013) 114 (2001) 1170 115 132 138 146 196 338 392 511 18100
2020-08-08 16:00 2.46 433 19000 (2013) 114 (2001) 1170 115 132 138 146 196 338 392 511 18100
2020-08-08 15:00 2.46 433 19000 (2013) 114 (2001) 1170 115 132 138 146 196 338 392 511 18100
2020-08-08 14:00 2.46 433 19000 (2013) 114 (2001) 1170 115 132 138 146 196 338 392 511 18100
2020-08-08 13:00 2.46 433 19000 (2013) 114 (2001) 1170 115 132 138 146 196 338 392 511 18100
2020-08-08 12:00 2.46 433 19000 (2013) 114 (2001) 1170 115 132 138 146 196 338 392 511 18100
2020-08-08 11:00 2.45 429 19000 (2013) 114 (2001) 1170 115 132 138 146 196 338 392 511 18100
2020-08-08 10:00 2.45 429 19000 (2013) 114 (2001) 1170 115 132 138 146 196 338 392 511 18100
2020-08-08 09:00 2.44 425 19000 (2013) 114 (2001) 1170 115 132 138 146 196 338 392 511 18100
2020-08-08 08:00 2.43 421 19000 (2013) 114 (2001) 1170 115 132 138 146 196 338 392 511 18100
2020-08-08 07:00 2.42 417 19000 (2013) 114 (2001) 1170 115 132 138 146 196 338 392 511 18100
2020-08-08 06:00 2.43 421 19000 (2013) 114 (2001) 1170 115 132 138 146 196 338 392 511 18100
2020-08-08 05:00 2.42 417 19000 (2013) 114 (2001) 1170 115 132 138 146 196 338 392 511 18100
2020-08-08 04:00 2.43 421 19000 (2013) 114 (2001) 1170 115 132 138 146 196 338 392 511 18100
2020-08-08 03:00 2.44 425 19000 (2013) 114 (2001) 1170 115 132 138 146 196 338 392 511 18100
2020-08-08 02:00 2.42 417 19000 (2013) 114 (2001) 1170 115 132 138 146 196 338 392 511 18100
2020-08-08 01:00 2.45 429 19000 (2013) 114 (2001) 1170 115 132 138 146 196 338 392 511 18100
2020-08-08 00:00 2.44 425 19000 (2013) 114 (2001) 1170 115 132 138 146 196 338 392 511 18100
2020-08-07 23:00 2.44 425 27000 (2013) 110 (2001) 1590 111 135 145 156 202 335 405 781 25700
2020-08-07 22:00 2.45 429 27000 (2013) 110 (2001) 1590 111 135 145 156 202 335 405 781 25700
2020-08-07 21:00 2.45 429 27000 (2013) 110 (2001) 1590 111 135 145 156 202 335 405 781 25700
2020-08-07 20:00 2.45 429 27000 (2013) 110 (2001) 1590 111 135 145 156 202 335 405 781 25700
2020-08-07 19:00 2.47 437 27000 (2013) 110 (2001) 1590 111 135 145 156 202 335 405 781 25700
2020-08-07 18:00 2.46 433 27000 (2013) 110 (2001) 1590 111 135 145 156 202 335 405 781 25700
2020-08-07 17:00 2.47 437 27000 (2013) 110 (2001) 1590 111 135 145 156 202 335 405 781 25700
2020-08-07 16:00 2.47 437 27000 (2013) 110 (2001) 1590 111 135 145 156 202 335 405 781 25700
2020-08-07 15:00 2.47 437 27000 (2013) 110 (2001) 1590 111 135 145 156 202 335 405 781 25700
2020-08-07 14:00 2.46 433 27000 (2013) 110 (2001) 1590 111 135 145 156 202 335 405 781 25700
2020-08-07 13:00 2.47 437 27000 (2013) 110 (2001) 1590 111 135 145 156 202 335 405 781 25700
2020-08-07 12:00 2.44 425 27000 (2013) 110 (2001) 1590 111 135 145 156 202 335 405 781 25700
2020-08-07 11:00 2.45 429 27000 (2013) 110 (2001) 1590 111 135 145 156 202 335 405 781 25700
2020-08-07 10:00 2.46 433 27000 (2013) 110 (2001) 1590 111 135 145 156 202 335 405 781 25700
2020-08-07 09:00 2.47 437 27000 (2013) 110 (2001) 1590 111 135 145 156 202 335 405 781 25700
2020-08-07 08:00 2.45 429 27000 (2013) 110 (2001) 1590 111 135 145 156 202 335 405 781 25700
2020-08-07 07:00 2.48 440 27000 (2013) 110 (2001) 1590 111 135 145 156 202 335 405 781 25700
2020-08-07 06:00 2.49 444 27000 (2013) 110 (2001) 1590 111 135 145 156 202 335 405 781 25700
2020-08-07 05:00 2.48 440 27000 (2013) 110 (2001) 1590 111 135 145 156 202 335 405 781 25700
2020-08-07 04:00 2.50 448 27000 (2013) 110 (2001) 1590 111 135 145 156 202 335 405 781 25700
2020-08-07 03:00 2.49 444 27000 (2013) 110 (2001) 1590 111 135 145 156 202 335 405 781 25700
2020-08-07 02:00 2.49 444 27000 (2013) 110 (2001) 1590 111 135 145 156 202 335 405 781 25700
2020-08-07 01:00 2.51 452 27000 (2013) 110 (2001) 1590 111 135 145 156 202 335 405 781 25700
2020-08-07 00:00 2.51 452 27000 (2013) 110 (2001) 1590 111 135 145 156 202 335 405 781 25700
2020-08-06 23:00 2.50 448 18900 (2013) 112 (2001) 1170 113 139 144 148 206 313 404 500 18000
2020-08-06 22:00 2.51 452 18900 (2013) 112 (2001) 1170 113 139 144 148 206 313 404 500 18000
2020-08-06 21:00 2.52 456 18900 (2013) 112 (2001) 1170 113 139 144 148 206 313 404 500 18000
2020-08-06 20:00 2.51 452 18900 (2013) 112 (2001) 1170 113 139 144 148 206 313 404 500 18000
2020-08-06 19:00 2.52 456 18900 (2013) 112 (2001) 1170 113 139 144 148 206 313 404 500 18000
2020-08-06 18:00 2.52 456 18900 (2013) 112 (2001) 1170 113 139 144 148 206 313 404 500 18000
2020-08-06 17:00 2.53 460 18900 (2013) 112 (2001) 1170 113 139 144 148 206 313 404 500 18000
2020-08-06 16:00 2.52 456 18900 (2013) 112 (2001) 1170 113 139 144 148 206 313 404 500 18000
2020-08-06 15:00 2.54 463 18900 (2013) 112 (2001) 1170 113 139 144 148 206 313 404 500 18000
2020-08-06 14:00 2.56 471 18900 (2013) 112 (2001) 1170 113 139 144 148 206 313 404 500 18000
2020-08-06 13:00 2.54 463 18900 (2013) 112 (2001) 1170 113 139 144 148 206 313 404 500 18000
2020-08-06 12:00 2.56 471 18900 (2013) 112 (2001) 1170 113 139 144 148 206 313 404 500 18000
2020-08-06 11:00 2.56 471 18900 (2013) 112 (2001) 1170 113 139 144 148 206 313 404 500 18000
2020-08-06 10:00 2.56 471 18900 (2013) 112 (2001) 1170 113 139 144 148 206 313 404 500 18000
2020-08-06 09:00 2.56 471 18900 (2013) 112 (2001) 1170 113 139 144 148 206 313 404 500 18000
2020-08-06 08:00 2.56 471 18900 (2013) 112 (2001) 1170 113 139 144 148 206 313 404 500 18000
2020-08-06 07:00 2.57 475 18900 (2013) 112 (2001) 1170 113 139 144 148 206 313 404 500 18000
2020-08-06 06:00 2.58 479 18900 (2013) 112 (2001) 1170 113 139 144 148 206 313 404 500 18000
2020-08-06 05:00 2.58 479 18900 (2013) 112 (2001) 1170 113 139 144 148 206 313 404 500 18000
2020-08-06 04:00 2.59 482 18900 (2013) 112 (2001) 1170 113 139 144 148 206 313 404 500 18000
2020-08-06 03:00 2.59 482 18900 (2013) 112 (2001) 1170 113 139 144 148 206 313 404 500 18000
2020-08-06 02:00 2.61 490 18900 (2013) 112 (2001) 1170 113 139 144 148 206 313 404 500 18000
2020-08-06 01:00 2.61 490 18900 (2013) 112 (2001) 1170 113 139 144 148 206 313 404 500 18000
2020-08-06 00:00 2.61 490 18900 (2013) 112 (2001) 1170 113 139 144 148 206 313 404 500 18000
2020-08-05 23:00 2.64 502 1240 (2013) 111 (2001) 278 112 138 146 148 213 295 319 500 1200
2020-08-05 22:00 2.63 498 1240 (2013) 111 (2001) 278 112 138 146 148 213 295 319 500 1200
2020-08-05 21:00 2.65 506 1240 (2013) 111 (2001) 278 112 138 146 148 213 295 319 500 1200
2020-08-05 20:00 2.65 506 1240 (2013) 111 (2001) 278 112 138 146 148 213 295 319 500 1200
2020-08-05 19:00 2.65 506 1240 (2013) 111 (2001) 278 112 138 146 148 213 295 319 500 1200
2020-08-05 18:00 2.65 506 1240 (2013) 111 (2001) 278 112 138 146 148 213 295 319 500 1200
2020-08-05 17:00 2.68 518 1240 (2013) 111 (2001) 278 112 138 146 148 213 295 319 500 1200
2020-08-05 16:00 2.68 518 1240 (2013) 111 (2001) 278 112 138 146 148 213 295 319 500 1200
2020-08-05 15:00 2.68 518 1240 (2013) 111 (2001) 278 112 138 146 148 213 295 319 500 1200
2020-08-05 14:00 2.71 531 1240 (2013) 111 (2001) 278 112 138 146 148 213 295 319 500 1200
2020-08-05 13:00 2.72 535 1240 (2013) 111 (2001) 278 112 138 146 148 213 295 319 500 1200
2020-08-05 12:00 2.72 535 1240 (2013) 111 (2001) 278 112 138 146 148 213 295 319 500 1200
2020-08-05 11:00 2.73 539 1240 (2013) 111 (2001) 278 112 138 146 148 213 295 319 500 1200
2020-08-05 10:00 2.75 548 1240 (2013) 111 (2001) 278 112 138 146 148 213 295 319 500 1200
2020-08-05 09:00 2.75 548 1240 (2013) 111 (2001) 278 112 138 146 148 213 295 319 500 1200
2020-08-05 08:00 2.78 560 1240 (2013) 111 (2001) 278 112 138 146 148 213 295 319 500 1200
2020-08-05 07:00 2.78 560 1240 (2013) 111 (2001) 278 112 138 146 148 213 295 319 500 1200
2020-08-05 06:00 2.79 565 1240 (2013) 111 (2001) 278 112 138 146 148 213 295 319 500 1200
2020-08-05 05:00 2.78 560 1240 (2013) 111 (2001) 278 112 138 146 148 213 295 319 500 1200
2020-08-05 04:00 2.83 582 1240 (2013) 111 (2001) 278 112 138 146 148 213 295 319 500 1200
2020-08-05 03:00 2.82 578 1240 (2013) 111 (2001) 278 112 138 146 148 213 295 319 500 1200
2020-08-05 02:00 2.84 587 1240 (2013) 111 (2001) 278 112 138 146 148 213 295 319 500 1200
2020-08-05 01:00 2.86 596 1240 (2013) 111 (2001) 278 112 138 146 148 213 295 319 500 1200
2020-08-05 00:00 2.88 605 1240 (2013) 111 (2001) 278 112 138 146 148 213 295 319 500 1200
2020-08-04 23:00 2.89 610 533 (2013) 115 (2001) 242 116 129 142 151 207 323 340 449 529
2020-08-04 22:00 2.88 605 533 (2013) 115 (2001) 242 116 129 142 151 207 323 340 449 529
2020-08-04 21:00 2.91 619 533 (2013) 115 (2001) 242 116 129 142 151 207 323 340 449 529
2020-08-04 20:00 2.90 614 533 (2013) 115 (2001) 242 116 129 142 151 207 323 340 449 529
2020-08-04 19:00 2.88 605 533 (2013) 115 (2001) 242 116 129 142 151 207 323 340 449 529
2020-08-04 18:00 2.86 596 533 (2013) 115 (2001) 242 116 129 142 151 207 323 340 449 529
2020-08-04 17:00 2.83 582 533 (2013) 115 (2001) 242 116 129 142 151 207 323 340 449 529
2020-08-04 16:00 2.76 552 533 (2013) 115 (2001) 242 116 129 142 151 207 323 340 449 529
2020-08-04 15:00 2.69 522 533 (2013) 115 (2001) 242 116 129 142 151 207 323 340 449 529
2020-08-04 14:00 2.66 510 533 (2013) 115 (2001) 242 116 129 142 151 207 323 340 449 529
2020-08-04 13:00 2.63 498 533 (2013) 115 (2001) 242 116 129 142 151 207 323 340 449 529
2020-08-04 12:00 2.60 486 533 (2013) 115 (2001) 242 116 129 142 151 207 323 340 449 529
2020-08-04 11:00 2.59 482 533 (2013) 115 (2001) 242 116 129 142 151 207 323 340 449 529
2020-08-04 10:00 2.60 486 533 (2013) 115 (2001) 242 116 129 142 151 207 323 340 449 529
2020-08-04 09:00 2.60 486 533 (2013) 115 (2001) 242 116 129 142 151 207 323 340 449 529
2020-08-04 08:00 2.62 494 533 (2013) 115 (2001) 242 116 129 142 151 207 323 340 449 529
2020-08-04 07:00 2.58 479 533 (2013) 115 (2001) 242 116 129 142 151 207 323 340 449 529
2020-08-04 06:00 2.62 494 533 (2013) 115 (2001) 242 116 129 142 151 207 323 340 449 529
2020-08-04 05:00 2.62 494 533 (2013) 115 (2001) 242 116 129 142 151 207 323 340 449 529
2020-08-04 04:00 2.60 486 533 (2013) 115 (2001) 242 116 129 142 151 207 323 340 449 529
2020-08-04 03:00 2.60 486 533 (2013) 115 (2001) 242 116 129 142 151 207 323 340 449 529
2020-08-04 02:00 2.60 486 533 (2013) 115 (2001) 242 116 129 142 151 207 323 340 449 529
2020-08-04 01:00 2.59 482 533 (2013) 115 (2001) 242 116 129 142 151 207 323 340 449 529
2020-08-04 00:00 2.58 479 533 (2013) 115 (2001) 242 116 129 142 151 207 323 340 449 529
2020-08-03 23:00 2.60 486 765 (2013) 117 (2001) 260 118 131 144 155 212 325 393 486 751
2020-08-03 22:00 2.57 475 765 (2013) 117 (2001) 260 118 131 144 155 212 325 393 486 751
2020-08-03 21:00 2.57 475 765 (2013) 117 (2001) 260 118 131 144 155 212 325 393 486 751
2020-08-03 20:00 2.56 471 765 (2013) 117 (2001) 260 118 131 144 155 212 325 393 486 751
2020-08-03 19:00 2.55 467 765 (2013) 117 (2001) 260 118 131 144 155 212 325 393 486 751
2020-08-03 18:00 2.54 463 765 (2013) 117 (2001) 260 118 131 144 155 212 325 393 486 751
2020-08-03 17:00 2.53 460 765 (2013) 117 (2001) 260 118 131 144 155 212 325 393 486 751
2020-08-03 16:00 2.52 456 765 (2013) 117 (2001) 260 118 131 144 155 212 325 393 486 751
2020-08-03 15:00 2.52 456 765 (2013) 117 (2001) 260 118 131 144 155 212 325 393 486 751
2020-08-03 14:00 2.52 456 765 (2013) 117 (2001) 260 118 131 144 155 212 325 393 486 751
2020-08-03 13:00 2.51 452 765 (2013) 117 (2001) 260 118 131 144 155 212 325 393 486 751
2020-08-03 12:00 2.51 452 765 (2013) 117 (2001) 260 118 131 144 155 212 325 393 486 751
2020-08-03 11:00 2.51 452 765 (2013) 117 (2001) 260 118 131 144 155 212 325 393 486 751
2020-08-03 10:00 2.50 448 765 (2013) 117 (2001) 260 118 131 144 155 212 325 393 486 751
2020-08-03 09:00 2.48 440 765 (2013) 117 (2001) 260 118 131 144 155 212 325 393 486 751
2020-08-03 08:00 2.53 460 765 (2013) 117 (2001) 260 118 131 144 155 212 325 393 486 751
2020-08-03 07:00 2.51 452 765 (2013) 117 (2001) 260 118 131 144 155 212 325 393 486 751
2020-08-03 06:00 2.52 456 765 (2013) 117 (2001) 260 118 131 144 155 212 325 393 486 751
2020-08-03 05:00 2.53 460 765 (2013) 117 (2001) 260 118 131 144 155 212 325 393 486 751
2020-08-03 04:00 2.55 467 765 (2013) 117 (2001) 260 118 131 144 155 212 325 393 486 751
2020-08-03 03:00 2.55 467 765 (2013) 117 (2001) 260 118 131 144 155 212 325 393 486 751
2020-08-03 02:00 2.56 471 765 (2013) 117 (2001) 260 118 131 144 155 212 325 393 486 751
2020-08-03 01:00 2.56 471 765 (2013) 117 (2001) 260 118 131 144 155 212 325 393 486 751
2020-08-03 00:00 2.53 460 765 (2013) 117 (2001) 260 118 131 144 155 212 325 393 486 751
2020-08-02 23:00 2.50 448 558 (2008) 120 (2001) 255 121 132 146 161 220 339 383 484 555
2020-08-02 22:00 2.48 440 558 (2008) 120 (2001) 255 121 132 146 161 220 339 383 484 555
2020-08-02 21:00 2.49 444 558 (2008) 120 (2001) 255 121 132 146 161 220 339 383 484 555
2020-08-02 20:00 2.47 437 558 (2008) 120 (2001) 255 121 132 146 161 220 339 383 484 555
2020-08-02 19:00 2.49 444 558 (2008) 120 (2001) 255 121 132 146 161 220 339 383 484 555
2020-08-02 18:00 2.52 456 558 (2008) 120 (2001) 255 121 132 146 161 220 339 383 484 555
2020-08-02 17:00 2.52 456 558 (2008) 120 (2001) 255 121 132 146 161 220 339 383 484 555
2020-08-02 16:00 2.51 452 558 (2008) 120 (2001) 255 121 132 146 161 220 339 383 484 555
2020-08-02 15:00 2.50 448 558 (2008) 120 (2001) 255 121 132 146 161 220 339 383 484 555
2020-08-02 14:00 2.49 444 558 (2008) 120 (2001) 255 121 132 146 161 220 339 383 484 555
2020-08-02 13:00 2.50 448 558 (2008) 120 (2001) 255 121 132 146 161 220 339 383 484 555
2020-08-02 12:00 2.52 456 558 (2008) 120 (2001) 255 121 132 146 161 220 339 383 484 555
2020-08-02 11:00 2.52 456 558 (2008) 120 (2001) 255 121 132 146 161 220 339 383 484 555
2020-08-02 10:00 2.50 448 558 (2008) 120 (2001) 255 121 132 146 161 220 339 383 484 555
2020-08-02 09:00 2.51 452 558 (2008) 120 (2001) 255 121 132 146 161 220 339 383 484 555
2020-08-02 08:00 2.53 460 558 (2008) 120 (2001) 255 121 132 146 161 220 339 383 484 555
2020-08-02 07:00 2.55 467 558 (2008) 120 (2001) 255 121 132 146 161 220 339 383 484 555
2020-08-02 06:00 2.55 467 558 (2008) 120 (2001) 255 121 132 146 161 220 339 383 484 555
2020-08-02 05:00 2.57 475 558 (2008) 120 (2001) 255 121 132 146 161 220 339 383 484 555
2020-08-02 04:00 2.57 475 558 (2008) 120 (2001) 255 121 132 146 161 220 339 383 484 555
2020-08-02 03:00 2.58 479 558 (2008) 120 (2001) 255 121 132 146 161 220 339 383 484 555
2020-08-02 02:00 2.59 482 558 (2008) 120 (2001) 255 121 132 146 161 220 339 383 484 555
2020-08-02 01:00 2.62 494 558 (2008) 120 (2001) 255 121 132 146 161 220 339 383 484 555
2020-08-02 00:00 2.63 498 558 (2008) 120 (2001) 255 121 132 146 161 220 339 383 484 555
2020-08-01 23:00 2.61 490 660 (2013) 128 (2001) 266 128 135 148 162 224 354 375 502 652
2020-08-01 22:00 2.63 498 660 (2013) 128 (2001) 266 128 135 148 162 224 354 375 502 652
2020-08-01 21:00 2.60 486 660 (2013) 128 (2001) 266 128 135 148 162 224 354 375 502 652
2020-08-01 20:00 2.64 502 660 (2013) 128 (2001) 266 128 135 148 162 224 354 375 502 652
2020-08-01 19:00 2.62 494 660 (2013) 128 (2001) 266 128 135 148 162 224 354 375 502 652
2020-08-01 18:00 2.64 502 660 (2013) 128 (2001) 266 128 135 148 162 224 354 375 502 652
2020-08-01 17:00 2.64 502 660 (2013) 128 (2001) 266 128 135 148 162 224 354 375 502 652
2020-08-01 16:00 2.65 506 660 (2013) 128 (2001) 266 128 135 148 162 224 354 375 502 652
2020-08-01 15:00 2.65 506 660 (2013) 128 (2001) 266 128 135 148 162 224 354 375 502 652
2020-08-01 14:00 2.64 502 660 (2013) 128 (2001) 266 128 135 148 162 224 354 375 502 652
2020-08-01 13:00 2.63 498 660 (2013) 128 (2001) 266 128 135 148 162 224 354 375 502 652
2020-08-01 12:00 2.62 494 660 (2013) 128 (2001) 266 128 135 148 162 224 354 375 502 652
2020-08-01 11:00 2.64 502 660 (2013) 128 (2001) 266 128 135 148 162 224 354 375 502 652
2020-08-01 10:00 2.64 502 660 (2013) 128 (2001) 266 128 135 148 162 224 354 375 502 652
2020-08-01 09:00 2.62 494 660 (2013) 128 (2001) 266 128 135 148 162 224 354 375 502 652
2020-08-01 08:00 2.59 482 660 (2013) 128 (2001) 266 128 135 148 162 224 354 375 502 652
2020-08-01 07:00 2.59 482 660 (2013) 128 (2001) 266 128 135 148 162 224 354 375 502 652
2020-08-01 06:00 2.54 463 660 (2013) 128 (2001) 266 128 135 148 162 224 354 375 502 652
2020-08-01 05:00 2.54 463 660 (2013) 128 (2001) 266 128 135 148 162 224 354 375 502 652
2020-08-01 04:00 2.50 448 660 (2013) 128 (2001) 266 128 135 148 162 224 354 375 502 652
2020-08-01 03:00 2.48 440 660 (2013) 128 (2001) 266 128 135 148 162 224 354 375 502 652
2020-08-01 02:00 2.50 448 660 (2013) 128 (2001) 266 128 135 148 162 224 354 375 502 652
2020-08-01 01:00 2.48 440 660 (2013) 128 (2001) 266 128 135 148 162 224 354 375 502 652
2020-08-01 00:00 2.48 440 660 (2013) 128 (2001) 266 128 135 148 162 224 354 375 502 652
2020-07-31 23:00 2.47 437 492 (2015) 131 (2001) 236 131 135 150 163 225 257 271 406 488
2020-07-31 22:00 2.49 444 492 (2015) 131 (2001) 236 131 135 150 163 225 257 271 406 488
2020-07-31 21:00 2.50 448 492 (2015) 131 (2001) 236 131 135 150 163 225 257 271 406 488
2020-07-31 20:00 2.50 448 492 (2015) 131 (2001) 236 131 135 150 163 225 257 271 406 488
2020-07-31 19:00 2.50 448 492 (2015) 131 (2001) 236 131 135 150 163 225 257 271 406 488
2020-07-31 18:00 2.50 448 492 (2015) 131 (2001) 236 131 135 150 163 225 257 271 406 488
2020-07-31 17:00 2.51 452 492 (2015) 131 (2001) 236 131 135 150 163 225 257 271 406 488
2020-07-31 16:00 2.51 452 492 (2015) 131 (2001) 236 131 135 150 163 225 257 271 406 488
2020-07-31 15:00 2.51 452 492 (2015) 131 (2001) 236 131 135 150 163 225 257 271 406 488
2020-07-31 14:00 2.50 448 492 (2015) 131 (2001) 236 131 135 150 163 225 257 271 406 488
2020-07-31 13:00 2.53 460 492 (2015) 131 (2001) 236 131 135 150 163 225 257 271 406 488
2020-07-31 12:00 2.55 467 492 (2015) 131 (2001) 236 131 135 150 163 225 257 271 406 488
2020-07-31 11:00 2.58 479 492 (2015) 131 (2001) 236 131 135 150 163 225 257 271 406 488
2020-07-31 10:00 2.50 448 492 (2015) 131 (2001) 236 131 135 150 163 225 257 271 406 488
2020-07-31 09:00 2.46 433 492 (2015) 131 (2001) 236 131 135 150 163 225 257 271 406 488
2020-07-31 08:00 2.40 410 492 (2015) 131 (2001) 236 131 135 150 163 225 257 271 406 488
2020-07-31 07:00 2.40 410 492 (2015) 131 (2001) 236 131 135 150 163 225 257 271 406 488
2020-07-31 06:00 2.40 410 492 (2015) 131 (2001) 236 131 135 150 163 225 257 271 406 488
2020-07-31 05:00 2.40 410 492 (2015) 131 (2001) 236 131 135 150 163 225 257 271 406 488
2020-07-31 04:00 2.41 414 492 (2015) 131 (2001) 236 131 135 150 163 225 257 271 406 488
2020-07-31 03:00 2.41 414 492 (2015) 131 (2001) 236 131 135 150 163 225 257 271 406 488
2020-07-31 02:00 2.41 414 492 (2015) 131 (2001) 236 131 135 150 163 225 257 271 406 488
2020-07-31 01:00 2.40 410 492 (2015) 131 (2001) 236 131 135 150 163 225 257 271 406 488
2020-07-31 00:00 2.39 406 492 (2015) 131 (2001) 236 131 135 150 163 225 257 271 406 488
2020-07-30 23:00 2.41 414 546 (2015) 136 (2005) 244 136 141 151 164 231 259 297 504 545
2020-07-30 22:00 2.43 421 546 (2015) 136 (2005) 244 136 141 151 164 231 259 297 504 545
2020-07-30 21:00 2.42 417 546 (2015) 136 (2005) 244 136 141 151 164 231 259 297 504 545
2020-07-30 20:00 2.41 414 546 (2015) 136 (2005) 244 136 141 151 164 231 259 297 504 545
2020-07-30 19:00 2.43 421 546 (2015) 136 (2005) 244 136 141 151 164 231 259 297 504 545
2020-07-30 18:00 2.45 429 546 (2015) 136 (2005) 244 136 141 151 164 231 259 297 504 545
2020-07-30 17:00 2.45 429 546 (2015) 136 (2005) 244 136 141 151 164 231 259 297 504 545
2020-07-30 16:00 2.47 437 546 (2015) 136 (2005) 244 136 141 151 164 231 259 297 504 545
2020-07-30 15:00 2.47 437 546 (2015) 136 (2005) 244 136 141 151 164 231 259 297 504 545
2020-07-30 14:00 2.45 429 546 (2015) 136 (2005) 244 136 141 151 164 231 259 297 504 545
2020-07-30 13:00 2.47 437 546 (2015) 136 (2005) 244 136 141 151 164 231 259 297 504 545
2020-07-30 12:00 2.45 429 546 (2015) 136 (2005) 244 136 141 151 164 231 259 297 504 545
2020-07-30 11:00 2.47 437 546 (2015) 136 (2005) 244 136 141 151 164 231 259 297 504 545
2020-07-30 10:00 2.46 433 546 (2015) 136 (2005) 244 136 141 151 164 231 259 297 504 545
2020-07-30 09:00 2.48 440 546 (2015) 136 (2005) 244 136 141 151 164 231 259 297 504 545
2020-07-30 08:00 2.50 448 546 (2015) 136 (2005) 244 136 141 151 164 231 259 297 504 545
2020-07-30 07:00 2.48 440 546 (2015) 136 (2005) 244 136 141 151 164 231 259 297 504 545
2020-07-30 06:00 2.49 444 546 (2015) 136 (2005) 244 136 141 151 164 231 259 297 504 545
2020-07-30 05:00 2.48 440 546 (2015) 136 (2005) 244 136 141 151 164 231 259 297 504 545
2020-07-30 04:00 2.47 437 546 (2015) 136 (2005) 244 136 141 151 164 231 259 297 504 545
2020-07-30 03:00 2.45 429 546 (2015) 136 (2005) 244 136 141 151 164 231 259 297 504 545
2020-07-30 02:00 2.49 444 546 (2015) 136 (2005) 244 136 141 151 164 231 259 297 504 545
2020-07-30 01:00 2.46 433 546 (2015) 136 (2005) 244 136 141 151 164 231 259 297 504 545
2020-07-30 00:00 2.45 429 546 (2015) 136 (2005) 244 136 141 151 164 231 259 297 504 545
2020-07-29 23:00 2.42 417 643 (2015) 137 (2005) 250 137 145 156 161 230 266 274 535 638
2020-07-29 22:00 2.44 425 643 (2015) 137 (2005) 250 137 145 156 161 230 266 274 535 638
2020-07-29 21:00 2.44 425 643 (2015) 137 (2005) 250 137 145 156 161 230 266 274 535 638
2020-07-29 20:00 2.45 429 643 (2015) 137 (2005) 250 137 145 156 161 230 266 274 535 638
2020-07-29 19:00 2.45 429 643 (2015) 137 (2005) 250 137 145 156 161 230 266 274 535 638
2020-07-29 18:00 2.45 429 643 (2015) 137 (2005) 250 137 145 156 161 230 266 274 535 638
2020-07-29 17:00 2.45 429 643 (2015) 137 (2005) 250 137 145 156 161 230 266 274 535 638
2020-07-29 16:00 2.47 437 643 (2015) 137 (2005) 250 137 145 156 161 230 266 274 535 638
2020-07-29 15:00 2.48 440 643 (2015) 137 (2005) 250 137 145 156 161 230 266 274 535 638
2020-07-29 14:00 2.46 433 643 (2015) 137 (2005) 250 137 145 156 161 230 266 274 535 638
2020-07-29 13:00 2.47 437 643 (2015) 137 (2005) 250 137 145 156 161 230 266 274 535 638
2020-07-29 12:00 2.50 448 643 (2015) 137 (2005) 250 137 145 156 161 230 266 274 535 638
2020-07-29 11:00 2.49 444 643 (2015) 137 (2005) 250 137 145 156 161 230 266 274 535 638
2020-07-29 10:00 2.50 448 643 (2015) 137 (2005) 250 137 145 156 161 230 266 274 535 638
2020-07-29 09:00 2.52 456 643 (2015) 137 (2005) 250 137 145 156 161 230 266 274 535 638
2020-07-29 08:00 2.50 448 643 (2015) 137 (2005) 250 137 145 156 161 230 266 274 535 638
2020-07-29 07:00 2.50 448 643 (2015) 137 (2005) 250 137 145 156 161 230 266 274 535 638
2020-07-29 06:00 2.51 452 643 (2015) 137 (2005) 250 137 145 156 161 230 266 274 535 638
2020-07-29 05:00 2.50 448 643 (2015) 137 (2005) 250 137 145 156 161 230 266 274 535 638
2020-07-29 04:00 2.46 433 643 (2015) 137 (2005) 250 137 145 156 161 230 266 274 535 638
2020-07-29 03:00 2.47 437 643 (2015) 137 (2005) 250 137 145 156 161 230 266 274 535 638
2020-07-29 02:00 2.49 444 643 (2015) 137 (2005) 250 137 145 156 161 230 266 274 535 638
2020-07-29 01:00 2.46 433 643 (2015) 137 (2005) 250 137 145 156 161 230 266 274 535 638
2020-07-29 00:00 2.45 429 643 (2015) 137 (2005) 250 137 145 156 161 230 266 274 535 638
2020-07-28 23:00 2.42 417 963 (2015) 137 (2012) 255 137 139 151 152 234 262 280 374 934
2020-07-28 22:00 2.41 414 963 (2015) 137 (2012) 255 137 139 151 152 234 262 280 374 934
2020-07-28 21:00 2.39 406 963 (2015) 137 (2012) 255 137 139 151 152 234 262 280 374 934
2020-07-28 20:00 2.39 406 963 (2015) 137 (2012) 255 137 139 151 152 234 262 280 374 934
2020-07-28 19:00 2.40 410 963 (2015) 137 (2012) 255 137 139 151 152 234 262 280 374 934
2020-07-28 18:00 2.40 410 963 (2015) 137 (2012) 255 137 139 151 152 234 262 280 374 934
2020-07-28 17:00 2.37 399 963 (2015) 137 (2012) 255 137 139 151 152 234 262 280 374 934
2020-07-28 16:00 2.37 399 963 (2015) 137 (2012) 255 137 139 151 152 234 262 280 374 934
2020-07-28 15:00 2.35 391 963 (2015) 137 (2012) 255 137 139 151 152 234 262 280 374 934
2020-07-28 14:00 2.37 399 963 (2015) 137 (2012) 255 137 139 151 152 234 262 280 374 934
2020-07-28 13:00 2.37 399 963 (2015) 137 (2012) 255 137 139 151 152 234 262 280 374 934
2020-07-28 12:00 2.36 395 963 (2015) 137 (2012) 255 137 139 151 152 234 262 280 374 934
2020-07-28 11:00 2.37 399 963 (2015) 137 (2012) 255 137 139 151 152 234 262 280 374 934
2020-07-28 10:00 2.39 406 963 (2015) 137 (2012) 255 137 139 151 152 234 262 280 374 934
2020-07-28 09:00 2.38 402 963 (2015) 137 (2012) 255 137 139 151 152 234 262 280 374 934
2020-07-28 08:00 2.40 410 963 (2015) 137 (2012) 255 137 139 151 152 234 262 280 374 934
2020-07-28 07:00 2.41 414 963 (2015) 137 (2012) 255 137 139 151 152 234 262 280 374 934
2020-07-28 06:00 2.39 406 963 (2015) 137 (2012) 255 137 139 151 152 234 262 280 374 934
2020-07-28 05:00 2.39 406 963 (2015) 137 (2012) 255 137 139 151 152 234 262 280 374 934
2020-07-28 04:00 2.41 414 963 (2015) 137 (2012) 255 137 139 151 152 234 262 280 374 934
2020-07-28 03:00 2.38 402 963 (2015) 137 (2012) 255 137 139 151 152 234 262 280 374 934
2020-07-28 02:00 2.39 406 963 (2015) 137 (2012) 255 137 139 151 152 234 262 280 374 934
2020-07-28 01:00 2.38 402 963 (2015) 137 (2012) 255 137 139 151 152 234 262 280 374 934
2020-07-28 00:00 2.39 406 963 (2015) 137 (2012) 255 137 139 151 152 234 262 280 374 934
2020-07-27 23:00 2.40 410 1440 (2015) 129 (2000) 279 129 137 142 153 222 277 295 392 1390
2020-07-27 22:00 2.40 410 1440 (2015) 129 (2000) 279 129 137 142 153 222 277 295 392 1390
2020-07-27 21:00 2.42 417 1440 (2015) 129 (2000) 279 129 137 142 153 222 277 295 392 1390
2020-07-27 20:00 2.43 421 1440 (2015) 129 (2000) 279 129 137 142 153 222 277 295 392 1390
2020-07-27 19:00 2.49 444 1440 (2015) 129 (2000) 279 129 137 142 153 222 277 295 392 1390
2020-07-27 18:00 2.50 448 1440 (2015) 129 (2000) 279 129 137 142 153 222 277 295 392 1390
2020-07-27 17:00 2.36 395 1440 (2015) 129 (2000) 279 129 137 142 153 222 277 295 392 1390
2020-07-27 16:00 2.35 391 1440 (2015) 129 (2000) 279 129 137 142 153 222 277 295 392 1390
2020-07-27 15:00 2.33 384 1440 (2015) 129 (2000) 279 129 137 142 153 222 277 295 392 1390
2020-07-27 14:00 2.37 399 1440 (2015) 129 (2000) 279 129 137 142 153 222 277 295 392 1390
2020-07-27 13:00 2.37 399 1440 (2015) 129 (2000) 279 129 137 142 153 222 277 295 392 1390
2020-07-27 12:00 2.39 406 1440 (2015) 129 (2000) 279 129 137 142 153 222 277 295 392 1390
2020-07-27 11:00 2.39 406 1440 (2015) 129 (2000) 279 129 137 142 153 222 277 295 392 1390
2020-07-27 10:00 2.38 402 1440 (2015) 129 (2000) 279 129 137 142 153 222 277 295 392 1390
2020-07-27 09:00 2.37 399 1440 (2015) 129 (2000) 279 129 137 142 153 222 277 295 392 1390
2020-07-27 08:00 2.36 395 1440 (2015) 129 (2000) 279 129 137 142 153 222 277 295 392 1390
2020-07-27 07:00 2.36 395 1440 (2015) 129 (2000) 279 129 137 142 153 222 277 295 392 1390
2020-07-27 06:00 2.37 399 1440 (2015) 129 (2000) 279 129 137 142 153 222 277 295 392 1390
2020-07-27 05:00 2.38 402 1440 (2015) 129 (2000) 279 129 137 142 153 222 277 295 392 1390
2020-07-27 04:00 2.37 399 1440 (2015) 129 (2000) 279 129 137 142 153 222 277 295 392 1390
2020-07-27 03:00 2.37 399 1440 (2015) 129 (2000) 279 129 137 142 153 222 277 295 392 1390
2020-07-27 02:00 2.37 399 1440 (2015) 129 (2000) 279 129 137 142 153 222 277 295 392 1390
2020-07-27 01:00 2.37 399 1440 (2015) 129 (2000) 279 129 137 142 153 222 277 295 392 1390
2020-07-27 00:00 2.40 410 1440 (2015) 129 (2000) 279 129 137 142 153 222 277 295 392 1390
2020-07-26 23:00 2.38 402 816 (2015) 135 (2000) 257 135 136 141 156 222 275 321 433 797
2020-07-26 22:00 2.38 402 816 (2015) 135 (2000) 257 135 136 141 156 222 275 321 433 797
2020-07-26 21:00 2.39 406 816 (2015) 135 (2000) 257 135 136 141 156 222 275 321 433 797
2020-07-26 20:00 2.40 410 816 (2015) 135 (2000) 257 135 136 141 156 222 275 321 433 797
2020-07-26 19:00 2.39 406 816 (2015) 135 (2000) 257 135 136 141 156 222 275 321 433 797
2020-07-26 18:00 2.36 395 816 (2015) 135 (2000) 257 135 136 141 156 222 275 321 433 797
2020-07-26 17:00 2.40 410 816 (2015) 135 (2000) 257 135 136 141 156 222 275 321 433 797
2020-07-26 16:00 2.39 406 816 (2015) 135 (2000) 257 135 136 141 156 222 275 321 433 797
2020-07-26 15:00 2.36 395 816 (2015) 135 (2000) 257 135 136 141 156 222 275 321 433 797
2020-07-26 14:00 2.38 402 816 (2015) 135 (2000) 257 135 136 141 156 222 275 321 433 797
2020-07-26 13:00 2.35 391 816 (2015) 135 (2000) 257 135 136 141 156 222 275 321 433 797
2020-07-26 12:00 2.38 402 816 (2015) 135 (2000) 257 135 136 141 156 222 275 321 433 797
2020-07-26 11:00 2.38 402 816 (2015) 135 (2000) 257 135 136 141 156 222 275 321 433 797
2020-07-26 10:00 2.38 402 816 (2015) 135 (2000) 257 135 136 141 156 222 275 321 433 797
2020-07-26 09:00 2.36 395 816 (2015) 135 (2000) 257 135 136 141 156 222 275 321 433 797
2020-07-26 08:00 2.37 399 816 (2015) 135 (2000) 257 135 136 141 156 222 275 321 433 797
2020-07-26 07:00 2.39 406 816 (2015) 135 (2000) 257 135 136 141 156 222 275 321 433 797
2020-07-26 06:00 2.39 406 816 (2015) 135 (2000) 257 135 136 141 156 222 275 321 433 797
2020-07-26 05:00 2.37 399 816 (2015) 135 (2000) 257 135 136 141 156 222 275 321 433 797
2020-07-26 04:00 2.36 395 816 (2015) 135 (2000) 257 135 136 141 156 222 275 321 433 797
2020-07-26 03:00 2.39 406 816 (2015) 135 (2000) 257 135 136 141 156 222 275 321 433 797
2020-07-26 02:00 2.39 406 816 (2015) 135 (2000) 257 135 136 141 156 222 275 321 433 797
2020-07-26 01:00 2.36 395 816 (2015) 135 (2000) 257 135 136 141 156 222 275 321 433 797
2020-07-26 00:00 2.40 410 816 (2015) 135 (2000) 257 135 136 141 156 222 275 321 433 797
2020-07-25 23:00 2.39 406 1060 (2015) 128 (2001) 299 128 137 145 160 226 298 373 773 1050
2020-07-25 22:00 2.40 410 1060 (2015) 128 (2001) 299 128 137 145 160 226 298 373 773 1050
2020-07-25 21:00 2.39 406 1060 (2015) 128 (2001) 299 128 137 145 160 226 298 373 773 1050
2020-07-25 20:00 2.40 410 1060 (2015) 128 (2001) 299 128 137 145 160 226 298 373 773 1050
2020-07-25 19:00 2.38 402 1060 (2015) 128 (2001) 299 128 137 145 160 226 298 373 773 1050
2020-07-25 18:00 2.41 414 1060 (2015) 128 (2001) 299 128 137 145 160 226 298 373 773 1050
2020-07-25 17:00 2.40 410 1060 (2015) 128 (2001) 299 128 137 145 160 226 298 373 773 1050
2020-07-25 16:00 2.41 414 1060 (2015) 128 (2001) 299 128 137 145 160 226 298 373 773 1050
2020-07-25 15:00 2.42 417 1060 (2015) 128 (2001) 299 128 137 145 160 226 298 373 773 1050
2020-07-25 14:00 2.41 414 1060 (2015) 128 (2001) 299 128 137 145 160 226 298 373 773 1050
2020-07-25 13:00 2.41 414 1060 (2015) 128 (2001) 299 128 137 145 160 226 298 373 773 1050
2020-07-25 12:00 2.43 421 1060 (2015) 128 (2001) 299 128 137 145 160 226 298 373 773 1050
2020-07-25 11:00 2.40 410 1060 (2015) 128 (2001) 299 128 137 145 160 226 298 373 773 1050
2020-07-25 10:00 2.41 414 1060 (2015) 128 (2001) 299 128 137 145 160 226 298 373 773 1050
2020-07-25 09:00 2.42 417 1060 (2015) 128 (2001) 299 128 137 145 160 226 298 373 773 1050
2020-07-25 08:00 2.41 414 1060 (2015) 128 (2001) 299 128 137 145 160 226 298 373 773 1050
2020-07-25 07:00 2.41 414 1060 (2015) 128 (2001) 299 128 137 145 160 226 298 373 773 1050
2020-07-25 06:00 2.43 421 1060 (2015) 128 (2001) 299 128 137 145 160 226 298 373 773 1050
2020-07-25 05:00 2.41 414 1060 (2015) 128 (2001) 299 128 137 145 160 226 298 373 773 1050
2020-07-25 04:00 2.44 425 1060 (2015) 128 (2001) 299 128 137 145 160 226 298 373 773 1050
2020-07-25 03:00 2.43 421 1060 (2015) 128 (2001) 299 128 137 145 160 226 298 373 773 1050
2020-07-25 02:00 2.44 425 1060 (2015) 128 (2001) 299 128 137 145 160 226 298 373 773 1050
2020-07-25 01:00 2.44 425 1060 (2015) 128 (2001) 299 128 137 145 160 226 298 373 773 1050
2020-07-25 00:00 2.46 433 1060 (2015) 128 (2001) 299 128 137 145 160 226 298 373 773 1050
2020-07-24 23:00 2.46 433 1020 (2015) 130 (2001) 273 130 138 154 165 228 277 285 575 999
2020-07-24 22:00 2.46 433 1020 (2015) 130 (2001) 273 130 138 154 165 228 277 285 575 999
2020-07-24 21:00 2.46 433 1020 (2015) 130 (2001) 273 130 138 154 165 228 277 285 575 999
2020-07-24 20:00 2.47 437 1020 (2015) 130 (2001) 273 130 138 154 165 228 277 285 575 999
2020-07-24 19:00 2.45 429 1020 (2015) 130 (2001) 273 130 138 154 165 228 277 285 575 999
2020-07-24 18:00 2.47 437 1020 (2015) 130 (2001) 273 130 138 154 165 228 277 285 575 999
2020-07-24 17:00 2.47 437 1020 (2015) 130 (2001) 273 130 138 154 165 228 277 285 575 999
2020-07-24 16:00 2.48 440 1020 (2015) 130 (2001) 273 130 138 154 165 228 277 285 575 999
2020-07-24 15:00 2.50 448 1020 (2015) 130 (2001) 273 130 138 154 165 228 277 285 575 999
2020-07-24 14:00 2.51 452 1020 (2015) 130 (2001) 273 130 138 154 165 228 277 285 575 999
2020-07-24 13:00 2.51 452 1020 (2015) 130 (2001) 273 130 138 154 165 228 277 285 575 999
2020-07-24 12:00 2.50 448 1020 (2015) 130 (2001) 273 130 138 154 165 228 277 285 575 999
2020-07-24 11:00 2.52 456 1020 (2015) 130 (2001) 273 130 138 154 165 228 277 285 575 999
2020-07-24 10:00 2.55 467 1020 (2015) 130 (2001) 273 130 138 154 165 228 277 285 575 999
2020-07-24 09:00 2.55 467 1020 (2015) 130 (2001) 273 130 138 154 165 228 277 285 575 999
2020-07-24 08:00 2.55 467 1020 (2015) 130 (2001) 273 130 138 154 165 228 277 285 575 999
2020-07-24 07:00 2.53 460 1020 (2015) 130 (2001) 273 130 138 154 165 228 277 285 575 999
2020-07-24 06:00 2.52 456 1020 (2015) 130 (2001) 273 130 138 154 165 228 277 285 575 999
2020-07-24 05:00 2.49 444 1020 (2015) 130 (2001) 273 130 138 154 165 228 277 285 575 999
2020-07-24 04:00 2.49 444 1020 (2015) 130 (2001) 273 130 138 154 165 228 277 285 575 999
2020-07-24 03:00 2.49 444 1020 (2015) 130 (2001) 273 130 138 154 165 228 277 285 575 999
2020-07-24 02:00 2.47 437 1020 (2015) 130 (2001) 273 130 138 154 165 228 277 285 575 999
2020-07-24 01:00 2.47 437 1020 (2015) 130 (2001) 273 130 138 154 165 228 277 285 575 999
2020-07-24 00:00 2.50 448 1020 (2015) 130 (2001) 273 130 138 154 165 228 277 285 575 999
2020-07-23 23:00 2.52 456 992 (2015) 138 (2012) 292 138 141 156 171 227 275 315 870 989
2020-07-23 22:00 2.51 452 992 (2015) 138 (2012) 292 138 141 156 171 227 275 315 870 989
2020-07-23 21:00 2.52 456 992 (2015) 138 (2012) 292 138 141 156 171 227 275 315 870 989
2020-07-23 20:00 2.51 452 992 (2015) 138 (2012) 292 138 141 156 171 227 275 315 870 989
2020-07-23 19:00 2.52 456 992 (2015) 138 (2012) 292 138 141 156 171 227 275 315 870 989
2020-07-23 18:00 2.52 456 992 (2015) 138 (2012) 292 138 141 156 171 227 275 315 870 989
2020-07-23 17:00 2.54 463 992 (2015) 138 (2012) 292 138 141 156 171 227 275 315 870 989
2020-07-23 16:00 2.54 463 992 (2015) 138 (2012) 292 138 141 156 171 227 275 315 870 989
2020-07-23 15:00 2.53 460 992 (2015) 138 (2012) 292 138 141 156 171 227 275 315 870 989
2020-07-23 14:00 2.52 456 992 (2015) 138 (2012) 292 138 141 156 171 227 275 315 870 989
2020-07-23 13:00 2.51 452 992 (2015) 138 (2012) 292 138 141 156 171 227 275 315 870 989
2020-07-23 12:00 2.50 448 992 (2015) 138 (2012) 292 138 141 156 171 227 275 315 870 989
2020-07-23 11:00 2.51 452 992 (2015) 138 (2012) 292 138 141 156 171 227 275 315 870 989
2020-07-23 10:00 2.48 440 992 (2015) 138 (2012) 292 138 141 156 171 227 275 315 870 989
2020-07-23 09:00 2.46 433 992 (2015) 138 (2012) 292 138 141 156 171 227 275 315 870 989
2020-07-23 08:00 2.47 437 992 (2015) 138 (2012) 292 138 141 156 171 227 275 315 870 989
2020-07-23 07:00 2.45 429 992 (2015) 138 (2012) 292 138 141 156 171 227 275 315 870 989
2020-07-23 06:00 2.43 421 992 (2015) 138 (2012) 292 138 141 156 171 227 275 315 870 989
2020-07-23 05:00 2.43 421 992 (2015) 138 (2012) 292 138 141 156 171 227 275 315 870 989
2020-07-23 04:00 2.41 414 992 (2015) 138 (2012) 292 138 141 156 171 227 275 315 870 989
2020-07-23 03:00 2.43 421 992 (2015) 138 (2012) 292 138 141 156 171 227 275 315 870 989
2020-07-23 02:00 2.41 414 992 (2015) 138 (2012) 292 138 141 156 171 227 275 315 870 989
2020-07-23 01:00 2.41 414 992 (2015) 138 (2012) 292 138 141 156 171 227 275 315 870 989
2020-07-23 00:00 2.42 417 992 (2015) 138 (2012) 292 138 141 156 171 227 275 315 870 989
2020-07-22 23:00 2.41 414 858 (2019) 131 (2000) 281 131 133 166 176 232 286 304 711 852
2020-07-22 22:00 2.43 421 858 (2019) 131 (2000) 281 131 133 166 176 232 286 304 711 852
2020-07-22 21:00 2.42 417 858 (2019) 131 (2000) 281 131 133 166 176 232 286 304 711 852
2020-07-22 20:00 2.44 425 858 (2019) 131 (2000) 281 131 133 166 176 232 286 304 711 852
2020-07-22 19:00 2.44 425 858 (2019) 131 (2000) 281 131 133 166 176 232 286 304 711 852
2020-07-22 18:00 2.43 421 858 (2019) 131 (2000) 281 131 133 166 176 232 286 304 711 852
2020-07-22 17:00 2.45 429 858 (2019) 131 (2000) 281 131 133 166 176 232 286 304 711 852
2020-07-22 16:00 2.42 417 858 (2019) 131 (2000) 281 131 133 166 176 232 286 304 711 852
2020-07-22 15:00 2.43 421 858 (2019) 131 (2000) 281 131 133 166 176 232 286 304 711 852
2020-07-22 14:00 2.43 421 858 (2019) 131 (2000) 281 131 133 166 176 232 286 304 711 852
2020-07-22 13:00 2.44 425 858 (2019) 131 (2000) 281 131 133 166 176 232 286 304 711 852
2020-07-22 12:00 2.43 421 858 (2019) 131 (2000) 281 131 133 166 176 232 286 304 711 852
2020-07-22 11:00 2.44 425 858 (2019) 131 (2000) 281 131 133 166 176 232 286 304 711 852
2020-07-22 10:00 2.45 429 858 (2019) 131 (2000) 281 131 133 166 176 232 286 304 711 852
2020-07-22 09:00 2.44 425 858 (2019) 131 (2000) 281 131 133 166 176 232 286 304 711 852
2020-07-22 08:00 2.46 433 858 (2019) 131 (2000) 281 131 133 166 176 232 286 304 711 852
2020-07-22 07:00 2.47 437 858 (2019) 131 (2000) 281 131 133 166 176 232 286 304 711 852
2020-07-22 06:00 2.44 425 858 (2019) 131 (2000) 281 131 133 166 176 232 286 304 711 852
2020-07-22 05:00 2.46 433 858 (2019) 131 (2000) 281 131 133 166 176 232 286 304 711 852
2020-07-22 04:00 2.44 425 858 (2019) 131 (2000) 281 131 133 166 176 232 286 304 711 852
2020-07-22 03:00 2.43 421 858 (2019) 131 (2000) 281 131 133 166 176 232 286 304 711 852
2020-07-22 02:00 2.44 425 858 (2019) 131 (2000) 281 131 133 166 176 232 286 304 711 852
2020-07-22 01:00 2.44 425 858 (2019) 131 (2000) 281 131 133 166 176 232 286 304 711 852
2020-07-22 00:00 2.43 421 858 (2019) 131 (2000) 281 131 133 166 176 232 286 304 711 852
2020-07-21 23:00 2.47 437 936 (2015) 136 (2000) 276 136 137 166 184 248 265 290 565 919
2020-07-21 22:00 2.47 437 936 (2015) 136 (2000) 276 136 137 166 184 248 265 290 565 919
2020-07-21 21:00 2.48 440 936 (2015) 136 (2000) 276 136 137 166 184 248 265 290 565 919
2020-07-21 20:00 2.46 433 936 (2015) 136 (2000) 276 136 137 166 184 248 265 290 565 919
2020-07-21 19:00 2.44 425 936 (2015) 136 (2000) 276 136 137 166 184 248 265 290 565 919
2020-07-21 18:00 2.44 425 936 (2015) 136 (2000) 276 136 137 166 184 248 265 290 565 919
2020-07-21 17:00 2.44 425 936 (2015) 136 (2000) 276 136 137 166 184 248 265 290 565 919
2020-07-21 16:00 2.43 421 936 (2015) 136 (2000) 276 136 137 166 184 248 265 290 565 919
2020-07-21 15:00 2.44 425 936 (2015) 136 (2000) 276 136 137 166 184 248 265 290 565 919
2020-07-21 14:00 2.43 421 936 (2015) 136 (2000) 276 136 137 166 184 248 265 290 565 919
2020-07-21 13:00 2.45 429 936 (2015) 136 (2000) 276 136 137 166 184 248 265 290 565 919
2020-07-21 12:00 2.47 437 936 (2015) 136 (2000) 276 136 137 166 184 248 265 290 565 919
2020-07-21 11:00 2.47 437 936 (2015) 136 (2000) 276 136 137 166 184 248 265 290 565 919
2020-07-21 10:00 2.46 433 936 (2015) 136 (2000) 276 136 137 166 184 248 265 290 565 919
2020-07-21 09:00 2.43 421 936 (2015) 136 (2000) 276 136 137 166 184 248 265 290 565 919
2020-07-21 08:00 2.42 417 936 (2015) 136 (2000) 276 136 137 166 184 248 265 290 565 919
2020-07-21 07:00 2.44 425 936 (2015) 136 (2000) 276 136 137 166 184 248 265 290 565 919
2020-07-21 06:00 2.43 421 936 (2015) 136 (2000) 276 136 137 166 184 248 265 290 565 919
2020-07-21 05:00 2.45 429 936 (2015) 136 (2000) 276 136 137 166 184 248 265 290 565 919
2020-07-21 04:00 2.41 414 936 (2015) 136 (2000) 276 136 137 166 184 248 265 290 565 919
2020-07-21 03:00 2.44 425 936 (2015) 136 (2000) 276 136 137 166 184 248 265 290 565 919
2020-07-21 02:00 2.44 425 936 (2015) 136 (2000) 276 136 137 166 184 248 265 290 565 919
2020-07-21 01:00 2.44 425 936 (2015) 136 (2000) 276 136 137 166 184 248 265 290 565 919
2020-07-21 00:00 2.42 417 936 (2015) 136 (2000) 276 136 137 166 184 248 265 290 565 919
2020-07-20 23:00 2.44 425 882 (2015) 136 (2000) 256 136 137 153 179 232 268 279 341 855
2020-07-20 22:00 2.44 425 882 (2015) 136 (2000) 256 136 137 153 179 232 268 279 341 855
2020-07-20 21:00 2.44 425 882 (2015) 136 (2000) 256 136 137 153 179 232 268 279 341 855
2020-07-20 20:00 2.44 425 882 (2015) 136 (2000) 256 136 137 153 179 232 268 279 341 855
2020-07-20 19:00 2.45 429 882 (2015) 136 (2000) 256 136 137 153 179 232 268 279 341 855
2020-07-20 18:00 2.47 437 882 (2015) 136 (2000) 256 136 137 153 179 232 268 279 341 855
2020-07-20 17:00 2.46 433 882 (2015) 136 (2000) 256 136 137 153 179 232 268 279 341 855
2020-07-20 16:00 2.48 440 882 (2015) 136 (2000) 256 136 137 153 179 232 268 279 341 855
2020-07-20 15:00 2.49 444 882 (2015) 136 (2000) 256 136 137 153 179 232 268 279 341 855
2020-07-20 14:00 2.46 433 882 (2015) 136 (2000) 256 136 137 153 179 232 268 279 341 855
2020-07-20 13:00 2.47 437 882 (2015) 136 (2000) 256 136 137 153 179 232 268 279 341 855
2020-07-20 12:00 2.48 440 882 (2015) 136 (2000) 256 136 137 153 179 232 268 279 341 855
2020-07-20 11:00 2.51 452 882 (2015) 136 (2000) 256 136 137 153 179 232 268 279 341 855
2020-07-20 10:00 2.48 440 882 (2015) 136 (2000) 256 136 137 153 179 232 268 279 341 855
2020-07-20 09:00 2.50 448 882 (2015) 136 (2000) 256 136 137 153 179 232 268 279 341 855
2020-07-20 08:00 2.46 433 882 (2015) 136 (2000) 256 136 137 153 179 232 268 279 341 855
2020-07-20 07:00 2.49 444 882 (2015) 136 (2000) 256 136 137 153 179 232 268 279 341 855
2020-07-20 06:00 2.43 421 882 (2015) 136 (2000) 256 136 137 153 179 232 268 279 341 855
2020-07-20 05:00 2.41 414 882 (2015) 136 (2000) 256 136 137 153 179 232 268 279 341 855
2020-07-20 04:00 2.39 406 882 (2015) 136 (2000) 256 136 137 153 179 232 268 279 341 855
2020-07-20 03:00 2.40 410 882 (2015) 136 (2000) 256 136 137 153 179 232 268 279 341 855
2020-07-20 02:00 2.40 410 882 (2015) 136 (2000) 256 136 137 153 179 232 268 279 341 855
2020-07-20 01:00 2.39 406 882 (2015) 136 (2000) 256 136 137 153 179 232 268 279 341 855
2020-07-20 00:00 2.41 414 882 (2015) 136 (2000) 256 136 137 153 179 232 268 279 341 855
2020-07-19 23:00 2.38 402 835 (2015) 129 (2000) 255 129 135 157 176 230 275 281 356 811
2020-07-19 22:00 2.39 406 835 (2015) 129 (2000) 255 129 135 157 176 230 275 281 356 811
2020-07-19 21:00 2.38 402 835 (2015) 129 (2000) 255 129 135 157 176 230 275 281 356 811
2020-07-19 20:00 2.38 402 835 (2015) 129 (2000) 255 129 135 157 176 230 275 281 356 811
2020-07-19 19:00 2.38 402 835 (2015) 129 (2000) 255 129 135 157 176 230 275 281 356 811
2020-07-19 18:00 2.39 406 835 (2015) 129 (2000) 255 129 135 157 176 230 275 281 356 811
2020-07-19 17:00 2.38 402 835 (2015) 129 (2000) 255 129 135 157 176 230 275 281 356 811
2020-07-19 16:00 2.38 402 835 (2015) 129 (2000) 255 129 135 157 176 230 275 281 356 811
2020-07-19 15:00 2.39 406 835 (2015) 129 (2000) 255 129 135 157 176 230 275 281 356 811
2020-07-19 14:00 2.38 402 835 (2015) 129 (2000) 255 129 135 157 176 230 275 281 356 811
2020-07-19 13:00 2.38 402 835 (2015) 129 (2000) 255 129 135 157 176 230 275 281 356 811
2020-07-19 12:00 2.39 406 835 (2015) 129 (2000) 255 129 135 157 176 230 275 281 356 811
2020-07-19 11:00 2.39 406 835 (2015) 129 (2000) 255 129 135 157 176 230 275 281 356 811
2020-07-19 10:00 2.39 406 835 (2015) 129 (2000) 255 129 135 157 176 230 275 281 356 811
2020-07-19 09:00 2.37 399 835 (2015) 129 (2000) 255 129 135 157 176 230 275 281 356 811
2020-07-19 08:00 2.38 402 835 (2015) 129 (2000) 255 129 135 157 176 230 275 281 356 811
2020-07-19 07:00 2.38 402 835 (2015) 129 (2000) 255 129 135 157 176 230 275 281 356 811
2020-07-19 06:00 2.39 406 835 (2015) 129 (2000) 255 129 135 157 176 230 275 281 356 811
2020-07-19 05:00 2.39 406 835 (2015) 129 (2000) 255 129 135 157 176 230 275 281 356 811
2020-07-19 04:00 2.37 399 835 (2015) 129 (2000) 255 129 135 157 176 230 275 281 356 811
2020-07-19 03:00 2.39 406 835 (2015) 129 (2000) 255 129 135 157 176 230 275 281 356 811
2020-07-19 02:00 2.38 402 835 (2015) 129 (2000) 255 129 135 157 176 230 275 281 356 811
2020-07-19 01:00 2.38 402 835 (2015) 129 (2000) 255 129 135 157 176 230 275 281 356 811
2020-07-19 00:00 2.38 402 835 (2015) 129 (2000) 255 129 135 157 176 230 275 281 356 811
2020-07-18 23:00 2.38 402 954 (2015) 135 (2000) 265 135 139 150 160 234 282 290 368 925
2020-07-18 22:00 2.38 402 954 (2015) 135 (2000) 265 135 139 150 160 234 282 290 368 925
2020-07-18 21:00 2.36 395 954 (2015) 135 (2000) 265 135 139 150 160 234 282 290 368 925
2020-07-18 20:00 2.38 402 954 (2015) 135 (2000) 265 135 139 150 160 234 282 290 368 925
2020-07-18 19:00 2.38 402 954 (2015) 135 (2000) 265 135 139 150 160 234 282 290 368 925
2020-07-18 18:00 2.39 406 954 (2015) 135 (2000) 265 135 139 150 160 234 282 290 368 925
2020-07-18 17:00 2.40 410 954 (2015) 135 (2000) 265 135 139 150 160 234 282 290 368 925
2020-07-18 16:00 2.38 402 954 (2015) 135 (2000) 265 135 139 150 160 234 282 290 368 925
2020-07-18 15:00 2.39 406 954 (2015) 135 (2000) 265 135 139 150 160 234 282 290 368 925
2020-07-18 14:00 2.38 402 954 (2015) 135 (2000) 265 135 139 150 160 234 282 290 368 925
2020-07-18 13:00 2.39 406 954 (2015) 135 (2000) 265 135 139 150 160 234 282 290 368 925
2020-07-18 12:00 2.41 414 954 (2015) 135 (2000) 265 135 139 150 160 234 282 290 368 925
2020-07-18 11:00 2.40 410 954 (2015) 135 (2000) 265 135 139 150 160 234 282 290 368 925
2020-07-18 10:00 2.41 414 954 (2015) 135 (2000) 265 135 139 150 160 234 282 290 368 925
2020-07-18 09:00 2.41 414 954 (2015) 135 (2000) 265 135 139 150 160 234 282 290 368 925
2020-07-18 08:00 2.41 414 954 (2015) 135 (2000) 265 135 139 150 160 234 282 290 368 925
2020-07-18 07:00 2.40 410 954 (2015) 135 (2000) 265 135 139 150 160 234 282 290 368 925
2020-07-18 06:00 2.40 410 954 (2015) 135 (2000) 265 135 139 150 160 234 282 290 368 925
2020-07-18 05:00 2.41 414 954 (2015) 135 (2000) 265 135 139 150 160 234 282 290 368 925
2020-07-18 04:00 2.40 410 954 (2015) 135 (2000) 265 135 139 150 160 234 282 290 368 925
2020-07-18 03:00 2.41 414 954 (2015) 135 (2000) 265 135 139 150 160 234 282 290 368 925
2020-07-18 02:00 2.39 406 954 (2015) 135 (2000) 265 135 139 150 160 234 282 290 368 925
2020-07-18 01:00 2.40 410 954 (2015) 135 (2000) 265 135 139 150 160 234 282 290 368 925
2020-07-18 00:00 2.40 410 954 (2015) 135 (2000) 265 135 139 150 160 234 282 290 368 925
2020-07-17 23:00 2.38 402 1110 (2015) 140 (2000) 280 140 141 150 161 234 296 310 374 1070
2020-07-17 22:00 2.40 410 1110 (2015) 140 (2000) 280 140 141 150 161 234 296 310 374 1070
2020-07-17 21:00 2.41 414 1110 (2015) 140 (2000) 280 140 141 150 161 234 296 310 374 1070
2020-07-17 20:00 2.38 402 1110 (2015) 140 (2000) 280 140 141 150 161 234 296 310 374 1070
2020-07-17 19:00 2.40 410 1110 (2015) 140 (2000) 280 140 141 150 161 234 296 310 374 1070
2020-07-17 18:00 2.41 414 1110 (2015) 140 (2000) 280 140 141 150 161 234 296 310 374 1070
2020-07-17 17:00 2.40 410 1110 (2015) 140 (2000) 280 140 141 150 161 234 296 310 374 1070
2020-07-17 16:00 2.41 414 1110 (2015) 140 (2000) 280 140 141 150 161 234 296 310 374 1070
2020-07-17 15:00 2.42 417 1110 (2015) 140 (2000) 280 140 141 150 161 234 296 310 374 1070
2020-07-17 14:00 2.42 417 1110 (2015) 140 (2000) 280 140 141 150 161 234 296 310 374 1070
2020-07-17 13:00 2.41 414 1110 (2015) 140 (2000) 280 140 141 150 161 234 296 310 374 1070
2020-07-17 12:00 2.41 414 1110 (2015) 140 (2000) 280 140 141 150 161 234 296 310 374 1070
2020-07-17 11:00 2.41 414 1110 (2015) 140 (2000) 280 140 141 150 161 234 296 310 374 1070
2020-07-17 10:00 2.40 410 1110 (2015) 140 (2000) 280 140 141 150 161 234 296 310 374 1070
2020-07-17 09:00 2.42 417 1110 (2015) 140 (2000) 280 140 141 150 161 234 296 310 374 1070
2020-07-17 08:00 2.42 417 1110 (2015) 140 (2000) 280 140 141 150 161 234 296 310 374 1070
2020-07-17 07:00 2.39 406 1110 (2015) 140 (2000) 280 140 141 150 161 234 296 310 374 1070
2020-07-17 06:00 2.41 414 1110 (2015) 140 (2000) 280 140 141 150 161 234 296 310 374 1070
2020-07-17 05:00 2.41 414 1110 (2015) 140 (2000) 280 140 141 150 161 234 296 310 374 1070
2020-07-17 04:00 2.42 417 1110 (2015) 140 (2000) 280 140 141 150 161 234 296 310 374 1070
2020-07-17 03:00 2.40 410 1110 (2015) 140 (2000) 280 140 141 150 161 234 296 310 374 1070
2020-07-17 02:00 2.41 414 1110 (2015) 140 (2000) 280 140 141 150 161 234 296 310 374 1070
2020-07-17 01:00 2.41 414 1110 (2015) 140 (2000) 280 140 141 150 161 234 296 310 374 1070
2020-07-17 00:00 2.42 417 1110 (2015) 140 (2000) 280 140 141 150 161 234 296 310 374 1070
2020-07-16 23:00 2.42 417 1330 (2015) 136 (2000) 294 137 147 155 163 230 301 354 371 1280
2020-07-16 22:00 2.42 417 1330 (2015) 136 (2000) 294 137 147 155 163 230 301 354 371 1280
2020-07-16 21:00 2.41 414 1330 (2015) 136 (2000) 294 137 147 155 163 230 301 354 371 1280
2020-07-16 20:00 2.41 414 1330 (2015) 136 (2000) 294 137 147 155 163 230 301 354 371 1280
2020-07-16 19:00 2.43 421 1330 (2015) 136 (2000) 294 137 147 155 163 230 301 354 371 1280
2020-07-16 18:00 2.44 425 1330 (2015) 136 (2000) 294 137 147 155 163 230 301 354 371 1280
2020-07-16 17:00 2.45 429 1330 (2015) 136 (2000) 294 137 147 155 163 230 301 354 371 1280
2020-07-16 16:00 2.43 421 1330 (2015) 136 (2000) 294 137 147 155 163 230 301 354 371 1280
2020-07-16 15:00 2.41 414 1330 (2015) 136 (2000) 294 137 147 155 163 230 301 354 371 1280
2020-07-16 14:00 2.43 421 1330 (2015) 136 (2000) 294 137 147 155 163 230 301 354 371 1280
2020-07-16 13:00 2.42 417 1330 (2015) 136 (2000) 294 137 147 155 163 230 301 354 371 1280
2020-07-16 12:00 2.43 421 1330 (2015) 136 (2000) 294 137 147 155 163 230 301 354 371 1280
2020-07-16 11:00 2.44 425 1330 (2015) 136 (2000) 294 137 147 155 163 230 301 354 371 1280
2020-07-16 10:00 2.42 417 1330 (2015) 136 (2000) 294 137 147 155 163 230 301 354 371 1280
2020-07-16 09:00 2.41 414 1330 (2015) 136 (2000) 294 137 147 155 163 230 301 354 371 1280
2020-07-16 08:00 2.43 421 1330 (2015) 136 (2000) 294 137 147 155 163 230 301 354 371 1280
2020-07-16 07:00 2.42 417 1330 (2015) 136 (2000) 294 137 147 155 163 230 301 354 371 1280
2020-07-16 06:00 2.43 421 1330 (2015) 136 (2000) 294 137 147 155 163 230 301 354 371 1280
2020-07-16 05:00 2.43 421 1330 (2015) 136 (2000) 294 137 147 155 163 230 301 354 371 1280
2020-07-16 04:00 2.41 414 1330 (2015) 136 (2000) 294 137 147 155 163 230 301 354 371 1280
2020-07-16 03:00 2.43 421 1330 (2015) 136 (2000) 294 137 147 155 163 230 301 354 371 1280
2020-07-16 02:00 2.43 421 1330 (2015) 136 (2000) 294 137 147 155 163 230 301 354 371 1280
2020-07-16 01:00 2.43 421 1330 (2015) 136 (2000) 294 137 147 155 163 230 301 354 371 1280
2020-07-16 00:00 2.42 417 1330 (2015) 136 (2000) 294 137 147 155 163 230 301 354 371 1280
2020-07-15 23:00 2.42 417 1620 (2015) 140 (2000) 318 141 154 160 167 246 301 355 456 1560
2020-07-15 22:00 2.44 425 1620 (2015) 140 (2000) 318 141 154 160 167 246 301 355 456 1560
2020-07-15 21:00 2.44 425 1620 (2015) 140 (2000) 318 141 154 160 167 246 301 355 456 1560
2020-07-15 20:00 2.45 429 1620 (2015) 140 (2000) 318 141 154 160 167 246 301 355 456 1560
2020-07-15 19:00 2.44 425 1620 (2015) 140 (2000) 318 141 154 160 167 246 301 355 456 1560
2020-07-15 18:00 2.45 429 1620 (2015) 140 (2000) 318 141 154 160 167 246 301 355 456 1560
2020-07-15 17:00 2.45 429 1620 (2015) 140 (2000) 318 141 154 160 167 246 301 355 456 1560
2020-07-15 16:00 2.42 417 1620 (2015) 140 (2000) 318 141 154 160 167 246 301 355 456 1560
2020-07-15 15:00 2.43 421 1620 (2015) 140 (2000) 318 141 154 160 167 246 301 355 456 1560
2020-07-15 14:00 2.43 421 1620 (2015) 140 (2000) 318 141 154 160 167 246 301 355 456 1560
2020-07-15 13:00 2.43 421 1620 (2015) 140 (2000) 318 141 154 160 167 246 301 355 456 1560
2020-07-15 12:00 2.44 425 1620 (2015) 140 (2000) 318 141 154 160 167 246 301 355 456 1560
2020-07-15 11:00 2.46 433 1620 (2015) 140 (2000) 318 141 154 160 167 246 301 355 456 1560
2020-07-15 10:00 2.44 425 1620 (2015) 140 (2000) 318 141 154 160 167 246 301 355 456 1560
2020-07-15 09:00 2.46 433 1620 (2015) 140 (2000) 318 141 154 160 167 246 301 355 456 1560
2020-07-15 08:00 2.45 429 1620 (2015) 140 (2000) 318 141 154 160 167 246 301 355 456 1560
2020-07-15 07:00 2.44 425 1620 (2015) 140 (2000) 318 141 154 160 167 246 301 355 456 1560
2020-07-15 06:00 2.44 425 1620 (2015) 140 (2000) 318 141 154 160 167 246 301 355 456 1560
2020-07-15 05:00 2.45 429 1620 (2015) 140 (2000) 318 141 154 160 167 246 301 355 456 1560
2020-07-15 04:00 2.45 429 1620 (2015) 140 (2000) 318 141 154 160 167 246 301 355 456 1560
2020-07-15 03:00 2.44 425 1620 (2015) 140 (2000) 318 141 154 160 167 246 301 355 456 1560
2020-07-15 02:00 2.45 429 1620 (2015) 140 (2000) 318 141 154 160 167 246 301 355 456 1560
2020-07-15 01:00 2.43 421 1620 (2015) 140 (2000) 318 141 154 160 167 246 301 355 456 1560
2020-07-15 00:00 2.46 433 1620 (2015) 140 (2000) 318 141 154 160 167 246 301 355 456 1560
2020-07-14 23:00 2.44 425 2100 (2015) 142 (2000) 355 143 156 159 168 255 315 365 603 2030
2020-07-14 22:00 2.44 425 2100 (2015) 142 (2000) 355 143 156 159 168 255 315 365 603 2030
2020-07-14 21:00 2.46 433 2100 (2015) 142 (2000) 355 143 156 159 168 255 315 365 603 2030
2020-07-14 20:00 2.45 429 2100 (2015) 142 (2000) 355 143 156 159 168 255 315 365 603 2030
2020-07-14 19:00 2.43 421 2100 (2015) 142 (2000) 355 143 156 159 168 255 315 365 603 2030
2020-07-14 18:00 2.45 429 2100 (2015) 142 (2000) 355 143 156 159 168 255 315 365 603 2030
2020-07-14 17:00 2.45 429 2100 (2015) 142 (2000) 355 143 156 159 168 255 315 365 603 2030
2020-07-14 16:00 2.44 425 2100 (2015) 142 (2000) 355 143 156 159 168 255 315 365 603 2030
2020-07-14 15:00 2.45 429 2100 (2015) 142 (2000) 355 143 156 159 168 255 315 365 603 2030
2020-07-14 14:00 2.46 433 2100 (2015) 142 (2000) 355 143 156 159 168 255 315 365 603 2030
2020-07-14 13:00 2.46 433 2100 (2015) 142 (2000) 355 143 156 159 168 255 315 365 603 2030
2020-07-14 12:00 2.43 421 2100 (2015) 142 (2000) 355 143 156 159 168 255 315 365 603 2030
2020-07-14 11:00 2.44 425 2100 (2015) 142 (2000) 355 143 156 159 168 255 315 365 603 2030
2020-07-14 10:00 2.47 437 2100 (2015) 142 (2000) 355 143 156 159 168 255 315 365 603 2030
2020-07-14 09:00 2.48 440 2100 (2015) 142 (2000) 355 143 156 159 168 255 315 365 603 2030
2020-07-14 08:00 2.47 437 2100 (2015) 142 (2000) 355 143 156 159 168 255 315 365 603 2030
2020-07-14 07:00 2.47 437 2100 (2015) 142 (2000) 355 143 156 159 168 255 315 365 603 2030
2020-07-14 06:00 2.47 437 2100 (2015) 142 (2000) 355 143 156 159 168 255 315 365 603 2030
2020-07-14 05:00 2.47 437 2100 (2015) 142 (2000) 355 143 156 159 168 255 315 365 603 2030
2020-07-14 04:00 2.47 437 2100 (2015) 142 (2000) 355 143 156 159 168 255 315 365 603 2030
2020-07-14 03:00 2.48 440 2100 (2015) 142 (2000) 355 143 156 159 168 255 315 365 603 2030
2020-07-14 02:00 2.49 444 2100 (2015) 142 (2000) 355 143 156 159 168 255 315 365 603 2030
2020-07-14 01:00 2.47 437 2100 (2015) 142 (2000) 355 143 156 159 168 255 315 365 603 2030
2020-07-14 00:00 2.45 429 2100 (2015) 142 (2000) 355 143 156 159 168 255 315 365 603 2030
2020-07-13 23:00 2.46 433 2810 (2015) 145 (2000) 418 146 157 163 172 226 331 387 1070 2730
2020-07-13 22:00 2.46 433 2810 (2015) 145 (2000) 418 146 157 163 172 226 331 387 1070 2730
2020-07-13 21:00 2.47 437 2810 (2015) 145 (2000) 418 146 157 163 172 226 331 387 1070 2730
2020-07-13 20:00 2.49 444 2810 (2015) 145 (2000) 418 146 157 163 172 226 331 387 1070 2730
2020-07-13 19:00 2.47 437 2810 (2015) 145 (2000) 418 146 157 163 172 226 331 387 1070 2730
2020-07-13 18:00 2.48 440 2810 (2015) 145 (2000) 418 146 157 163 172 226 331 387 1070 2730
2020-07-13 17:00 2.49 444 2810 (2015) 145 (2000) 418 146 157 163 172 226 331 387 1070 2730
2020-07-13 16:00 2.48 440 2810 (2015) 145 (2000) 418 146 157 163 172 226 331 387 1070 2730
2020-07-13 15:00 2.49 444 2810 (2015) 145 (2000) 418 146 157 163 172 226 331 387 1070 2730
2020-07-13 14:00 2.48 440 2810 (2015) 145 (2000) 418 146 157 163 172 226 331 387 1070 2730
2020-07-13 13:00 2.48 440 2810 (2015) 145 (2000) 418 146 157 163 172 226 331 387 1070 2730
2020-07-13 12:00 2.47 437 2810 (2015) 145 (2000) 418 146 157 163 172 226 331 387 1070 2730
2020-07-13 11:00 2.49 444 2810 (2015) 145 (2000) 418 146 157 163 172 226 331 387 1070 2730
2020-07-13 10:00 2.49 444 2810 (2015) 145 (2000) 418 146 157 163 172 226 331 387 1070 2730
2020-07-13 09:00 2.48 440 2810 (2015) 145 (2000) 418 146 157 163 172 226 331 387 1070 2730
2020-07-13 08:00 2.48 440 2810 (2015) 145 (2000) 418 146 157 163 172 226 331 387 1070 2730
2020-07-13 07:00 2.50 448 2810 (2015) 145 (2000) 418 146 157 163 172 226 331 387 1070 2730
2020-07-13 06:00 2.50 448 2810 (2015) 145 (2000) 418 146 157 163 172 226 331 387 1070 2730
2020-07-13 05:00 2.50 448 2810 (2015) 145 (2000) 418 146 157 163 172 226 331 387 1070 2730
2020-07-13 04:00 2.49 444 2810 (2015) 145 (2000) 418 146 157 163 172 226 331 387 1070 2730
2020-07-13 03:00 2.50 448 2810 (2015) 145 (2000) 418 146 157 163 172 226 331 387 1070 2730
2020-07-13 02:00 2.48 440 2810 (2015) 145 (2000) 418 146 157 163 172 226 331 387 1070 2730
2020-07-13 01:00 2.48 440 2810 (2015) 145 (2000) 418 146 157 163 172 226 331 387 1070 2730
2020-07-13 00:00 2.48 440 2810 (2015) 145 (2000) 418 146 157 163 172 226 331 387 1070 2730
2020-07-12 23:00 2.50 448 5290 (2015) 137 (2000) 585 138 159 164 174 233 343 382 1770 5120
2020-07-12 22:00 2.50 448 5290 (2015) 137 (2000) 585 138 159 164 174 233 343 382 1770 5120
2020-07-12 21:00 2.51 452 5290 (2015) 137 (2000) 585 138 159 164 174 233 343 382 1770 5120
2020-07-12 20:00 2.50 448 5290 (2015) 137 (2000) 585 138 159 164 174 233 343 382 1770 5120
2020-07-12 19:00 2.50 448 5290 (2015) 137 (2000) 585 138 159 164 174 233 343 382 1770 5120
2020-07-12 18:00 2.50 448 5290 (2015) 137 (2000) 585 138 159 164 174 233 343 382 1770 5120
2020-07-12 17:00 2.50 448 5290 (2015) 137 (2000) 585 138 159 164 174 233 343 382 1770 5120
2020-07-12 16:00 2.50 448 5290 (2015) 137 (2000) 585 138 159 164 174 233 343 382 1770 5120
2020-07-12 15:00 2.51 452 5290 (2015) 137 (2000) 585 138 159 164 174 233 343 382 1770 5120
2020-07-12 14:00 2.50 448 5290 (2015) 137 (2000) 585 138 159 164 174 233 343 382 1770 5120
2020-07-12 13:00 2.51 452 5290 (2015) 137 (2000) 585 138 159 164 174 233 343 382 1770 5120
2020-07-12 12:00 2.52 456 5290 (2015) 137 (2000) 585 138 159 164 174 233 343 382 1770 5120
2020-07-12 11:00 2.52 456 5290 (2015) 137 (2000) 585 138 159 164 174 233 343 382 1770 5120
2020-07-12 10:00 2.52 456 5290 (2015) 137 (2000) 585 138 159 164 174 233 343 382 1770 5120
2020-07-12 09:00 2.52 456 5290 (2015) 137 (2000) 585 138 159 164 174 233 343 382 1770 5120
2020-07-12 08:00 2.52 456 5290 (2015) 137 (2000) 585 138 159 164 174 233 343 382 1770 5120
2020-07-12 07:00 2.52 456 5290 (2015) 137 (2000) 585 138 159 164 174 233 343 382 1770 5120
2020-07-12 06:00 2.52 456 5290 (2015) 137 (2000) 585 138 159 164 174 233 343 382 1770 5120
2020-07-12 05:00 2.54 463 5290 (2015) 137 (2000) 585 138 159 164 174 233 343 382 1770 5120
2020-07-12 04:00 2.52 456 5290 (2015) 137 (2000) 585 138 159 164 174 233 343 382 1770 5120
2020-07-12 03:00 2.52 456 5290 (2015) 137 (2000) 585 138 159 164 174 233 343 382 1770 5120
2020-07-12 02:00 2.52 456 5290 (2015) 137 (2000) 585 138 159 164 174 233 343 382 1770 5120
2020-07-12 01:00 2.52 456 5290 (2015) 137 (2000) 585 138 159 164 174 233 343 382 1770 5120
2020-07-12 00:00 2.52 456 5290 (2015) 137 (2000) 585 138 159 164 174 233 343 382 1770 5120
2020-07-11 23:00 2.53 460 20700 (2015) 130 (2000) 1320 131 146 160 177 228 361 385 1060 19700
2020-07-11 22:00 2.54 463 20700 (2015) 130 (2000) 1320 131 146 160 177 228 361 385 1060 19700
2020-07-11 21:00 2.53 460 20700 (2015) 130 (2000) 1320 131 146 160 177 228 361 385 1060 19700
2020-07-11 20:00 2.55 467 20700 (2015) 130 (2000) 1320 131 146 160 177 228 361 385 1060 19700
2020-07-11 19:00 2.52 456 20700 (2015) 130 (2000) 1320 131 146 160 177 228 361 385 1060 19700
2020-07-11 18:00 2.56 471 20700 (2015) 130 (2000) 1320 131 146 160 177 228 361 385 1060 19700
2020-07-11 17:00 2.54 463 20700 (2015) 130 (2000) 1320 131 146 160 177 228 361 385 1060 19700
2020-07-11 16:00 2.55 467 20700 (2015) 130 (2000) 1320 131 146 160 177 228 361 385 1060 19700
2020-07-11 15:00 2.54 463 20700 (2015) 130 (2000) 1320 131 146 160 177 228 361 385 1060 19700
2020-07-11 14:00 2.55 467 20700 (2015) 130 (2000) 1320 131 146 160 177 228 361 385 1060 19700
2020-07-11 13:00 2.54 463 20700 (2015) 130 (2000) 1320 131 146 160 177 228 361 385 1060 19700
2020-07-11 12:00 2.56 471 20700 (2015) 130 (2000) 1320 131 146 160 177 228 361 385 1060 19700
2020-07-11 11:00 2.55 467 20700 (2015) 130 (2000) 1320 131 146 160 177 228 361 385 1060 19700
2020-07-11 10:00 2.53 460 20700 (2015) 130 (2000) 1320 131 146 160 177 228 361 385 1060 19700
2020-07-11 09:00 2.55 467 20700 (2015) 130 (2000) 1320 131 146 160 177 228 361 385 1060 19700
2020-07-11 08:00 2.54 463 20700 (2015) 130 (2000) 1320 131 146 160 177 228 361 385 1060 19700
2020-07-11 07:00 2.56 471 20700 (2015) 130 (2000) 1320 131 146 160 177 228 361 385 1060 19700
2020-07-11 06:00 2.56 471 20700 (2015) 130 (2000) 1320 131 146 160 177 228 361 385 1060 19700
2020-07-11 05:00 2.54 463 20700 (2015) 130 (2000) 1320 131 146 160 177 228 361 385 1060 19700
2020-07-11 04:00 2.53 460 20700 (2015) 130 (2000) 1320 131 146 160 177 228 361 385 1060 19700
2020-07-11 03:00 2.57 475 20700 (2015) 130 (2000) 1320 131 146 160 177 228 361 385 1060 19700
2020-07-11 02:00 2.54 463 20700 (2015) 130 (2000) 1320 131 146 160 177 228 361 385 1060 19700
2020-07-11 01:00 2.56 471 20700 (2015) 130 (2000) 1320 131 146 160 177 228 361 385 1060 19700
2020-07-11 00:00 2.55 467 20700 (2015) 130 (2000) 1320 131 146 160 177 228 361 385 1060 19700
2020-07-10 23:00 2.57 475 6680 (2015) 136 (2000) 577 136 141 163 176 224 332 378 554 6370
2020-07-10 22:00 2.56 471 6680 (2015) 136 (2000) 577 136 141 163 176 224 332 378 554 6370
2020-07-10 21:00 2.56 471 6680 (2015) 136 (2000) 577 136 141 163 176 224 332 378 554 6370
2020-07-10 20:00 2.58 479 6680 (2015) 136 (2000) 577 136 141 163 176 224 332 378 554 6370
2020-07-10 19:00 2.57 475 6680 (2015) 136 (2000) 577 136 141 163 176 224 332 378 554 6370
2020-07-10 18:00 2.57 475 6680 (2015) 136 (2000) 577 136 141 163 176 224 332 378 554 6370
2020-07-10 17:00 2.57 475 6680 (2015) 136 (2000) 577 136 141 163 176 224 332 378 554 6370
2020-07-10 16:00 2.58 479 6680 (2015) 136 (2000) 577 136 141 163 176 224 332 378 554 6370
2020-07-10 15:00 2.58 479 6680 (2015) 136 (2000) 577 136 141 163 176 224 332 378 554 6370
2020-07-10 14:00 2.58 479 6680 (2015) 136 (2000) 577 136 141 163 176 224 332 378 554 6370
2020-07-10 13:00 2.58 479 6680 (2015) 136 (2000) 577 136 141 163 176 224 332 378 554 6370
2020-07-10 12:00 2.57 475 6680 (2015) 136 (2000) 577 136 141 163 176 224 332 378 554 6370
2020-07-10 11:00 2.58 479 6680 (2015) 136 (2000) 577 136 141 163 176 224 332 378 554 6370
2020-07-10 10:00 2.57 475 6680 (2015) 136 (2000) 577 136 141 163 176 224 332 378 554 6370
2020-07-10 09:00 2.58 479 6680 (2015) 136 (2000) 577 136 141 163 176 224 332 378 554 6370
2020-07-10 08:00 2.59 482 6680 (2015) 136 (2000) 577 136 141 163 176 224 332 378 554 6370
2020-07-10 07:00 2.59 482 6680 (2015) 136 (2000) 577 136 141 163 176 224 332 378 554 6370
2020-07-10 06:00 2.60 486 6680 (2015) 136 (2000) 577 136 141 163 176 224 332 378 554 6370
2020-07-10 05:00 2.60 486 6680 (2015) 136 (2000) 577 136 141 163 176 224 332 378 554 6370
2020-07-10 04:00 2.59 482 6680 (2015) 136 (2000) 577 136 141 163 176 224 332 378 554 6370
2020-07-10 03:00 2.60 486 6680 (2015) 136 (2000) 577 136 141 163 176 224 332 378 554 6370
2020-07-10 02:00 2.60 486 6680 (2015) 136 (2000) 577 136 141 163 176 224 332 378 554 6370
2020-07-10 01:00 2.59 482 6680 (2015) 136 (2000) 577 136 141 163 176 224 332 378 554 6370
2020-07-10 00:00 2.58 479 6680 (2015) 136 (2000) 577 136 141 163 176 224 332 378 554 6370
2020-07-09 23:00 2.60 486 3690 (2015) 138 (2000) 440 138 146 155 166 236 367 389 620 3540
2020-07-09 22:00 2.59 482 3690 (2015) 138 (2000) 440 138 146 155 166 236 367 389 620 3540
2020-07-09 21:00 2.61 490 3690 (2015) 138 (2000) 440 138 146 155 166 236 367 389 620 3540
2020-07-09 20:00 2.60 486 3690 (2015) 138 (2000) 440 138 146 155 166 236 367 389 620 3540
2020-07-09 19:00 2.58 479 3690 (2015) 138 (2000) 440 138 146 155 166 236 367 389 620 3540
2020-07-09 18:00 2.60 486 3690 (2015) 138 (2000) 440 138 146 155 166 236 367 389 620 3540
2020-07-09 17:00 2.62 494 3690 (2015) 138 (2000) 440 138 146 155 166 236 367 389 620 3540
2020-07-09 16:00 2.62 494 3690 (2015) 138 (2000) 440 138 146 155 166 236 367 389 620 3540
2020-07-09 15:00 2.61 490 3690 (2015) 138 (2000) 440 138 146 155 166 236 367 389 620 3540
2020-07-09 14:00 2.61 490 3690 (2015) 138 (2000) 440 138 146 155 166 236 367 389 620 3540
2020-07-09 13:00 2.60 486 3690 (2015) 138 (2000) 440 138 146 155 166 236 367 389 620 3540
2020-07-09 12:00 2.61 490 3690 (2015) 138 (2000) 440 138 146 155 166 236 367 389 620 3540
2020-07-09 11:00 2.62 494 3690 (2015) 138 (2000) 440 138 146 155 166 236 367 389 620 3540
2020-07-09 10:00 2.63 498 3690 (2015) 138 (2000) 440 138 146 155 166 236 367 389 620 3540
2020-07-09 09:00 2.63 498 3690 (2015) 138 (2000) 440 138 146 155 166 236 367 389 620 3540
2020-07-09 08:00 2.62 494 3690 (2015) 138 (2000) 440 138 146 155 166 236 367 389 620 3540
2020-07-09 07:00 2.63 498 3690 (2015) 138 (2000) 440 138 146 155 166 236 367 389 620 3540
2020-07-09 06:00 2.63 498 3690 (2015) 138 (2000) 440 138 146 155 166 236 367 389 620 3540
2020-07-09 05:00 2.63 498 3690 (2015) 138 (2000) 440 138 146 155 166 236 367 389 620 3540
2020-07-09 04:00 2.62 494 3690 (2015) 138 (2000) 440 138 146 155 166 236 367 389 620 3540
2020-07-09 03:00 2.64 502 3690 (2015) 138 (2000) 440 138 146 155 166 236 367 389 620 3540
2020-07-09 02:00 2.63 498 3690 (2015) 138 (2000) 440 138 146 155 166 236 367 389 620 3540
2020-07-09 01:00 2.64 502 3690 (2015) 138 (2000) 440 138 146 155 166 236 367 389 620 3540
2020-07-09 00:00 2.63 498 3690 (2015) 138 (2000) 440 138 146 155 166 236 367 389 620 3540
2020-07-08 23:00 2.63 498 4440 (2015) 144 (2000) 487 144 148 154 163 252 395 406 732 4260
2020-07-08 22:00 2.65 506 4440 (2015) 144 (2000) 487 144 148 154 163 252 395 406 732 4260
2020-07-08 21:00 2.65 506 4440 (2015) 144 (2000) 487 144 148 154 163 252 395 406 732 4260
2020-07-08 20:00 2.65 506 4440 (2015) 144 (2000) 487 144 148 154 163 252 395 406 732 4260
2020-07-08 19:00 2.66 510 4440 (2015) 144 (2000) 487 144 148 154 163 252 395 406 732 4260
2020-07-08 18:00 2.66 510 4440 (2015) 144 (2000) 487 144 148 154 163 252 395 406 732 4260
2020-07-08 17:00 2.66 510 4440 (2015) 144 (2000) 487 144 148 154 163 252 395 406 732 4260
2020-07-08 16:00 2.66 510 4440 (2015) 144 (2000) 487 144 148 154 163 252 395 406 732 4260
2020-07-08 15:00 2.67 514 4440 (2015) 144 (2000) 487 144 148 154 163 252 395 406 732 4260
2020-07-08 14:00 2.66 510 4440 (2015) 144 (2000) 487 144 148 154 163 252 395 406 732 4260
2020-07-08 13:00 2.68 518 4440 (2015) 144 (2000) 487 144 148 154 163 252 395 406 732 4260
2020-07-08 12:00 2.68 518 4440 (2015) 144 (2000) 487 144 148 154 163 252 395 406 732 4260
2020-07-08 11:00 2.69 522 4440 (2015) 144 (2000) 487 144 148 154 163 252 395 406 732 4260
2020-07-08 10:00 2.70 527 4440 (2015) 144 (2000) 487 144 148 154 163 252 395 406 732 4260
2020-07-08 09:00 2.69 522 4440 (2015) 144 (2000) 487 144 148 154 163 252 395 406 732 4260
2020-07-08 08:00 2.68 518 4440 (2015) 144 (2000) 487 144 148 154 163 252 395 406 732 4260
2020-07-08 07:00 2.67 514 4440 (2015) 144 (2000) 487 144 148 154 163 252 395 406 732 4260
2020-07-08 06:00 2.68 518 4440 (2015) 144 (2000) 487 144 148 154 163 252 395 406 732 4260
2020-07-08 05:00 2.67 514 4440 (2015) 144 (2000) 487 144 148 154 163 252 395 406 732 4260
2020-07-08 04:00 2.67 514 4440 (2015) 144 (2000) 487 144 148 154 163 252 395 406 732 4260
2020-07-08 03:00 2.66 510 4440 (2015) 144 (2000) 487 144 148 154 163 252 395 406 732 4260
2020-07-08 02:00 2.68 518 4440 (2015) 144 (2000) 487 144 148 154 163 252 395 406 732 4260
2020-07-08 01:00 2.67 514 4440 (2015) 144 (2000) 487 144 148 154 163 252 395 406 732 4260
2020-07-08 00:00 2.68 518 4440 (2015) 144 (2000) 487 144 148 154 163 252 395 406 732 4260
2020-07-07 23:00 2.68 518 3520 (2015) 148 (2000) 461 148 151 155 163 255 404 464 916 3390
2020-07-07 22:00 2.66 510 3520 (2015) 148 (2000) 461 148 151 155 163 255 404 464 916 3390
2020-07-07 21:00 2.69 522 3520 (2015) 148 (2000) 461 148 151 155 163 255 404 464 916 3390
2020-07-07 20:00 2.69 522 3520 (2015) 148 (2000) 461 148 151 155 163 255 404 464 916 3390
2020-07-07 19:00 2.70 527 3520 (2015) 148 (2000) 461 148 151 155 163 255 404 464 916 3390
2020-07-07 18:00 2.70 527 3520 (2015) 148 (2000) 461 148 151 155 163 255 404 464 916 3390
2020-07-07 17:00 2.71 531 3520 (2015) 148 (2000) 461 148 151 155 163 255 404 464 916 3390
2020-07-07 16:00 2.71 531 3520 (2015) 148 (2000) 461 148 151 155 163 255 404 464 916 3390
2020-07-07 15:00 2.71 531 3520 (2015) 148 (2000) 461 148 151 155 163 255 404 464 916 3390
2020-07-07 14:00 2.72 535 3520 (2015) 148 (2000) 461 148 151 155 163 255 404 464 916 3390
2020-07-07 13:00 2.72 535 3520 (2015) 148 (2000) 461 148 151 155 163 255 404 464 916 3390
2020-07-07 12:00 2.71 531 3520 (2015) 148 (2000) 461 148 151 155 163 255 404 464 916 3390
2020-07-07 11:00 2.72 535 3520 (2015) 148 (2000) 461 148 151 155 163 255 404 464 916 3390
2020-07-07 10:00 2.74 543 3520 (2015) 148 (2000) 461 148 151 155 163 255 404 464 916 3390
2020-07-07 09:00 2.74 543 3520 (2015) 148 (2000) 461 148 151 155 163 255 404 464 916 3390
2020-07-07 08:00 2.73 539 3520 (2015) 148 (2000) 461 148 151 155 163 255 404 464 916 3390
2020-07-07 07:00 2.74 543 3520 (2015) 148 (2000) 461 148 151 155 163 255 404 464 916 3390
2020-07-07 06:00 2.77 556 3520 (2015) 148 (2000) 461 148 151 155 163 255 404 464 916 3390
2020-07-07 05:00 2.74 543 3520 (2015) 148 (2000) 461 148 151 155 163 255 404 464 916 3390
2020-07-07 04:00 2.76 552 3520 (2015) 148 (2000) 461 148 151 155 163 255 404 464 916 3390
2020-07-07 03:00 2.76 552 3520 (2015) 148 (2000) 461 148 151 155 163 255 404 464 916 3390
2020-07-07 02:00 2.77 556 3520 (2015) 148 (2000) 461 148 151 155 163 255 404 464 916 3390
2020-07-07 01:00 2.76 552 3520 (2015) 148 (2000) 461 148 151 155 163 255 404 464 916 3390
2020-07-07 00:00 2.78 560 3520 (2015) 148 (2000) 461 148 151 155 163 255 404 464 916 3390
2020-07-06 23:00 2.76 552 1470 (2016) 155 (2000) 379 155 156 161 171 264 416 461 1070 1450
2020-07-06 22:00 2.81 574 1470 (2016) 155 (2000) 379 155 156 161 171 264 416 461 1070 1450
2020-07-06 21:00 2.80 569 1470 (2016) 155 (2000) 379 155 156 161 171 264 416 461 1070 1450
2020-07-06 20:00 2.80 569 1470 (2016) 155 (2000) 379 155 156 161 171 264 416 461 1070 1450
2020-07-06 19:00 2.83 582 1470 (2016) 155 (2000) 379 155 156 161 171 264 416 461 1070 1450
2020-07-06 18:00 2.83 582 1470 (2016) 155 (2000) 379 155 156 161 171 264 416 461 1070 1450
2020-07-06 17:00 2.82 578 1470 (2016) 155 (2000) 379 155 156 161 171 264 416 461 1070 1450
2020-07-06 16:00 2.84 587 1470 (2016) 155 (2000) 379 155 156 161 171 264 416 461 1070 1450
2020-07-06 15:00 2.87 601 1470 (2016) 155 (2000) 379 155 156 161 171 264 416 461 1070 1450
2020-07-06 14:00 2.86 596 1470 (2016) 155 (2000) 379 155 156 161 171 264 416 461 1070 1450
2020-07-06 13:00 2.89 610 1470 (2016) 155 (2000) 379 155 156 161 171 264 416 461 1070 1450
2020-07-06 12:00 2.89 610 1470 (2016) 155 (2000) 379 155 156 161 171 264 416 461 1070 1450
2020-07-06 11:00 2.90 614 1470 (2016) 155 (2000) 379 155 156 161 171 264 416 461 1070 1450
2020-07-06 10:00 2.93 628 1470 (2016) 155 (2000) 379 155 156 161 171 264 416 461 1070 1450
2020-07-06 09:00 2.95 638 1470 (2016) 155 (2000) 379 155 156 161 171 264 416 461 1070 1450
2020-07-06 08:00 2.94 633 1470 (2016) 155 (2000) 379 155 156 161 171 264 416 461 1070 1450
2020-07-06 07:00 2.97 647 1470 (2016) 155 (2000) 379 155 156 161 171 264 416 461 1070 1450
2020-07-06 06:00 2.97 647 1470 (2016) 155 (2000) 379 155 156 161 171 264 416 461 1070 1450
2020-07-06 05:00 2.99 657 1470 (2016) 155 (2000) 379 155 156 161 171 264 416 461 1070 1450
2020-07-06 04:00 2.99 657 1470 (2016) 155 (2000) 379 155 156 161 171 264 416 461 1070 1450
2020-07-06 03:00 3.01 667 1470 (2016) 155 (2000) 379 155 156 161 171 264 416 461 1070 1450
2020-07-06 02:00 3.03 677 1470 (2016) 155 (2000) 379 155 156 161 171 264 416 461 1070 1450
2020-07-06 01:00 3.04 682 1470 (2016) 155 (2000) 379 155 156 161 171 264 416 461 1070 1450
2020-07-06 00:00 3.07 697 1470 (2016) 155 (2000) 379 155 156 161 171 264 416 461 1070 1450
2020-07-05 23:00 3.09 707 4870 (2016) 159 (2012) 576 159 160 166 179 275 405 459 1470 4700
2020-07-05 22:00 3.10 712 4870 (2016) 159 (2012) 576 159 160 166 179 275 405 459 1470 4700
2020-07-05 21:00 3.14 733 4870 (2016) 159 (2012) 576 159 160 166 179 275 405 459 1470 4700
2020-07-05 20:00 3.14 733 4870 (2016) 159 (2012) 576 159 160 166 179 275 405 459 1470 4700
2020-07-05 19:00 3.18 755 4870 (2016) 159 (2012) 576 159 160 166 179 275 405 459 1470 4700
2020-07-05 18:00 3.21 771 4870 (2016) 159 (2012) 576 159 160 166 179 275 405 459 1470 4700
2020-07-05 17:00 3.23 782 4870 (2016) 159 (2012) 576 159 160 166 179 275 405 459 1470 4700
2020-07-05 16:00 3.23 782 4870 (2016) 159 (2012) 576 159 160 166 179 275 405 459 1470 4700
2020-07-05 15:00 3.25 793 4870 (2016) 159 (2012) 576 159 160 166 179 275 405 459 1470 4700
2020-07-05 14:00 3.28 810 4870 (2016) 159 (2012) 576 159 160 166 179 275 405 459 1470 4700
2020-07-05 13:00 3.33 839 4870 (2016) 159 (2012) 576 159 160 166 179 275 405 459 1470 4700
2020-07-05 12:00 3.34 845 4870 (2016) 159 (2012) 576 159 160 166 179 275 405 459 1470 4700
2020-07-05 11:00 3.42 892 4870 (2016) 159 (2012) 576 159 160 166 179 275 405 459 1470 4700
2020-07-05 10:00 3.45 911 4870 (2016) 159 (2012) 576 159 160 166 179 275 405 459 1470 4700
2020-07-05 09:00 3.48 930 4870 (2016) 159 (2012) 576 159 160 166 179 275 405 459 1470 4700
2020-07-05 08:00 3.47 923 4870 (2016) 159 (2012) 576 159 160 166 179 275 405 459 1470 4700
2020-07-05 07:00 3.46 917 4870 (2016) 159 (2012) 576 159 160 166 179 275 405 459 1470 4700
2020-07-05 06:00 3.47 923 4870 (2016) 159 (2012) 576 159 160 166 179 275 405 459 1470 4700
2020-07-05 05:00 3.35 850 4870 (2016) 159 (2012) 576 159 160 166 179 275 405 459 1470 4700
2020-07-05 04:00 3.12 723 4870 (2016) 159 (2012) 576 159 160 166 179 275 405 459 1470 4700
2020-07-05 03:00 2.87 601 4870 (2016) 159 (2012) 576 159 160 166 179 275 405 459 1470 4700
2020-07-05 02:00 2.73 539 4870 (2016) 159 (2012) 576 159 160 166 179 275 405 459 1470 4700
2020-07-05 01:00 2.71 531 4870 (2016) 159 (2012) 576 159 160 166 179 275 405 459 1470 4700
2020-07-05 00:00 2.69 522 4870 (2016) 159 (2012) 576 159 160 166 179 275 405 459 1470 4700
2020-07-04 23:00 2.69 522 2110 (2015) 159 (2012) 387 159 161 173 193 274 420 482 561 2030
2020-07-04 22:00 2.67 514 2110 (2015) 159 (2012) 387 159 161 173 193 274 420 482 561 2030
2020-07-04 21:00 2.67 514 2110 (2015) 159 (2012) 387 159 161 173 193 274 420 482 561 2030
2020-07-04 20:00 2.67 514 2110 (2015) 159 (2012) 387 159 161 173 193 274 420 482 561 2030
2020-07-04 19:00 2.64 502 2110 (2015) 159 (2012) 387 159 161 173 193 274 420 482 561 2030
2020-07-04 18:00 2.64 502 2110 (2015) 159 (2012) 387 159 161 173 193 274 420 482 561 2030
2020-07-04 17:00 2.67 514 2110 (2015) 159 (2012) 387 159 161 173 193 274 420 482 561 2030
2020-07-04 16:00 2.65 506 2110 (2015) 159 (2012) 387 159 161 173 193 274 420 482 561 2030
2020-07-04 15:00 2.65 506 2110 (2015) 159 (2012) 387 159 161 173 193 274 420 482 561 2030
2020-07-04 14:00 2.67 514 2110 (2015) 159 (2012) 387 159 161 173 193 274 420 482 561 2030
2020-07-04 13:00 2.66 510 2110 (2015) 159 (2012) 387 159 161 173 193 274 420 482 561 2030
2020-07-04 12:00 2.67 514 2110 (2015) 159 (2012) 387 159 161 173 193 274 420 482 561 2030
2020-07-04 11:00 2.69 522 2110 (2015) 159 (2012) 387 159 161 173 193 274 420 482 561 2030
2020-07-04 10:00 2.70 527 2110 (2015) 159 (2012) 387 159 161 173 193 274 420 482 561 2030
2020-07-04 09:00 2.68 518 2110 (2015) 159 (2012) 387 159 161 173 193 274 420 482 561 2030
2020-07-04 08:00 2.70 527 2110 (2015) 159 (2012) 387 159 161 173 193 274 420 482 561 2030
2020-07-04 07:00 2.72 535 2110 (2015) 159 (2012) 387 159 161 173 193 274 420 482 561 2030
2020-07-04 06:00 2.73 539 2110 (2015) 159 (2012) 387 159 161 173 193 274 420 482 561 2030
2020-07-04 05:00 2.69 522 2110 (2015) 159 (2012) 387 159 161 173 193 274 420 482 561 2030
2020-07-04 04:00 2.72 535 2110 (2015) 159 (2012) 387 159 161 173 193 274 420 482 561 2030
2020-07-04 03:00 2.72 535 2110 (2015) 159 (2012) 387 159 161 173 193 274 420 482 561 2030
2020-07-04 02:00 2.73 539 2110 (2015) 159 (2012) 387 159 161 173 193 274 420 482 561 2030
2020-07-04 01:00 2.72 535 2110 (2015) 159 (2012) 387 159 161 173 193 274 420 482 561 2030
2020-07-04 00:00 2.76 552 2110 (2015) 159 (2012) 387 159 161 173 193 274 420 482 561 2030
2020-07-03 23:00 2.73 539 3410 (2015) 158 (2012) 459 158 161 172 202 264 340 413 851 3280
2020-07-03 22:00 2.80 569 3410 (2015) 158 (2012) 459 158 161 172 202 264 340 413 851 3280
2020-07-03 21:00 2.78 560 3410 (2015) 158 (2012) 459 158 161 172 202 264 340 413 851 3280
2020-07-03 20:00 2.66 510 3410 (2015) 158 (2012) 459 158 161 172 202 264 340 413 851 3280
2020-07-03 19:00 2.66 510 3410 (2015) 158 (2012) 459 158 161 172 202 264 340 413 851 3280
2020-07-03 18:00 2.66 510 3410 (2015) 158 (2012) 459 158 161 172 202 264 340 413 851 3280
2020-07-03 17:00 2.68 518 3410 (2015) 158 (2012) 459 158 161 172 202 264 340 413 851 3280
2020-07-03 16:00 2.67 514 3410 (2015) 158 (2012) 459 158 161 172 202 264 340 413 851 3280
2020-07-03 15:00 2.67 514 3410 (2015) 158 (2012) 459 158 161 172 202 264 340 413 851 3280
2020-07-03 14:00 2.68 518 3410 (2015) 158 (2012) 459 158 161 172 202 264 340 413 851 3280
2020-07-03 13:00 2.69 522 3410 (2015) 158 (2012) 459 158 161 172 202 264 340 413 851 3280
2020-07-03 12:00 2.67 514 3410 (2015) 158 (2012) 459 158 161 172 202 264 340 413 851 3280
2020-07-03 11:00 2.69 522 3410 (2015) 158 (2012) 459 158 161 172 202 264 340 413 851 3280
2020-07-03 10:00 2.69 522 3410 (2015) 158 (2012) 459 158 161 172 202 264 340 413 851 3280
2020-07-03 09:00 2.67 514 3410 (2015) 158 (2012) 459 158 161 172 202 264 340 413 851 3280
2020-07-03 08:00 2.69 522 3410 (2015) 158 (2012) 459 158 161 172 202 264 340 413 851 3280
2020-07-03 07:00 2.70 527 3410 (2015) 158 (2012) 459 158 161 172 202 264 340 413 851 3280
2020-07-03 06:00 2.69 522 3410 (2015) 158 (2012) 459 158 161 172 202 264 340 413 851 3280
2020-07-03 05:00 2.68 518 3410 (2015) 158 (2012) 459 158 161 172 202 264 340 413 851 3280
2020-07-03 04:00 2.69 522 3410 (2015) 158 (2012) 459 158 161 172 202 264 340 413 851 3280
2020-07-03 03:00 2.67 514 3410 (2015) 158 (2012) 459 158 161 172 202 264 340 413 851 3280
2020-07-03 02:00 2.70 527 3410 (2015) 158 (2012) 459 158 161 172 202 264 340 413 851 3280
2020-07-03 01:00 2.68 518 3410 (2015) 158 (2012) 459 158 161 172 202 264 340 413 851 3280
2020-07-03 00:00 2.71 531 3410 (2015) 158 (2012) 459 158 161 172 202 264 340 413 851 3280
2020-07-02 23:00 2.69 522 4710 (2015) 153 (2012) 512 153 157 173 203 273 353 384 705 4510
2020-07-02 22:00 2.70 527 4710 (2015) 153 (2012) 512 153 157 173 203 273 353 384 705 4510
2020-07-02 21:00 2.69 522 4710 (2015) 153 (2012) 512 153 157 173 203 273 353 384 705 4510
2020-07-02 20:00 2.70 527 4710 (2015) 153 (2012) 512 153 157 173 203 273 353 384 705 4510
2020-07-02 19:00 2.70 527 4710 (2015) 153 (2012) 512 153 157 173 203 273 353 384 705 4510
2020-07-02 18:00 2.71 531 4710 (2015) 153 (2012) 512 153 157 173 203 273 353 384 705 4510
2020-07-02 17:00 2.69 522 4710 (2015) 153 (2012) 512 153 157 173 203 273 353 384 705 4510
2020-07-02 16:00 2.70 527 4710 (2015) 153 (2012) 512 153 157 173 203 273 353 384 705 4510
2020-07-02 15:00 2.68 518 4710 (2015) 153 (2012) 512 153 157 173 203 273 353 384 705 4510
2020-07-02 14:00 2.71 531 4710 (2015) 153 (2012) 512 153 157 173 203 273 353 384 705 4510
2020-07-02 13:00 2.68 518 4710 (2015) 153 (2012) 512 153 157 173 203 273 353 384 705 4510
2020-07-02 12:00 2.71 531 4710 (2015) 153 (2012) 512 153 157 173 203 273 353 384 705 4510
2020-07-02 11:00 2.69 522 4710 (2015) 153 (2012) 512 153 157 173 203 273 353 384 705 4510
2020-07-02 10:00 2.70 527 4710 (2015) 153 (2012) 512 153 157 173 203 273 353 384 705 4510
2020-07-02 09:00 2.70 527 4710 (2015) 153 (2012) 512 153 157 173 203 273 353 384 705 4510
2020-07-02 08:00 2.69 522 4710 (2015) 153 (2012) 512 153 157 173 203 273 353 384 705 4510
2020-07-02 07:00 2.71 531 4710 (2015) 153 (2012) 512 153 157 173 203 273 353 384 705 4510
2020-07-02 05:45 2.71 531 4710 (2015) 153 (2012) 512 153 157 173 203 273 353 384 705 4510
2020-07-02 05:00 2.70 527 4710 (2015) 153 (2012) 512 153 157 173 203 273 353 384 705 4510
2020-07-02 04:00 2.71 531 4710 (2015) 153 (2012) 512 153 157 173 203 273 353 384 705 4510
2020-07-02 03:00 2.72 535 4710 (2015) 153 (2012) 512 153 157 173 203 273 353 384 705 4510
2020-07-02 02:00 2.69 522 4710 (2015) 153 (2012) 512 153 157 173 203 273 353 384 705 4510
2020-07-02 01:00 2.69 522 4710 (2015) 153 (2012) 512 153 157 173 203 273 353 384 705 4510
2020-07-02 00:00 2.70 527 4710 (2015) 153 (2012) 512 153 157 173 203 273 353 384 705 4510
2020-07-01 23:00 2.70 527 1580 (2015) 152 (2005) 341 152 154 183 206 275 345 370 523 1530
2020-07-01 22:00 2.69 522 1580 (2015) 152 (2005) 341 152 154 183 206 275 345 370 523 1530
2020-07-01 21:00 2.68 518 1580 (2015) 152 (2005) 341 152 154 183 206 275 345 370 523 1530
2020-07-01 20:00 2.69 522 1580 (2015) 152 (2005) 341 152 154 183 206 275 345 370 523 1530
2020-07-01 19:00 2.71 531 1580 (2015) 152 (2005) 341 152 154 183 206 275 345 370 523 1530
2020-07-01 18:00 2.70 527 1580 (2015) 152 (2005) 341 152 154 183 206 275 345 370 523 1530
2020-07-01 17:00 2.71 531 1580 (2015) 152 (2005) 341 152 154 183 206 275 345 370 523 1530
2020-07-01 16:00 2.72 535 1580 (2015) 152 (2005) 341 152 154 183 206 275 345 370 523 1530
2020-07-01 15:00 2.69 522 1580 (2015) 152 (2005) 341 152 154 183 206 275 345 370 523 1530
2020-07-01 14:00 2.69 522 1580 (2015) 152 (2005) 341 152 154 183 206 275 345 370 523 1530
2020-07-01 13:00 2.69 522 1580 (2015) 152 (2005) 341 152 154 183 206 275 345 370 523 1530
2020-07-01 12:00 2.70 527 1580 (2015) 152 (2005) 341 152 154 183 206 275 345 370 523 1530
2020-07-01 11:00 2.70 527 1580 (2015) 152 (2005) 341 152 154 183 206 275 345 370 523 1530
2020-07-01 10:00 2.69 522 1580 (2015) 152 (2005) 341 152 154 183 206 275 345 370 523 1530
2020-07-01 09:00 2.70 527 1580 (2015) 152 (2005) 341 152 154 183 206 275 345 370 523 1530
2020-07-01 08:00 2.70 527 1580 (2015) 152 (2005) 341 152 154 183 206 275 345 370 523 1530
2020-07-01 07:00 2.71 531 1580 (2015) 152 (2005) 341 152 154 183 206 275 345 370 523 1530
2020-07-01 06:00 2.67 514 1580 (2015) 152 (2005) 341 152 154 183 206 275 345 370 523 1530
2020-07-01 05:45 2.71 531 1580 (2015) 152 (2005) 341 152 154 183 206 275 345 370 523 1530
2020-07-01 05:00 2.70 527 1580 (2015) 152 (2005) 341 152 154 183 206 275 345 370 523 1530
2020-07-01 04:00 2.68 518 1580 (2015) 152 (2005) 341 152 154 183 206 275 345 370 523 1530
2020-07-01 03:00 2.68 518 1580 (2015) 152 (2005) 341 152 154 183 206 275 345 370 523 1530
2020-07-01 02:00 2.71 531 1580 (2015) 152 (2005) 341 152 154 183 206 275 345 370 523 1530
2020-07-01 01:00 2.70 527 1580 (2015) 152 (2005) 341 152 154 183 206 275 345 370 523 1530
2020-07-01 00:00 2.69 522 1580 (2015) 152 (2005) 341 152 154 183 206 275 345 370 523 1530
2020-06-30 23:00 2.69 522 572 (2019) 152 (2005) 296 152 157 177 199 287 363 393 506 569
2020-06-30 22:00 2.69 522 572 (2019) 152 (2005) 296 152 157 177 199 287 363 393 506 569
2020-06-30 21:00 2.68 518 572 (2019) 152 (2005) 296 152 157 177 199 287 363 393 506 569
2020-06-30 20:00 2.71 531 572 (2019) 152 (2005) 296 152 157 177 199 287 363 393 506 569
2020-06-30 19:00 2.71 531 572 (2019) 152 (2005) 296 152 157 177 199 287 363 393 506 569
2020-06-30 18:00 2.72 535 572 (2019) 152 (2005) 296 152 157 177 199 287 363 393 506 569
2020-06-30 17:00 2.71 531 572 (2019) 152 (2005) 296 152 157 177 199 287 363 393 506 569
2020-06-30 16:00 2.71 531 572 (2019) 152 (2005) 296 152 157 177 199 287 363 393 506 569
2020-06-30 15:00 2.71 531 572 (2019) 152 (2005) 296 152 157 177 199 287 363 393 506 569
2020-06-30 14:00 2.69 522 572 (2019) 152 (2005) 296 152 157 177 199 287 363 393 506 569
2020-06-30 13:00 2.72 535 572 (2019) 152 (2005) 296 152 157 177 199 287 363 393 506 569
2020-06-30 12:00 2.69 522 572 (2019) 152 (2005) 296 152 157 177 199 287 363 393 506 569
2020-06-30 11:00 2.71 531 572 (2019) 152 (2005) 296 152 157 177 199 287 363 393 506 569
2020-06-30 10:00 2.72 535 572 (2019) 152 (2005) 296 152 157 177 199 287 363 393 506 569
2020-06-30 09:00 2.70 527 572 (2019) 152 (2005) 296 152 157 177 199 287 363 393 506 569
2020-06-30 08:00 2.71 531 572 (2019) 152 (2005) 296 152 157 177 199 287 363 393 506 569
2020-06-30 07:30 2.73 539 572 (2019) 152 (2005) 296 152 157 177 199 287 363 393 506 569
2020-06-30 07:00 2.71 531 572 (2019) 152 (2005) 296 152 157 177 199 287 363 393 506 569
2020-06-30 06:00 2.73 539 572 (2019) 152 (2005) 296 152 157 177 199 287 363 393 506 569
2020-06-30 05:00 2.72 535 572 (2019) 152 (2005) 296 152 157 177 199 287 363 393 506 569
2020-06-30 04:00 2.73 539 572 (2019) 152 (2005) 296 152 157 177 199 287 363 393 506 569
2020-06-30 03:00 2.71 531 572 (2019) 152 (2005) 296 152 157 177 199 287 363 393 506 569
2020-06-30 02:00 2.71 531 572 (2019) 152 (2005) 296 152 157 177 199 287 363 393 506 569
2020-06-30 01:00 2.73 539 572 (2019) 152 (2005) 296 152 157 177 199 287 363 393 506 569
2020-06-30 00:00 2.74 543 572 (2019) 152 (2005) 296 152 157 177 199 287 363 393 506 569
2020-06-29 23:00 2.72 535 629 (2019) 156 (2005) 303 156 159 176 184 297 375 384 552 626
2020-06-29 22:00 2.72 535 629 (2019) 156 (2005) 303 156 159 176 184 297 375 384 552 626
2020-06-29 21:00 2.74 543 629 (2019) 156 (2005) 303 156 159 176 184 297 375 384 552 626
2020-06-29 20:00 2.73 539 629 (2019) 156 (2005) 303 156 159 176 184 297 375 384 552 626
2020-06-29 19:00 2.71 531 629 (2019) 156 (2005) 303 156 159 176 184 297 375 384 552 626
2020-06-29 18:00 2.73 539 629 (2019) 156 (2005) 303 156 159 176 184 297 375 384 552 626
2020-06-29 17:00 2.72 535 629 (2019) 156 (2005) 303 156 159 176 184 297 375 384 552 626
2020-06-29 16:00 2.75 548 629 (2019) 156 (2005) 303 156 159 176 184 297 375 384 552 626
2020-06-29 15:00 2.70 527 629 (2019) 156 (2005) 303 156 159 176 184 297 375 384 552 626
2020-06-29 14:00 2.76 552 629 (2019) 156 (2005) 303 156 159 176 184 297 375 384 552 626
2020-06-29 13:00 2.74 543 629 (2019) 156 (2005) 303 156 159 176 184 297 375 384 552 626
2020-06-29 12:00 2.72 535 629 (2019) 156 (2005) 303 156 159 176 184 297 375 384 552 626
2020-06-29 11:00 2.73 539 629 (2019) 156 (2005) 303 156 159 176 184 297 375 384 552 626
2020-06-29 10:00 2.75 548 629 (2019) 156 (2005) 303 156 159 176 184 297 375 384 552 626
2020-06-29 09:00 2.76 552 629 (2019) 156 (2005) 303 156 159 176 184 297 375 384 552 626
2020-06-29 08:00 2.76 552 629 (2019) 156 (2005) 303 156 159 176 184 297 375 384 552 626
2020-06-29 07:00 2.76 552 629 (2019) 156 (2005) 303 156 159 176 184 297 375 384 552 626
2020-06-29 06:00 2.76 552 629 (2019) 156 (2005) 303 156 159 176 184 297 375 384 552 626
2020-06-29 05:00 2.76 552 629 (2019) 156 (2005) 303 156 159 176 184 297 375 384 552 626
2020-06-29 04:00 2.77 556 629 (2019) 156 (2005) 303 156 159 176 184 297 375 384 552 626
2020-06-29 03:00 2.77 556 629 (2019) 156 (2005) 303 156 159 176 184 297 375 384 552 626
2020-06-29 02:00 2.76 552 629 (2019) 156 (2005) 303 156 159 176 184 297 375 384 552 626
2020-06-29 00:00 2.77 556 629 (2019) 156 (2005) 303 156 159 176 184 297 375 384 552 626
2020-06-28 23:00 2.76 552 713 (2019) 156 (2005) 326 156 161 177 188 308 404 456 605 708
2020-06-28 22:00 2.76 552 713 (2019) 156 (2005) 326 156 161 177 188 308 404 456 605 708
2020-06-28 21:00 2.75 548 713 (2019) 156 (2005) 326 156 161 177 188 308 404 456 605 708
2020-06-28 20:00 2.76 552 713 (2019) 156 (2005) 326 156 161 177 188 308 404 456 605 708
2020-06-28 19:00 2.77 556 713 (2019) 156 (2005) 326 156 161 177 188 308 404 456 605 708
2020-06-28 18:00 2.78 560 713 (2019) 156 (2005) 326 156 161 177 188 308 404 456 605 708
2020-06-28 17:00 2.77 556 713 (2019) 156 (2005) 326 156 161 177 188 308 404 456 605 708
2020-06-28 16:00 2.77 556 713 (2019) 156 (2005) 326 156 161 177 188 308 404 456 605 708
2020-06-28 15:00 2.80 569 713 (2019) 156 (2005) 326 156 161 177 188 308 404 456 605 708
2020-06-28 14:00 2.81 574 713 (2019) 156 (2005) 326 156 161 177 188 308 404 456 605 708
2020-06-28 13:00 2.83 582 713 (2019) 156 (2005) 326 156 161 177 188 308 404 456 605 708
2020-06-28 12:00 2.84 587 713 (2019) 156 (2005) 326 156 161 177 188 308 404 456 605 708
2020-06-28 11:00 2.86 596 713 (2019) 156 (2005) 326 156 161 177 188 308 404 456 605 708
2020-06-28 10:00 2.88 605 713 (2019) 156 (2005) 326 156 161 177 188 308 404 456 605 708
2020-06-28 09:00 2.89 610 713 (2019) 156 (2005) 326 156 161 177 188 308 404 456 605 708
2020-06-28 08:00 2.91 619 713 (2019) 156 (2005) 326 156 161 177 188 308 404 456 605 708
2020-06-28 07:00 2.91 619 713 (2019) 156 (2005) 326 156 161 177 188 308 404 456 605 708
2020-06-28 06:00 2.90 614 713 (2019) 156 (2005) 326 156 161 177 188 308 404 456 605 708
2020-06-28 05:00 2.90 614 713 (2019) 156 (2005) 326 156 161 177 188 308 404 456 605 708
2020-06-28 04:00 2.87 601 713 (2019) 156 (2005) 326 156 161 177 188 308 404 456 605 708
2020-06-28 03:00 2.83 582 713 (2019) 156 (2005) 326 156 161 177 188 308 404 456 605 708
2020-06-28 02:00 2.83 582 713 (2019) 156 (2005) 326 156 161 177 188 308 404 456 605 708
2020-06-28 01:00 2.81 574 713 (2019) 156 (2005) 326 156 161 177 188 308 404 456 605 708
2020-06-28 00:00 2.78 560 713 (2019) 156 (2005) 326 156 161 177 188 308 404 456 605 708
2020-06-27 23:00 2.82 578 841 (2019) 150 (2005) 338 150 161 182 198 280 423 449 662 833
2020-06-27 22:00 2.80 569 841 (2019) 150 (2005) 338 150 161 182 198 280 423 449 662 833
2020-06-27 21:00 2.79 565 841 (2019) 150 (2005) 338 150 161 182 198 280 423 449 662 833
2020-06-27 20:00 2.80 569 841 (2019) 150 (2005) 338 150 161 182 198 280 423 449 662 833
2020-06-27 19:00 2.79 565 841 (2019) 150 (2005) 338 150 161 182 198 280 423 449 662 833
2020-06-27 18:00 2.79 565 841 (2019) 150 (2005) 338 150 161 182 198 280 423 449 662 833
2020-06-27 17:00 2.79 565 841 (2019) 150 (2005) 338 150 161 182 198 280 423 449 662 833
2020-06-27 16:00 2.79 565 841 (2019) 150 (2005) 338 150 161 182 198 280 423 449 662 833
2020-06-27 15:00 2.78 560 841 (2019) 150 (2005) 338 150 161 182 198 280 423 449 662 833
2020-06-27 14:00 2.79 565 841 (2019) 150 (2005) 338 150 161 182 198 280 423 449 662 833
2020-06-27 13:00 2.80 569 841 (2019) 150 (2005) 338 150 161 182 198 280 423 449 662 833
2020-06-27 12:00 2.80 569 841 (2019) 150 (2005) 338 150 161 182 198 280 423 449 662 833
2020-06-27 11:00 2.78 560 841 (2019) 150 (2005) 338 150 161 182 198 280 423 449 662 833
2020-06-27 10:00 2.80 569 841 (2019) 150 (2005) 338 150 161 182 198 280 423 449 662 833
2020-06-27 09:00 2.79 565 841 (2019) 150 (2005) 338 150 161 182 198 280 423 449 662 833
2020-06-27 08:00 2.79 565 841 (2019) 150 (2005) 338 150 161 182 198 280 423 449 662 833
2020-06-27 07:00 2.80 569 841 (2019) 150 (2005) 338 150 161 182 198 280 423 449 662 833
2020-06-27 06:00 2.78 560 841 (2019) 150 (2005) 338 150 161 182 198 280 423 449 662 833
2020-06-27 05:00 2.78 560 841 (2019) 150 (2005) 338 150 161 182 198 280 423 449 662 833
2020-06-27 04:00 2.81 574 841 (2019) 150 (2005) 338 150 161 182 198 280 423 449 662 833
2020-06-27 03:00 2.79 565 841 (2019) 150 (2005) 338 150 161 182 198 280 423 449 662 833
2020-06-27 02:00 2.81 574 841 (2019) 150 (2005) 338 150 161 182 198 280 423 449 662 833
2020-06-27 01:00 2.80 569 841 (2019) 150 (2005) 338 150 161 182 198 280 423 449 662 833
2020-06-27 00:00 2.80 569 841 (2019) 150 (2005) 338 150 161 182 198 280 423 449 662 833
2020-06-26 23:00 2.82 578 1090 (2019) 150 (2005) 368 151 165 191 210 298 445 499 762 1070
2020-06-26 22:00 2.82 578 1090 (2019) 150 (2005) 368 151 165 191 210 298 445 499 762 1070
2020-06-26 21:00 2.82 578 1090 (2019) 150 (2005) 368 151 165 191 210 298 445 499 762 1070
2020-06-26 20:00 2.81 574 1090 (2019) 150 (2005) 368 151 165 191 210 298 445 499 762 1070
2020-06-26 19:00 2.80 569 1090 (2019) 150 (2005) 368 151 165 191 210 298 445 499 762 1070
2020-06-26 18:00 2.81 574 1090 (2019) 150 (2005) 368 151 165 191 210 298 445 499 762 1070
2020-06-26 17:00 2.82 578 1090 (2019) 150 (2005) 368 151 165 191 210 298 445 499 762 1070
2020-06-26 16:00 2.83 582 1090 (2019) 150 (2005) 368 151 165 191 210 298 445 499 762 1070
2020-06-26 15:00 2.81 574 1090 (2019) 150 (2005) 368 151 165 191 210 298 445 499 762 1070
2020-06-26 14:00 2.83 582 1090 (2019) 150 (2005) 368 151 165 191 210 298 445 499 762 1070
2020-06-26 13:00 2.82 578 1090 (2019) 150 (2005) 368 151 165 191 210 298 445 499 762 1070
2020-06-26 12:00 2.82 578 1090 (2019) 150 (2005) 368 151 165 191 210 298 445 499 762 1070
2020-06-26 11:00 2.83 582 1090 (2019) 150 (2005) 368 151 165 191 210 298 445 499 762 1070
2020-06-26 10:00 2.83 582 1090 (2019) 150 (2005) 368 151 165 191 210 298 445 499 762 1070
2020-06-26 09:00 2.82 578 1090 (2019) 150 (2005) 368 151 165 191 210 298 445 499 762 1070
2020-06-26 08:00 2.83 582 1090 (2019) 150 (2005) 368 151 165 191 210 298 445 499 762 1070
2020-06-26 07:00 2.85 591 1090 (2019) 150 (2005) 368 151 165 191 210 298 445 499 762 1070
2020-06-26 06:00 2.84 587 1090 (2019) 150 (2005) 368 151 165 191 210 298 445 499 762 1070
2020-06-26 05:00 2.84 587 1090 (2019) 150 (2005) 368 151 165 191 210 298 445 499 762 1070
2020-06-26 04:00 2.86 596 1090 (2019) 150 (2005) 368 151 165 191 210 298 445 499 762 1070
2020-06-26 03:00 2.83 582 1090 (2019) 150 (2005) 368 151 165 191 210 298 445 499 762 1070
2020-06-26 02:00 2.84 587 1090 (2019) 150 (2005) 368 151 165 191 210 298 445 499 762 1070
2020-06-26 01:00 2.85 591 1090 (2019) 150 (2005) 368 151 165 191 210 298 445 499 762 1070
2020-06-26 00:00 2.84 587 1090 (2019) 150 (2005) 368 151 165 191 210 298 445 499 762 1070
2020-06-25 23:00 2.84 587 1800 (2019) 150 (2005) 417 151 170 200 228 276 473 577 880 1760
2020-06-25 22:00 2.84 587 1800 (2019) 150 (2005) 417 151 170 200 228 276 473 577 880 1760
2020-06-25 21:00 2.85 591 1800 (2019) 150 (2005) 417 151 170 200 228 276 473 577 880 1760
2020-06-25 20:00 2.86 596 1800 (2019) 150 (2005) 417 151 170 200 228 276 473 577 880 1760
2020-06-25 19:00 2.88 605 1800 (2019) 150 (2005) 417 151 170 200 228 276 473 577 880 1760
2020-06-25 18:00 2.87 601 1800 (2019) 150 (2005) 417 151 170 200 228 276 473 577 880 1760
2020-06-25 17:00 2.88 605 1800 (2019) 150 (2005) 417 151 170 200 228 276 473 577 880 1760
2020-06-25 16:00 2.87 601 1800 (2019) 150 (2005) 417 151 170 200 228 276 473 577 880 1760
2020-06-25 15:00 2.84 587 1800 (2019) 150 (2005) 417 151 170 200 228 276 473 577 880 1760
2020-06-25 14:00 2.87 601 1800 (2019) 150 (2005) 417 151 170 200 228 276 473 577 880 1760
2020-06-25 13:00 2.86 596 1800 (2019) 150 (2005) 417 151 170 200 228 276 473 577 880 1760
2020-06-25 12:00 2.89 610 1800 (2019) 150 (2005) 417 151 170 200 228 276 473 577 880 1760
2020-06-25 11:00 2.87 601 1800 (2019) 150 (2005) 417 151 170 200 228 276 473 577 880 1760
2020-06-25 10:00 2.88 605 1800 (2019) 150 (2005) 417 151 170 200 228 276 473 577 880 1760
2020-06-25 09:00 2.89 610 1800 (2019) 150 (2005) 417 151 170 200 228 276 473 577 880 1760
2020-06-25 08:00 2.88 605 1800 (2019) 150 (2005) 417 151 170 200 228 276 473 577 880 1760
2020-06-25 07:00 2.89 610 1800 (2019) 150 (2005) 417 151 170 200 228 276 473 577 880 1760
2020-06-25 06:00 2.91 619 1800 (2019) 150 (2005) 417 151 170 200 228 276 473 577 880 1760
2020-06-25 05:00 2.91 619 1800 (2019) 150 (2005) 417 151 170 200 228 276 473 577 880 1760
2020-06-25 04:00 2.87 601 1800 (2019) 150 (2005) 417 151 170 200 228 276 473 577 880 1760
2020-06-25 03:00 2.90 614 1800 (2019) 150 (2005) 417 151 170 200 228 276 473 577 880 1760
2020-06-25 02:00 2.89 610 1800 (2019) 150 (2005) 417 151 170 200 228 276 473 577 880 1760
2020-06-25 01:00 2.90 614 1800 (2019) 150 (2005) 417 151 170 200 228 276 473 577 880 1760
2020-06-25 00:00 2.91 619 1800 (2019) 150 (2005) 417 151 170 200 228 276 473 577 880 1760
2020-06-24 23:00 2.90 614 2190 (2019) 153 (2005) 417 154 171 191 203 283 355 412 1050 2140
2020-06-24 22:00 2.93 628 2190 (2019) 153 (2005) 417 154 171 191 203 283 355 412 1050 2140
2020-06-24 21:00 2.91 619 2190 (2019) 153 (2005) 417 154 171 191 203 283 355 412 1050 2140
2020-06-24 20:00 2.93 628 2190 (2019) 153 (2005) 417 154 171 191 203 283 355 412 1050 2140
2020-06-24 19:00 2.92 624 2190 (2019) 153 (2005) 417 154 171 191 203 283 355 412 1050 2140
2020-06-24 18:00 2.93 628 2190 (2019) 153 (2005) 417 154 171 191 203 283 355 412 1050 2140
2020-06-24 17:00 2.93 628 2190 (2019) 153 (2005) 417 154 171 191 203 283 355 412 1050 2140
2020-06-24 16:00 2.93 628 2190 (2019) 153 (2005) 417 154 171 191 203 283 355 412 1050 2140
2020-06-24 15:00 2.91 619 2190 (2019) 153 (2005) 417 154 171 191 203 283 355 412 1050 2140
2020-06-24 14:00 2.93 628 2190 (2019) 153 (2005) 417 154 171 191 203 283 355 412 1050 2140
2020-06-24 13:00 2.95 638 2190 (2019) 153 (2005) 417 154 171 191 203 283 355 412 1050 2140
2020-06-24 12:00 2.94 633 2190 (2019) 153 (2005) 417 154 171 191 203 283 355 412 1050 2140
2020-06-24 11:00 2.95 638 2190 (2019) 153 (2005) 417 154 171 191 203 283 355 412 1050 2140
2020-06-24 10:00 2.94 633 2190 (2019) 153 (2005) 417 154 171 191 203 283 355 412 1050 2140
2020-06-24 09:00 2.96 643 2190 (2019) 153 (2005) 417 154 171 191 203 283 355 412 1050 2140
2020-06-24 08:00 2.97 647 2190 (2019) 153 (2005) 417 154 171 191 203 283 355 412 1050 2140
2020-06-24 07:00 2.97 647 2190 (2019) 153 (2005) 417 154 171 191 203 283 355 412 1050 2140
2020-06-24 06:00 2.99 657 2190 (2019) 153 (2005) 417 154 171 191 203 283 355 412 1050 2140
2020-06-24 05:00 2.98 652 2190 (2019) 153 (2005) 417 154 171 191 203 283 355 412 1050 2140
2020-06-24 04:00 2.96 643 2190 (2019) 153 (2005) 417 154 171 191 203 283 355 412 1050 2140
2020-06-24 03:00 2.99 657 2190 (2019) 153 (2005) 417 154 171 191 203 283 355 412 1050 2140
2020-06-24 02:00 3.00 662 2190 (2019) 153 (2005) 417 154 171 191 203 283 355 412 1050 2140
2020-06-24 01:00 2.99 657 2190 (2019) 153 (2005) 417 154 171 191 203 283 355 412 1050 2140
2020-06-24 00:00 3.00 662 2190 (2019) 153 (2005) 417 154 171 191 203 283 355 412 1050 2140
2020-06-23 23:00 3.01 667 1500 (2015) 152 (2005) 364 153 174 189 205 291 359 425 596 1450
2020-06-23 22:00 3.01 667 1500 (2015) 152 (2005) 364 153 174 189 205 291 359 425 596 1450
2020-06-23 21:00 3.02 672 1500 (2015) 152 (2005) 364 153 174 189 205 291 359 425 596 1450
2020-06-23 20:00 3.00 662 1500 (2015) 152 (2005) 364 153 174 189 205 291 359 425 596 1450
2020-06-23 19:00 3.01 667 1500 (2015) 152 (2005) 364 153 174 189 205 291 359 425 596 1450
2020-06-23 18:00 2.97 647 1500 (2015) 152 (2005) 364 153 174 189 205 291 359 425 596 1450
2020-06-23 17:00 2.97 647 1500 (2015) 152 (2005) 364 153 174 189 205 291 359 425 596 1450
2020-06-23 16:00 2.99 657 1500 (2015) 152 (2005) 364 153 174 189 205 291 359 425 596 1450
2020-06-23 15:00 2.98 652 1500 (2015) 152 (2005) 364 153 174 189 205 291 359 425 596 1450
2020-06-23 14:00 2.98 652 1500 (2015) 152 (2005) 364 153 174 189 205 291 359 425 596 1450
2020-06-23 13:00 2.96 643 1500 (2015) 152 (2005) 364 153 174 189 205 291 359 425 596 1450
2020-06-23 12:00 2.97 647 1500 (2015) 152 (2005) 364 153 174 189 205 291 359 425 596 1450
2020-06-23 11:00 2.99 657 1500 (2015) 152 (2005) 364 153 174 189 205 291 359 425 596 1450
2020-06-23 10:00 2.96 643 1500 (2015) 152 (2005) 364 153 174 189 205 291 359 425 596 1450
2020-06-23 09:00 2.97 647 1500 (2015) 152 (2005) 364 153 174 189 205 291 359 425 596 1450
2020-06-23 08:00 2.98 652 1500 (2015) 152 (2005) 364 153 174 189 205 291 359 425 596 1450
2020-06-23 07:00 2.98 652 1500 (2015) 152 (2005) 364 153 174 189 205 291 359 425 596 1450
2020-06-23 06:00 2.98 652 1500 (2015) 152 (2005) 364 153 174 189 205 291 359 425 596 1450
2020-06-23 05:00 2.96 643 1500 (2015) 152 (2005) 364 153 174 189 205 291 359 425 596 1450
2020-06-23 04:00 2.98 652 1500 (2015) 152 (2005) 364 153 174 189 205 291 359 425 596 1450
2020-06-23 03:00 2.99 657 1500 (2015) 152 (2005) 364 153 174 189 205 291 359 425 596 1450
2020-06-23 02:00 2.95 638 1500 (2015) 152 (2005) 364 153 174 189 205 291 359 425 596 1450
2020-06-23 01:00 2.97 647 1500 (2015) 152 (2005) 364 153 174 189 205 291 359 425 596 1450
2020-06-23 00:00 3.00 662 1500 (2015) 152 (2005) 364 153 174 189 205 291 359 425 596 1450
2020-06-22 23:00 2.99 657 2180 (2015) 159 (2005) 403 160 177 193 196 303 359 453 640 2100
2020-06-22 22:00 2.99 657 2180 (2015) 159 (2005) 403 160 177 193 196 303 359 453 640 2100
2020-06-22 21:00 2.97 647 2180 (2015) 159 (2005) 403 160 177 193 196 303 359 453 640 2100
2020-06-22 20:00 3.04 682 2180 (2015) 159 (2005) 403 160 177 193 196 303 359 453 640 2100
2020-06-22 19:00 2.98 652 2180 (2015) 159 (2005) 403 160 177 193 196 303 359 453 640 2100
2020-06-22 18:00 3.01 667 2180 (2015) 159 (2005) 403 160 177 193 196 303 359 453 640 2100
2020-06-22 17:00 3.02 672 2180 (2015) 159 (2005) 403 160 177 193 196 303 359 453 640 2100
2020-06-22 16:00 3.01 667 2180 (2015) 159 (2005) 403 160 177 193 196 303 359 453 640 2100
2020-06-22 15:00 3.01 667 2180 (2015) 159 (2005) 403 160 177 193 196 303 359 453 640 2100
2020-06-22 14:00 3.01 667 2180 (2015) 159 (2005) 403 160 177 193 196 303 359 453 640 2100
2020-06-22 13:00 3.02 672 2180 (2015) 159 (2005) 403 160 177 193 196 303 359 453 640 2100
2020-06-22 12:00 3.03 677 2180 (2015) 159 (2005) 403 160 177 193 196 303 359 453 640 2100
2020-06-22 11:00 3.02 672 2180 (2015) 159 (2005) 403 160 177 193 196 303 359 453 640 2100
2020-06-22 10:00 3.05 687 2180 (2015) 159 (2005) 403 160 177 193 196 303 359 453 640 2100
2020-06-22 09:00 3.02 672 2180 (2015) 159 (2005) 403 160 177 193 196 303 359 453 640 2100
2020-06-22 08:00 3.03 677 2180 (2015) 159 (2005) 403 160 177 193 196 303 359 453 640 2100
2020-06-22 07:00 3.03 677 2180 (2015) 159 (2005) 403 160 177 193 196 303 359 453 640 2100
2020-06-22 06:00 3.03 677 2180 (2015) 159 (2005) 403 160 177 193 196 303 359 453 640 2100
2020-06-22 05:00 3.05 687 2180 (2015) 159 (2005) 403 160 177 193 196 303 359 453 640 2100
2020-06-22 04:00 3.04 682 2180 (2015) 159 (2005) 403 160 177 193 196 303 359 453 640 2100
2020-06-22 03:00 3.06 692 2180 (2015) 159 (2005) 403 160 177 193 196 303 359 453 640 2100
2020-06-22 02:00 3.05 687 2180 (2015) 159 (2005) 403 160 177 193 196 303 359 453 640 2100
2020-06-22 01:00 3.04 682 2180 (2015) 159 (2005) 403 160 177 193 196 303 359 453 640 2100
2020-06-22 00:00 3.01 667 2180 (2015) 159 (2005) 403 160 177 193 196 303 359 453 640 2100
2020-06-21 23:00 3.03 677 3490 (2015) 159 (2005) 481 160 184 199 200 310 374 481 734 3350
2020-06-21 22:00 3.06 692 3490 (2015) 159 (2005) 481 160 184 199 200 310 374 481 734 3350
2020-06-21 21:00 3.01 667 3490 (2015) 159 (2005) 481 160 184 199 200 310 374 481 734 3350
2020-06-21 20:00 3.03 677 3490 (2015) 159 (2005) 481 160 184 199 200 310 374 481 734 3350
2020-06-21 19:00 3.05 687 3490 (2015) 159 (2005) 481 160 184 199 200 310 374 481 734 3350
2020-06-21 18:00 3.04 682 3490 (2015) 159 (2005) 481 160 184 199 200 310 374 481 734 3350
2020-06-21 17:00 3.04 682 3490 (2015) 159 (2005) 481 160 184 199 200 310 374 481 734 3350
2020-06-21 16:00 3.02 672 3490 (2015) 159 (2005) 481 160 184 199 200 310 374 481 734 3350
2020-06-21 15:00 3.05 687 3490 (2015) 159 (2005) 481 160 184 199 200 310 374 481 734 3350
2020-06-21 14:00 3.06 692 3490 (2015) 159 (2005) 481 160 184 199 200 310 374 481 734 3350
2020-06-21 13:00 3.09 707 3490 (2015) 159 (2005) 481 160 184 199 200 310 374 481 734 3350
2020-06-21 12:00 3.07 697 3490 (2015) 159 (2005) 481 160 184 199 200 310 374 481 734 3350
2020-06-21 11:00 3.08 702 3490 (2015) 159 (2005) 481 160 184 199 200 310 374 481 734 3350
2020-06-21 10:00 3.08 702 3490 (2015) 159 (2005) 481 160 184 199 200 310 374 481 734 3350
2020-06-21 09:00 3.08 702 3490 (2015) 159 (2005) 481 160 184 199 200 310 374 481 734 3350
2020-06-21 08:00 3.09 707 3490 (2015) 159 (2005) 481 160 184 199 200 310 374 481 734 3350
2020-06-21 07:00 3.08 702 3490 (2015) 159 (2005) 481 160 184 199 200 310 374 481 734 3350
2020-06-21 06:00 3.08 702 3490 (2015) 159 (2005) 481 160 184 199 200 310 374 481 734 3350
2020-06-21 05:00 3.08 702 3490 (2015) 159 (2005) 481 160 184 199 200 310 374 481 734 3350
2020-06-21 04:00 3.07 697 3490 (2015) 159 (2005) 481 160 184 199 200 310 374 481 734 3350
2020-06-21 03:00 3.05 687 3490 (2015) 159 (2005) 481 160 184 199 200 310 374 481 734 3350
2020-06-21 02:00 3.04 682 3490 (2015) 159 (2005) 481 160 184 199 200 310 374 481 734 3350
2020-06-21 01:00 3.09 707 3490 (2015) 159 (2005) 481 160 184 199 200 310 374 481 734 3350
2020-06-21 00:00 3.08 702 3490 (2015) 159 (2005) 481 160 184 199 200 310 374 481 734 3350
2020-06-20 23:00 3.07 697 8370 (2015) 167 (2005) 747 168 182 192 199 329 385 513 894 8000
2020-06-20 22:00 3.08 702 8370 (2015) 167 (2005) 747 168 182 192 199 329 385 513 894 8000
2020-06-20 21:00 3.08 702 8370 (2015) 167 (2005) 747 168 182 192 199 329 385 513 894 8000
2020-06-20 20:00 3.09 707 8370 (2015) 167 (2005) 747 168 182 192 199 329 385 513 894 8000
2020-06-20 19:00 3.09 707 8370 (2015) 167 (2005) 747 168 182 192 199 329 385 513 894 8000
2020-06-20 18:00 3.07 697 8370 (2015) 167 (2005) 747 168 182 192 199 329 385 513 894 8000
2020-06-20 17:00 3.07 697 8370 (2015) 167 (2005) 747 168 182 192 199 329 385 513 894 8000
2020-06-20 16:00 3.09 707 8370 (2015) 167 (2005) 747 168 182 192 199 329 385 513 894 8000
2020-06-20 15:00 3.11 718 8370 (2015) 167 (2005) 747 168 182 192 199 329 385 513 894 8000
2020-06-20 14:00 3.11 718 8370 (2015) 167 (2005) 747 168 182 192 199 329 385 513 894 8000
2020-06-20 13:00 3.08 702 8370 (2015) 167 (2005) 747 168 182 192 199 329 385 513 894 8000
2020-06-20 12:00 3.13 728 8370 (2015) 167 (2005) 747 168 182 192 199 329 385 513 894 8000
2020-06-20 11:00 3.12 723 8370 (2015) 167 (2005) 747 168 182 192 199 329 385 513 894 8000
2020-06-20 10:00 3.09 707 8370 (2015) 167 (2005) 747 168 182 192 199 329 385 513 894 8000
2020-06-20 09:00 3.11 718 8370 (2015) 167 (2005) 747 168 182 192 199 329 385 513 894 8000
2020-06-20 08:00 3.11 718 8370 (2015) 167 (2005) 747 168 182 192 199 329 385 513 894 8000
2020-06-20 07:00 3.11 718 8370 (2015) 167 (2005) 747 168 182 192 199 329 385 513 894 8000
2020-06-20 06:00 3.10 712 8370 (2015) 167 (2005) 747 168 182 192 199 329 385 513 894 8000
2020-06-20 05:00 3.12 723 8370 (2015) 167 (2005) 747 168 182 192 199 329 385 513 894 8000
2020-06-20 04:00 3.11 718 8370 (2015) 167 (2005) 747 168 182 192 199 329 385 513 894 8000
2020-06-20 03:00 3.12 723 8370 (2015) 167 (2005) 747 168 182 192 199 329 385 513 894 8000
2020-06-20 02:00 3.13 728 8370 (2015) 167 (2005) 747 168 182 192 199 329 385 513 894 8000
2020-06-20 01:00 3.13 728 8370 (2015) 167 (2005) 747 168 182 192 199 329 385 513 894 8000
2020-06-20 00:00 3.12 723 8370 (2015) 167 (2005) 747 168 182 192 199 329 385 513 894 8000
2020-06-19 23:00 3.13 728 3530 (2015) 170 (2005) 532 170 175 201 208 344 395 498 1180 3410
2020-06-19 22:00 3.15 739 3530 (2015) 170 (2005) 532 170 175 201 208 344 395 498 1180 3410
2020-06-19 21:00 3.15 739 3530 (2015) 170 (2005) 532 170 175 201 208 344 395 498 1180 3410
2020-06-19 20:00 3.15 739 3530 (2015) 170 (2005) 532 170 175 201 208 344 395 498 1180 3410
2020-06-19 19:00 3.15 739 3530 (2015) 170 (2005) 532 170 175 201 208 344 395 498 1180 3410
2020-06-19 18:00 3.12 723 3530 (2015) 170 (2005) 532 170 175 201 208 344 395 498 1180 3410
2020-06-19 17:00 3.12 723 3530 (2015) 170 (2005) 532 170 175 201 208 344 395 498 1180 3410
2020-06-19 16:00 3.14 733 3530 (2015) 170 (2005) 532 170 175 201 208 344 395 498 1180 3410
2020-06-19 15:00 3.17 749 3530 (2015) 170 (2005) 532 170 175 201 208 344 395 498 1180 3410
2020-06-19 14:00 3.15 739 3530 (2015) 170 (2005) 532 170 175 201 208 344 395 498 1180 3410
2020-06-19 13:00 3.16 744 3530 (2015) 170 (2005) 532 170 175 201 208 344 395 498 1180 3410
2020-06-19 12:00 3.17 749 3530 (2015) 170 (2005) 532 170 175 201 208 344 395 498 1180 3410
2020-06-19 11:00 3.16 744 3530 (2015) 170 (2005) 532 170 175 201 208 344 395 498 1180 3410
2020-06-19 10:00 3.17 749 3530 (2015) 170 (2005) 532 170 175 201 208 344 395 498 1180 3410
2020-06-19 09:00 3.18 755 3530 (2015) 170 (2005) 532 170 175 201 208 344 395 498 1180 3410
2020-06-19 08:00 3.19 760 3530 (2015) 170 (2005) 532 170 175 201 208 344 395 498 1180 3410
2020-06-19 07:00 3.18 755 3530 (2015) 170 (2005) 532 170 175 201 208 344 395 498 1180 3410
2020-06-19 06:00 3.16 744 3530 (2015) 170 (2005) 532 170 175 201 208 344 395 498 1180 3410
2020-06-19 05:00 3.19 760 3530 (2015) 170 (2005) 532 170 175 201 208 344 395 498 1180 3410
2020-06-19 04:00 3.19 760 3530 (2015) 170 (2005) 532 170 175 201 208 344 395 498 1180 3410
2020-06-19 03:00 3.19 760 3530 (2015) 170 (2005) 532 170 175 201 208 344 395 498 1180 3410
2020-06-19 02:00 3.19 760 3530 (2015) 170 (2005) 532 170 175 201 208 344 395 498 1180 3410
2020-06-19 01:00 3.21 771 3530 (2015) 170 (2005) 532 170 175 201 208 344 395 498 1180 3410
2020-06-19 00:00 3.16 744 3530 (2015) 170 (2005) 532 170 175 201 208 344 395 498 1180 3410
2020-06-18 23:00 3.20 765 1860 (2009) 174 (2000) 414 174 178 208 218 364 420 448 590 1800
2020-06-18 22:00 3.19 760 1860 (2009) 174 (2000) 414 174 178 208 218 364 420 448 590 1800
2020-06-18 21:00 3.18 755 1860 (2009) 174 (2000) 414 174 178 208 218 364 420 448 590 1800
2020-06-18 20:00 3.19 760 1860 (2009) 174 (2000) 414 174 178 208 218 364 420 448 590 1800
2020-06-18 19:00 3.20 765 1860 (2009) 174 (2000) 414 174 178 208 218 364 420 448 590 1800
2020-06-18 18:00 3.17 749 1860 (2009) 174 (2000) 414 174 178 208 218 364 420 448 590 1800
2020-06-18 17:00 3.19 760 1860 (2009) 174 (2000) 414 174 178 208 218 364 420 448 590 1800
2020-06-18 16:00 3.20 765 1860 (2009) 174 (2000) 414 174 178 208 218 364 420 448 590 1800
2020-06-18 15:00 3.22 776 1860 (2009) 174 (2000) 414 174 178 208 218 364 420 448 590 1800
2020-06-18 14:00 3.18 755 1860 (2009) 174 (2000) 414 174 178 208 218 364 420 448 590 1800
2020-06-18 13:00 3.24 787 1860 (2009) 174 (2000) 414 174 178 208 218 364 420 448 590 1800
2020-06-18 12:00 3.23 782 1860 (2009) 174 (2000) 414 174 178 208 218 364 420 448 590 1800
2020-06-18 11:00 3.21 771 1860 (2009) 174 (2000) 414 174 178 208 218 364 420 448 590 1800
2020-06-18 10:00 3.23 782 1860 (2009) 174 (2000) 414 174 178 208 218 364 420 448 590 1800
2020-06-18 09:00 3.23 782 1860 (2009) 174 (2000) 414 174 178 208 218 364 420 448 590 1800
2020-06-18 08:00 3.24 787 1860 (2009) 174 (2000) 414 174 178 208 218 364 420 448 590 1800
2020-06-18 07:00 3.24 787 1860 (2009) 174 (2000) 414 174 178 208 218 364 420 448 590 1800
2020-06-18 06:00 3.24 787 1860 (2009) 174 (2000) 414 174 178 208 218 364 420 448 590 1800
2020-06-18 05:00 3.26 799 1860 (2009) 174 (2000) 414 174 178 208 218 364 420 448 590 1800
2020-06-18 04:00 3.25 793 1860 (2009) 174 (2000) 414 174 178 208 218 364 420 448 590 1800
2020-06-18 03:00 3.26 799 1860 (2009) 174 (2000) 414 174 178 208 218 364 420 448 590 1800
2020-06-18 02:00 3.26 799 1860 (2009) 174 (2000) 414 174 178 208 218 364 420 448 590 1800
2020-06-18 01:00 3.27 804 1860 (2009) 174 (2000) 414 174 178 208 218 364 420 448 590 1800
2020-06-18 00:00 3.27 804 1860 (2009) 174 (2000) 414 174 178 208 218 364 420 448 590 1800
2020-06-17 23:00 3.27 804 2740 (2009) 164 (2000) 472 165 184 201 223 393 459 468 694 2640
2020-06-17 22:00 3.30 821 2740 (2009) 164 (2000) 472 165 184 201 223 393 459 468 694 2640
2020-06-17 21:00 3.26 799 2740 (2009) 164 (2000) 472 165 184 201 223 393 459 468 694 2640
2020-06-17 20:00 3.24 787 2740 (2009) 164 (2000) 472 165 184 201 223 393 459 468 694 2640
2020-06-17 19:00 3.26 799 2740 (2009) 164 (2000) 472 165 184 201 223 393 459 468 694 2640
2020-06-17 18:00 3.33 839 2740 (2009) 164 (2000) 472 165 184 201 223 393 459 468 694 2640
2020-06-17 17:00 3.30 821 2740 (2009) 164 (2000) 472 165 184 201 223 393 459 468 694 2640
2020-06-17 16:00 3.31 827 2740 (2009) 164 (2000) 472 165 184 201 223 393 459 468 694 2640
2020-06-17 15:00 3.29 816 2740 (2009) 164 (2000) 472 165 184 201 223 393 459 468 694 2640
2020-06-17 14:00 3.30 821 2740 (2009) 164 (2000) 472 165 184 201 223 393 459 468 694 2640
2020-06-17 13:00 3.33 839 2740 (2009) 164 (2000) 472 165 184 201 223 393 459 468 694 2640
2020-06-17 12:00 3.33 839 2740 (2009) 164 (2000) 472 165 184 201 223 393 459 468 694 2640
2020-06-17 11:00 3.29 816 2740 (2009) 164 (2000) 472 165 184 201 223 393 459 468 694 2640
2020-06-17 10:00 3.28 810 2740 (2009) 164 (2000) 472 165 184 201 223 393 459 468 694 2640
2020-06-17 09:00 3.30 821 2740 (2009) 164 (2000) 472 165 184 201 223 393 459 468 694 2640
2020-06-17 08:00 3.31 827 2740 (2009) 164 (2000) 472 165 184 201 223 393 459 468 694 2640
2020-06-17 07:00 3.34 845 2740 (2009) 164 (2000) 472 165 184 201 223 393 459 468 694 2640
2020-06-17 06:00 3.34 845 2740 (2009) 164 (2000) 472 165 184 201 223 393 459 468 694 2640
2020-06-17 05:00 3.35 850 2740 (2009) 164 (2000) 472 165 184 201 223 393 459 468 694 2640
2020-06-17 04:00 3.30 821 2740 (2009) 164 (2000) 472 165 184 201 223 393 459 468 694 2640
2020-06-17 03:00 3.33 839 2740 (2009) 164 (2000) 472 165 184 201 223 393 459 468 694 2640
2020-06-17 02:00 3.31 827 2740 (2009) 164 (2000) 472 165 184 201 223 393 459 468 694 2640
2020-06-17 01:00 3.34 845 2740 (2009) 164 (2000) 472 165 184 201 223 393 459 468 694 2640
2020-06-17 00:00 3.35 850 2740 (2009) 164 (2000) 472 165 184 201 223 393 459 468 694 2640
2020-06-16 23:00 3.35 850 2290 (2009) 140 (2000) 475 142 189 195 207 396 492 549 898 2220
2020-06-16 22:00 3.34 845 2290 (2009) 140 (2000) 475 142 189 195 207 396 492 549 898 2220
2020-06-16 21:00 3.39 874 2290 (2009) 140 (2000) 475 142 189 195 207 396 492 549 898 2220
2020-06-16 20:00 3.35 850 2290 (2009) 140 (2000) 475 142 189 195 207 396 492 549 898 2220
2020-06-16 19:00 3.36 856 2290 (2009) 140 (2000) 475 142 189 195 207 396 492 549 898 2220
2020-06-16 18:00 3.38 868 2290 (2009) 140 (2000) 475 142 189 195 207 396 492 549 898 2220
2020-06-16 17:00 3.32 833 2290 (2009) 140 (2000) 475 142 189 195 207 396 492 549 898 2220
2020-06-16 16:00 3.38 868 2290 (2009) 140 (2000) 475 142 189 195 207 396 492 549 898 2220
2020-06-16 15:00 3.34 845 2290 (2009) 140 (2000) 475 142 189 195 207 396 492 549 898 2220
2020-06-16 14:00 3.32 833 2290 (2009) 140 (2000) 475 142 189 195 207 396 492 549 898 2220
2020-06-16 13:00 3.36 856 2290 (2009) 140 (2000) 475 142 189 195 207 396 492 549 898 2220
2020-06-16 12:00 3.40 880 2290 (2009) 140 (2000) 475 142 189 195 207 396 492 549 898 2220
2020-06-16 11:00 3.39 874 2290 (2009) 140 (2000) 475 142 189 195 207 396 492 549 898 2220
2020-06-16 10:00 3.42 892 2290 (2009) 140 (2000) 475 142 189 195 207 396 492 549 898 2220
2020-06-16 09:00 3.43 899 2290 (2009) 140 (2000) 475 142 189 195 207 396 492 549 898 2220
2020-06-16 08:00 3.39 874 2290 (2009) 140 (2000) 475 142 189 195 207 396 492 549 898 2220
2020-06-16 07:00 3.42 892 2290 (2009) 140 (2000) 475 142 189 195 207 396 492 549 898 2220
2020-06-16 06:00 3.42 892 2290 (2009) 140 (2000) 475 142 189 195 207 396 492 549 898 2220
2020-06-16 05:00 3.44 905 2290 (2009) 140 (2000) 475 142 189 195 207 396 492 549 898 2220
2020-06-16 04:00 3.45 911 2290 (2009) 140 (2000) 475 142 189 195 207 396 492 549 898 2220
2020-06-16 03:00 3.42 892 2290 (2009) 140 (2000) 475 142 189 195 207 396 492 549 898 2220
2020-06-16 02:00 3.46 917 2290 (2009) 140 (2000) 475 142 189 195 207 396 492 549 898 2220
2020-06-16 01:00 3.46 917 2290 (2009) 140 (2000) 475 142 189 195 207 396 492 549 898 2220
2020-06-16 00:00 3.45 911 2290 (2009) 140 (2000) 475 142 189 195 207 396 492 549 898 2220
2020-06-15 23:00 3.52 955 932 (2009) 145 (2000) 411 147 182 201 217 410 537 554 693 920
2020-06-15 22:00 3.51 949 932 (2009) 145 (2000) 411 147 182 201 217 410 537 554 693 920
2020-06-15 21:00 3.54 968 932 (2009) 145 (2000) 411 147 182 201 217 410 537 554 693 920
2020-06-15 20:00 3.47 923 932 (2009) 145 (2000) 411 147 182 201 217 410 537 554 693 920
2020-06-15 19:00 3.48 930 932 (2009) 145 (2000) 411 147 182 201 217 410 537 554 693 920
2020-06-15 18:00 3.52 955 932 (2009) 145 (2000) 411 147 182 201 217 410 537 554 693 920
2020-06-15 17:00 3.50 942 932 (2009) 145 (2000) 411 147 182 201 217 410 537 554 693 920
2020-06-15 16:00 3.56 981 932 (2009) 145 (2000) 411 147 182 201 217 410 537 554 693 920
2020-06-15 15:00 3.51 949 932 (2009) 145 (2000) 411 147 182 201 217 410 537 554 693 920
2020-06-15 14:00 3.49 936 932 (2009) 145 (2000) 411 147 182 201 217 410 537 554 693 920
2020-06-15 13:00 3.56 981 932 (2009) 145 (2000) 411 147 182 201 217 410 537 554 693 920
2020-06-15 12:00 3.55 974 932 (2009) 145 (2000) 411 147 182 201 217 410 537 554 693 920
2020-06-15 11:00 3.55 974 932 (2009) 145 (2000) 411 147 182 201 217 410 537 554 693 920
2020-06-15 10:00 3.58 994 932 (2009) 145 (2000) 411 147 182 201 217 410 537 554 693 920
2020-06-15 09:00 3.54 968 932 (2009) 145 (2000) 411 147 182 201 217 410 537 554 693 920
2020-06-15 08:00 3.50 942 932 (2009) 145 (2000) 411 147 182 201 217 410 537 554 693 920
2020-06-15 07:00 3.58 994 932 (2009) 145 (2000) 411 147 182 201 217 410 537 554 693 920
2020-06-15 06:00 3.59 1000 932 (2009) 145 (2000) 411 147 182 201 217 410 537 554 693 920
2020-06-15 05:00 3.61 1010 932 (2009) 145 (2000) 411 147 182 201 217 410 537 554 693 920
2020-06-15 04:00 3.58 994 932 (2009) 145 (2000) 411 147 182 201 217 410 537 554 693 920
2020-06-15 03:00 3.61 1010 932 (2009) 145 (2000) 411 147 182 201 217 410 537 554 693 920
2020-06-15 02:00 3.62 1020 932 (2009) 145 (2000) 411 147 182 201 217 410 537 554 693 920
2020-06-15 01:00 3.64 1030 932 (2009) 145 (2000) 411 147 182 201 217 410 537 554 693 920
2020-06-15 00:00 3.60 1010 932 (2009) 145 (2000) 411 147 182 201 217 410 537 554 693 920
2020-06-14 23:00 3.59 1000 607 (2009) 145 (2000) 392 147 185 206 216 422 545 554 598 607
2020-06-14 22:00 3.70 1080 607 (2009) 145 (2000) 392 147 185 206 216 422 545 554 598 607
2020-06-14 21:00 3.70 1080 607 (2009) 145 (2000) 392 147 185 206 216 422 545 554 598 607
2020-06-14 20:00 3.62 1020 607 (2009) 145 (2000) 392 147 185 206 216 422 545 554 598 607
2020-06-14 19:00 3.66 1050 607 (2009) 145 (2000) 392 147 185 206 216 422 545 554 598 607
2020-06-14 18:00 3.68 1060 607 (2009) 145 (2000) 392 147 185 206 216 422 545 554 598 607
2020-06-14 17:00 3.70 1080 607 (2009) 145 (2000) 392 147 185 206 216 422 545 554 598 607
2020-06-14 16:00 3.71 1080 607 (2009) 145 (2000) 392 147 185 206 216 422 545 554 598 607
2020-06-14 15:00 3.69 1070 607 (2009) 145 (2000) 392 147 185 206 216 422 545 554 598 607
2020-06-14 14:00 3.71 1080 607 (2009) 145 (2000) 392 147 185 206 216 422 545 554 598 607
2020-06-14 13:00 3.77 1130 607 (2009) 145 (2000) 392 147 185 206 216 422 545 554 598 607
2020-06-14 12:00 3.70 1080 607 (2009) 145 (2000) 392 147 185 206 216 422 545 554 598 607
2020-06-14 11:00 3.65 1040 607 (2009) 145 (2000) 392 147 185 206 216 422 545 554 598 607
2020-06-14 10:00 3.76 1120 607 (2009) 145 (2000) 392 147 185 206 216 422 545 554 598 607
2020-06-14 09:00 3.74 1100 607 (2009) 145 (2000) 392 147 185 206 216 422 545 554 598 607
2020-06-14 08:00 3.74 1100 607 (2009) 145 (2000) 392 147 185 206 216 422 545 554 598 607
2020-06-14 07:00 3.80 1150 607 (2009) 145 (2000) 392 147 185 206 216 422 545 554 598 607
2020-06-14 06:00 3.79 1140 607 (2009) 145 (2000) 392 147 185 206 216 422 545 554 598 607
2020-06-14 05:00 3.86 1190 607 (2009) 145 (2000) 392 147 185 206 216 422 545 554 598 607
2020-06-14 04:00 3.86 1190 607 (2009) 145 (2000) 392 147 185 206 216 422 545 554 598 607
2020-06-14 03:00 3.79 1140 607 (2009) 145 (2000) 392 147 185 206 216 422 545 554 598 607
2020-06-14 02:00 3.80 1150 607 (2009) 145 (2000) 392 147 185 206 216 422 545 554 598 607
2020-06-14 01:00 3.82 1160 607 (2009) 145 (2000) 392 147 185 206 216 422 545 554 598 607
2020-06-14 00:00 3.91 1230 607 (2009) 145 (2000) 392 147 185 206 216 422 545 554 598 607
2020-06-13 23:00 3.82 1160 746 (2009) 142 (2000) 403 145 197 213 224 419 524 562 621 740
2020-06-13 22:00 3.88 1210 746 (2009) 142 (2000) 403 145 197 213 224 419 524 562 621 740
2020-06-13 21:00 3.89 1210 746 (2009) 142 (2000) 403 145 197 213 224 419 524 562 621 740
2020-06-13 20:00 3.89 1210 746 (2009) 142 (2000) 403 145 197 213 224 419 524 562 621 740
2020-06-13 19:00 3.77 1130 746 (2009) 142 (2000) 403 145 197 213 224 419 524 562 621 740
2020-06-13 18:00 3.92 1240 746 (2009) 142 (2000) 403 145 197 213 224 419 524 562 621 740
2020-06-13 17:00 3.97 1280 746 (2009) 142 (2000) 403 145 197 213 224 419 524 562 621 740
2020-06-13 16:00 3.93 1250 746 (2009) 142 (2000) 403 145 197 213 224 419 524 562 621 740
2020-06-13 15:00 3.94 1250 746 (2009) 142 (2000) 403 145 197 213 224 419 524 562 621 740
2020-06-13 14:00 3.99 1290 746 (2009) 142 (2000) 403 145 197 213 224 419 524 562 621 740
2020-06-13 13:00 4.02 1320 746 (2009) 142 (2000) 403 145 197 213 224 419 524 562 621 740
2020-06-13 12:00 4.02 1320 746 (2009) 142 (2000) 403 145 197 213 224 419 524 562 621 740
2020-06-13 11:00 4.01 1310 746 (2009) 142 (2000) 403 145 197 213 224 419 524 562 621 740
2020-06-13 10:00 4.06 1350 746 (2009) 142 (2000) 403 145 197 213 224 419 524 562 621 740
2020-06-13 09:00 4.07 1360 746 (2009) 142 (2000) 403 145 197 213 224 419 524 562 621 740
2020-06-13 08:00 4.08 1370 746 (2009) 142 (2000) 403 145 197 213 224 419 524 562 621 740
2020-06-13 07:00 4.05 1340 746 (2009) 142 (2000) 403 145 197 213 224 419 524 562 621 740
2020-06-13 06:00 4.13 1400 746 (2009) 142 (2000) 403 145 197 213 224 419 524 562 621 740
2020-06-13 05:00 4.16 1430 746 (2009) 142 (2000) 403 145 197 213 224 419 524 562 621 740
2020-06-13 04:00 4.13 1400 746 (2009) 142 (2000) 403 145 197 213 224 419 524 562 621 740
2020-06-13 03:00 4.12 1400 746 (2009) 142 (2000) 403 145 197 213 224 419 524 562 621 740
2020-06-13 02:00 4.14 1410 746 (2009) 142 (2000) 403 145 197 213 224 419 524 562 621 740
2020-06-13 01:00 4.18 1450 746 (2009) 142 (2000) 403 145 197 213 224 419 524 562 621 740
2020-06-13 00:00 4.19 1460 746 (2009) 142 (2000) 403 145 197 213 224 419 524 562 621 740
2020-06-12 23:00 4.19 1460 943 (2009) 142 (2000) 419 145 196 220 234 405 555 585 671 929
2020-06-12 22:00 4.21 1480 943 (2009) 142 (2000) 419 145 196 220 234 405 555 585 671 929
2020-06-12 21:00 4.31 1570 943 (2009) 142 (2000) 419 145 196 220 234 405 555 585 671 929
2020-06-12 20:00 4.28 1540 943 (2009) 142 (2000) 419 145 196 220 234 405 555 585 671 929
2020-06-12 19:00 4.32 1580 943 (2009) 142 (2000) 419 145 196 220 234 405 555 585 671 929
2020-06-12 18:00 4.32 1580 943 (2009) 142 (2000) 419 145 196 220 234 405 555 585 671 929
2020-06-12 17:00 4.38 1630 943 (2009) 142 (2000) 419 145 196 220 234 405 555 585 671 929
2020-06-12 16:00 4.46 1710 943 (2009) 142 (2000) 419 145 196 220 234 405 555 585 671 929
2020-06-12 15:00 4.44 1690 943 (2009) 142 (2000) 419 145 196 220 234 405 555 585 671 929
2020-06-12 14:00 4.47 1720 943 (2009) 142 (2000) 419 145 196 220 234 405 555 585 671 929
2020-06-12 13:00 4.45 1700 943 (2009) 142 (2000) 419 145 196 220 234 405 555 585 671 929
2020-06-12 12:00 4.48 1730 943 (2009) 142 (2000) 419 145 196 220 234 405 555 585 671 929
2020-06-12 11:00 4.43 1680 943 (2009) 142 (2000) 419 145 196 220 234 405 555 585 671 929
2020-06-12 10:00 4.49 1740 943 (2009) 142 (2000) 419 145 196 220 234 405 555 585 671 929
2020-06-12 09:00 4.62 1870 943 (2009) 142 (2000) 419 145 196 220 234 405 555 585 671 929
2020-06-12 08:00 4.61 1860 943 (2009) 142 (2000) 419 145 196 220 234 405 555 585 671 929
2020-06-12 07:00 4.64 1890 943 (2009) 142 (2000) 419 145 196 220 234 405 555 585 671 929
2020-06-12 06:00 4.66 1910 943 (2009) 142 (2000) 419 145 196 220 234 405 555 585 671 929
2020-06-12 05:00 4.69 1950 943 (2009) 142 (2000) 419 145 196 220 234 405 555 585 671 929
2020-06-12 04:00 4.75 2010 943 (2009) 142 (2000) 419 145 196 220 234 405 555 585 671 929
2020-06-12 03:00 4.74 2000 943 (2009) 142 (2000) 419 145 196 220 234 405 555 585 671 929
2020-06-12 02:00 4.78 2050 943 (2009) 142 (2000) 419 145 196 220 234 405 555 585 671 929
2020-06-12 01:00 4.84 2100 943 (2009) 142 (2000) 419 145 196 220 234 405 555 585 671 929
2020-06-12 00:00 4.86 2120 943 (2009) 142 (2000) 419 145 196 220 234 405 555 585 671 929
2020-06-11 23:00 4.89 2150 1170 (2009) 141 (2000) 443 143 185 227 241 419 588 616 831 1150
2020-06-11 22:00 4.93 2200 1170 (2009) 141 (2000) 443 143 185 227 241 419 588 616 831 1150
2020-06-11 21:00 4.94 2210 1170 (2009) 141 (2000) 443 143 185 227 241 419 588 616 831 1150
2020-06-11 20:00 5.00 2280 1170 (2009) 141 (2000) 443 143 185 227 241 419 588 616 831 1150
2020-06-11 19:00 5.02 2300 1170 (2009) 141 (2000) 443 143 185 227 241 419 588 616 831 1150
2020-06-11 18:00 5.07 2350 1170 (2009) 141 (2000) 443 143 185 227 241 419 588 616 831 1150
2020-06-11 17:00 5.13 2420 1170 (2009) 141 (2000) 443 143 185 227 241 419 588 616 831 1150
2020-06-11 16:00 5.16 2450 1170 (2009) 141 (2000) 443 143 185 227 241 419 588 616 831 1150
2020-06-11 15:00 5.20 2490 1170 (2009) 141 (2000) 443 143 185 227 241 419 588 616 831 1150
2020-06-11 14:00 5.24 2520 1170 (2009) 141 (2000) 443 143 185 227 241 419 588 616 831 1150
2020-06-11 13:00 5.30 2570 1170 (2009) 141 (2000) 443 143 185 227 241 419 588 616 831 1150
2020-06-11 12:00 5.34 2610 1170 (2009) 141 (2000) 443 143 185 227 241 419 588 616 831 1150
2020-06-11 11:00 5.39 2650 1170 (2009) 141 (2000) 443 143 185 227 241 419 588 616 831 1150
2020-06-11 10:00 5.43 2690 1170 (2009) 141 (2000) 443 143 185 227 241 419 588 616 831 1150
2020-06-11 09:00 5.49 2740 1170 (2009) 141 (2000) 443 143 185 227 241 419 588 616 831 1150
2020-06-11 08:00 5.52 2770 1170 (2009) 141 (2000) 443 143 185 227 241 419 588 616 831 1150
2020-06-11 07:00 5.59 2840 1170 (2009) 141 (2000) 443 143 185 227 241 419 588 616 831 1150
2020-06-11 06:00 5.65 2900 1170 (2009) 141 (2000) 443 143 185 227 241 419 588 616 831 1150
2020-06-11 05:00 5.69 2940 1170 (2009) 141 (2000) 443 143 185 227 241 419 588 616 831 1150
2020-06-11 04:00 5.77 3000 1170 (2009) 141 (2000) 443 143 185 227 241 419 588 616 831 1150
2020-06-11 03:00 5.81 3040 1170 (2009) 141 (2000) 443 143 185 227 241 419 588 616 831 1150
2020-06-11 02:00 5.87 3090 1170 (2009) 141 (2000) 443 143 185 227 241 419 588 616 831 1150
2020-06-11 01:00 5.96 3170 1170 (2009) 141 (2000) 443 143 185 227 241 419 588 616 831 1150
2020-06-11 00:00 6.07 3270 1170 (2009) 141 (2000) 443 143 185 227 241 419 588 616 831 1150
2020-06-10 23:00 6.11 3300 765 (2019) 137 (2000) 427 139 185 228 235 442 560 642 758 765
2020-06-10 22:00 6.25 3430 765 (2019) 137 (2000) 427 139 185 228 235 442 560 642 758 765
2020-06-10 21:00 6.31 3490 765 (2019) 137 (2000) 427 139 185 228 235 442 560 642 758 765
2020-06-10 20:00 6.42 3580 765 (2019) 137 (2000) 427 139 185 228 235 442 560 642 758 765
2020-06-10 19:00 6.54 3700 765 (2019) 137 (2000) 427 139 185 228 235 442 560 642 758 765
2020-06-10 18:00 6.70 3850 765 (2019) 137 (2000) 427 139 185 228 235 442 560 642 758 765
2020-06-10 17:00 6.86 4010 765 (2019) 137 (2000) 427 139 185 228 235 442 560 642 758 765
2020-06-10 16:00 7.06 4210 765 (2019) 137 (2000) 427 139 185 228 235 442 560 642 758 765
2020-06-10 15:00 7.30 4460 765 (2019) 137 (2000) 427 139 185 228 235 442 560 642 758 765
2020-06-10 14:00 7.65 4810 765 (2019) 137 (2000) 427 139 185 228 235 442 560 642 758 765
2020-06-10 13:00 7.95 5110 765 (2019) 137 (2000) 427 139 185 228 235 442 560 642 758 765
2020-06-10 12:00 8.37 5570 765 (2019) 137 (2000) 427 139 185 228 235 442 560 642 758 765
2020-06-10 11:00 8.75 6020 765 (2019) 137 (2000) 427 139 185 228 235 442 560 642 758 765
2020-06-10 10:00 9.17 6530 765 (2019) 137 (2000) 427 139 185 228 235 442 560 642 758 765
2020-06-10 09:00 9.35 6770 765 (2019) 137 (2000) 427 139 185 228 235 442 560 642 758 765
2020-06-10 08:00 9.54 7010 765 (2019) 137 (2000) 427 139 185 228 235 442 560 642 758 765
2020-06-10 07:00 9.58 7060 765 (2019) 137 (2000) 427 139 185 228 235 442 560 642 758 765
2020-06-10 06:00 9.60 7090 765 (2019) 137 (2000) 427 139 185 228 235 442 560 642 758 765
2020-06-10 05:00 9.54 7010 765 (2019) 137 (2000) 427 139 185 228 235 442 560 642 758 765
2020-06-10 04:00 9.42 6850 765 (2019) 137 (2000) 427 139 185 228 235 442 560 642 758 765
2020-06-10 03:00 9.23 6610 765 (2019) 137 (2000) 427 139 185 228 235 442 560 642 758 765
2020-06-10 02:00 8.98 6290 765 (2019) 137 (2000) 427 139 185 228 235 442 560 642 758 765
2020-06-10 01:00 8.70 5950 765 (2019) 137 (2000) 427 139 185 228 235 442 560 642 758 765
2020-06-10 00:00 8.43 5640 765 (2019) 137 (2000) 427 139 185 228 235 442 560 642 758 765
2020-06-09 23:00 7.96 5120 963 (2019) 137 (2000) 447 140 188 231 242 433 581 598 835 957
2020-06-09 22:00 7.54 4700 963 (2019) 137 (2000) 447 140 188 231 242 433 581 598 835 957
2020-06-09 21:00 7.05 4200 963 (2019) 137 (2000) 447 140 188 231 242 433 581 598 835 957
2020-06-09 20:00 6.50 3660 963 (2019) 137 (2000) 447 140 188 231 242 433 581 598 835 957
2020-06-09 19:00 6.03 3230 963 (2019) 137 (2000) 447 140 188 231 242 433 581 598 835 957
2020-06-09 18:00 5.77 3000 963 (2019) 137 (2000) 447 140 188 231 242 433 581 598 835 957
2020-06-09 17:00 5.61 2860 963 (2019) 137 (2000) 447 140 188 231 242 433 581 598 835 957
2020-06-09 16:00 5.45 2710 963 (2019) 137 (2000) 447 140 188 231 242 433 581 598 835 957
2020-06-09 15:00 5.31 2580 963 (2019) 137 (2000) 447 140 188 231 242 433 581 598 835 957
2020-06-09 14:00 5.31 2580 963 (2019) 137 (2000) 447 140 188 231 242 433 581 598 835 957
2020-06-09 13:00 5.34 2610 963 (2019) 137 (2000) 447 140 188 231 242 433 581 598 835 957
2020-06-09 12:00 5.29 2560 963 (2019) 137 (2000) 447 140 188 231 242 433 581 598 835 957
2020-06-09 11:00 5.18 2470 963 (2019) 137 (2000) 447 140 188 231 242 433 581 598 835 957
2020-06-09 10:00 4.81 2070 963 (2019) 137 (2000) 447 140 188 231 242 433 581 598 835 957
2020-06-09 09:00 4.41 1660 963 (2019) 137 (2000) 447 140 188 231 242 433 581 598 835 957
2020-06-09 08:00 4.10 1390 963 (2019) 137 (2000) 447 140 188 231 242 433 581 598 835 957
2020-06-09 07:00 4.00 1300 963 (2019) 137 (2000) 447 140 188 231 242 433 581 598 835 957
2020-06-09 06:00 3.81 1150 963 (2019) 137 (2000) 447 140 188 231 242 433 581 598 835 957
2020-06-09 05:00 3.62 1020 963 (2019) 137 (2000) 447 140 188 231 242 433 581 598 835 957
2020-06-09 04:00 3.62 1020 963 (2019) 137 (2000) 447 140 188 231 242 433 581 598 835 957
2020-06-09 03:00 3.50 942 963 (2019) 137 (2000) 447 140 188 231 242 433 581 598 835 957
2020-06-09 02:00 3.46 917 963 (2019) 137 (2000) 447 140 188 231 242 433 581 598 835 957
2020-06-09 01:00 3.33 839 963 (2019) 137 (2000) 447 140 188 231 242 433 581 598 835 957
2020-06-09 00:00 3.35 850 963 (2019) 137 (2000) 447 140 188 231 242 433 581 598 835 957
2020-06-08 23:00 3.37 862 1070 (2016) 138 (2000) 470 141 191 245 250 433 623 664 853 1060
2020-06-08 22:00 3.32 833 1070 (2016) 138 (2000) 470 141 191 245 250 433 623 664 853 1060
2020-06-08 21:00 3.35 850 1070 (2016) 138 (2000) 470 141 191 245 250 433 623 664 853 1060
2020-06-08 20:00 3.31 827 1070 (2016) 138 (2000) 470 141 191 245 250 433 623 664 853 1060
2020-06-08 19:00 3.28 810 1070 (2016) 138 (2000) 470 141 191 245 250 433 623 664 853 1060
2020-06-08 18:00 3.32 833 1070 (2016) 138 (2000) 470 141 191 245 250 433 623 664 853 1060
2020-06-08 17:00 3.35 850 1070 (2016) 138 (2000) 470 141 191 245 250 433 623 664 853 1060
2020-06-08 16:00 3.33 839 1070 (2016) 138 (2000) 470 141 191 245 250 433 623 664 853 1060
2020-06-08 15:00 3.36 856 1070 (2016) 138 (2000) 470 141 191 245 250 433 623 664 853 1060
2020-06-08 14:00 3.37 862 1070 (2016) 138 (2000) 470 141 191 245 250 433 623 664 853 1060
2020-06-08 13:00 3.35 850 1070 (2016) 138 (2000) 470 141 191 245 250 433 623 664 853 1060
2020-06-08 12:00 3.31 827 1070 (2016) 138 (2000) 470 141 191 245 250 433 623 664 853 1060
2020-06-08 11:00 3.28 810 1070 (2016) 138 (2000) 470 141 191 245 250 433 623 664 853 1060
2020-06-08 10:00 3.37 862 1070 (2016) 138 (2000) 470 141 191 245 250 433 623 664 853 1060
2020-06-08 09:00 3.41 886 1070 (2016) 138 (2000) 470 141 191 245 250 433 623 664 853 1060
2020-06-08 08:00 3.37 862 1070 (2016) 138 (2000) 470 141 191 245 250 433 623 664 853 1060
2020-06-08 07:00 3.40 880 1070 (2016) 138 (2000) 470 141 191 245 250 433 623 664 853 1060
2020-06-08 06:00 3.36 856 1070 (2016) 138 (2000) 470 141 191 245 250 433 623 664 853 1060
2020-06-08 05:30 3.36 856 1070 (2016) 138 (2000) 470 141 191 245 250 433 623 664 853 1060
2020-06-08 05:00 3.36 856 1070 (2016) 138 (2000) 470 141 191 245 250 433 623 664 853 1060
2020-06-08 04:00 3.38 868 1070 (2016) 138 (2000) 470 141 191 245 250 433 623 664 853 1060
2020-06-08 03:00 3.50 942 1070 (2016) 138 (2000) 470 141 191 245 250 433 623 664 853 1060
2020-06-08 02:00 3.41 886 1070 (2016) 138 (2000) 470 141 191 245 250 433 623 664 853 1060
2020-06-08 01:00 3.43 899 1070 (2016) 138 (2000) 470 141 191 245 250 433 623 664 853 1060
2020-06-08 00:00 3.51 949 1070 (2016) 138 (2000) 470 141 191 245 250 433 623 664 853 1060
2020-06-07 23:00 3.47 923 1490 (2016) 142 (2000) 522 144 185 254 264 477 668 737 990 1470
2020-06-07 22:00 3.43 899 1490 (2016) 142 (2000) 522 144 185 254 264 477 668 737 990 1470
2020-06-07 21:00 3.48 930 1490 (2016) 142 (2000) 522 144 185 254 264 477 668 737 990 1470
2020-06-07 20:00 3.48 930 1490 (2016) 142 (2000) 522 144 185 254 264 477 668 737 990 1470
2020-06-07 19:00 3.47 923 1490 (2016) 142 (2000) 522 144 185 254 264 477 668 737 990 1470
2020-06-07 18:00 3.52 955 1490 (2016) 142 (2000) 522 144 185 254 264 477 668 737 990 1470
2020-06-07 17:00 3.53 961 1490 (2016) 142 (2000) 522 144 185 254 264 477 668 737 990 1470
2020-06-07 16:00 3.53 961 1490 (2016) 142 (2000) 522 144 185 254 264 477 668 737 990 1470
2020-06-07 15:00 3.55 974 1490 (2016) 142 (2000) 522 144 185 254 264 477 668 737 990 1470
2020-06-07 14:00 3.52 955 1490 (2016) 142 (2000) 522 144 185 254 264 477 668 737 990 1470
2020-06-07 13:00 3.50 942 1490 (2016) 142 (2000) 522 144 185 254 264 477 668 737 990 1470
2020-06-07 12:00 3.59 1000 1490 (2016) 142 (2000) 522 144 185 254 264 477 668 737 990 1470
2020-06-07 11:00 3.59 1000 1490 (2016) 142 (2000) 522 144 185 254 264 477 668 737 990 1470
2020-06-07 10:00 3.57 987 1490 (2016) 142 (2000) 522 144 185 254 264 477 668 737 990 1470
2020-06-07 09:00 3.61 1010 1490 (2016) 142 (2000) 522 144 185 254 264 477 668 737 990 1470
2020-06-07 08:00 3.58 994 1490 (2016) 142 (2000) 522 144 185 254 264 477 668 737 990 1470
2020-06-07 07:00 3.62 1020 1490 (2016) 142 (2000) 522 144 185 254 264 477 668 737 990 1470
2020-06-07 06:00 3.67 1050 1490 (2016) 142 (2000) 522 144 185 254 264 477 668 737 990 1470
2020-06-07 05:00 3.66 1050 1490 (2016) 142 (2000) 522 144 185 254 264 477 668 737 990 1470
2020-06-07 04:00 3.69 1070 1490 (2016) 142 (2000) 522 144 185 254 264 477 668 737 990 1470
2020-06-07 03:00 3.65 1040 1490 (2016) 142 (2000) 522 144 185 254 264 477 668 737 990 1470
2020-06-07 02:00 3.65 1040 1490 (2016) 142 (2000) 522 144 185 254 264 477 668 737 990 1470
2020-06-07 01:00 3.71 1080 1490 (2016) 142 (2000) 522 144 185 254 264 477 668 737 990 1470
2020-06-07 00:00 3.83 1170 1490 (2016) 142 (2000) 522 144 185 254 264 477 668 737 990 1470
2020-06-06 23:00 3.71 1080 2420 (2016) 144 (2000) 603 146 189 264 274 462 766 799 1150 2360
2020-06-06 22:00 3.76 1120 2420 (2016) 144 (2000) 603 146 189 264 274 462 766 799 1150 2360
2020-06-06 21:00 3.82 1160 2420 (2016) 144 (2000) 603 146 189 264 274 462 766 799 1150 2360
2020-06-06 20:00 3.82 1160 2420 (2016) 144 (2000) 603 146 189 264 274 462 766 799 1150 2360
2020-06-06 19:00 3.84 1180 2420 (2016) 144 (2000) 603 146 189 264 274 462 766 799 1150 2360
2020-06-06 18:00 3.84 1180 2420 (2016) 144 (2000) 603 146 189 264 274 462 766 799 1150 2360
2020-06-06 17:00 3.84 1180 2420 (2016) 144 (2000) 603 146 189 264 274 462 766 799 1150 2360
2020-06-06 16:00 3.86 1190 2420 (2016) 144 (2000) 603 146 189 264 274 462 766 799 1150 2360
2020-06-06 15:00 3.88 1210 2420 (2016) 144 (2000) 603 146 189 264 274 462 766 799 1150 2360
2020-06-06 14:00 3.93 1250 2420 (2016) 144 (2000) 603 146 189 264 274 462 766 799 1150 2360
2020-06-06 13:00 3.97 1280 2420 (2016) 144 (2000) 603 146 189 264 274 462 766 799 1150 2360
2020-06-06 12:00 4.00 1300 2420 (2016) 144 (2000) 603 146 189 264 274 462 766 799 1150 2360
2020-06-06 11:00 3.92 1240 2420 (2016) 144 (2000) 603 146 189 264 274 462 766 799 1150 2360
2020-06-06 10:00 4.01 1310 2420 (2016) 144 (2000) 603 146 189 264 274 462 766 799 1150 2360
2020-06-06 09:00 4.12 1400 2420 (2016) 144 (2000) 603 146 189 264 274 462 766 799 1150 2360
2020-06-06 08:00 3.99 1290 2420 (2016) 144 (2000) 603 146 189 264 274 462 766 799 1150 2360
2020-06-06 07:00 4.20 1470 2420 (2016) 144 (2000) 603 146 189 264 274 462 766 799 1150 2360
2020-06-06 06:00 4.12 1400 2420 (2016) 144 (2000) 603 146 189 264 274 462 766 799 1150 2360
2020-06-06 05:00 4.13 1400 2420 (2016) 144 (2000) 603 146 189 264 274 462 766 799 1150 2360
2020-06-06 04:00 4.20 1470 2420 (2016) 144 (2000) 603 146 189 264 274 462 766 799 1150 2360
2020-06-06 03:00 4.17 1440 2420 (2016) 144 (2000) 603 146 189 264 274 462 766 799 1150 2360
2020-06-06 02:00 4.21 1480 2420 (2016) 144 (2000) 603 146 189 264 274 462 766 799 1150 2360
2020-06-06 01:00 4.29 1550 2420 (2016) 144 (2000) 603 146 189 264 274 462 766 799 1150 2360
2020-06-06 00:00 4.39 1640 2420 (2016) 144 (2000) 603 146 189 264 274 462 766 799 1150 2360
2020-06-05 23:00 4.33 1590 4210 (2016) 147 (2000) 756 149 191 276 293 491 871 962 1470 4080
2020-06-05 22:00 4.44 1690 4210 (2016) 147 (2000) 756 149 191 276 293 491 871 962 1470 4080
2020-06-05 21:00 4.53 1780 4210 (2016) 147 (2000) 756 149 191 276 293 491 871 962 1470 4080
2020-06-05 20:00 4.50 1750 4210 (2016) 147 (2000) 756 149 191 276 293 491 871 962 1470 4080
2020-06-05 19:00 4.67 1930 4210 (2016) 147 (2000) 756 149 191 276 293 491 871 962 1470 4080
2020-06-05 18:00 4.74 2000 4210 (2016) 147 (2000) 756 149 191 276 293 491 871 962 1470 4080
2020-06-05 17:00 4.84 2100 4210 (2016) 147 (2000) 756 149 191 276 293 491 871 962 1470 4080
2020-06-05 16:00 4.93 2200 4210 (2016) 147 (2000) 756 149 191 276 293 491 871 962 1470 4080
2020-06-05 15:00 5.00 2280 4210 (2016) 147 (2000) 756 149 191 276 293 491 871 962 1470 4080
2020-06-05 14:00 5.12 2410 4210 (2016) 147 (2000) 756 149 191 276 293 491 871 962 1470 4080
2020-06-05 13:00 5.33 2600 4210 (2016) 147 (2000) 756 149 191 276 293 491 871 962 1470 4080
2020-06-05 12:00 5.47 2730 4210 (2016) 147 (2000) 756 149 191 276 293 491 871 962 1470 4080
2020-06-05 11:00 5.68 2930 4210 (2016) 147 (2000) 756 149 191 276 293 491 871 962 1470 4080
2020-06-05 10:00 5.92 3140 4210 (2016) 147 (2000) 756 149 191 276 293 491 871 962 1470 4080
2020-06-05 09:00 6.11 3300 4210 (2016) 147 (2000) 756 149 191 276 293 491 871 962 1470 4080
2020-06-05 08:00 6.34 3510 4210 (2016) 147 (2000) 756 149 191 276 293 491 871 962 1470 4080
2020-06-05 07:00 6.44 3600 4210 (2016) 147 (2000) 756 149 191 276 293 491 871 962 1470 4080
2020-06-05 06:00 6.45 3610 4210 (2016) 147 (2000) 756 149 191 276 293 491 871 962 1470 4080
2020-06-05 05:00 6.23 3410 4210 (2016) 147 (2000) 756 149 191 276 293 491 871 962 1470 4080
2020-06-05 04:00 5.81 3040 4210 (2016) 147 (2000) 756 149 191 276 293 491 871 962 1470 4080
2020-06-05 03:00 4.90 2170 4210 (2016) 147 (2000) 756 149 191 276 293 491 871 962 1470 4080
2020-06-05 02:00 3.77 1130 4210 (2016) 147 (2000) 756 149 191 276 293 491 871 962 1470 4080
2020-06-05 01:00 3.60 1010 4210 (2016) 147 (2000) 756 149 191 276 293 491 871 962 1470 4080
2020-06-05 00:00 3.59 1000 4210 (2016) 147 (2000) 756 149 191 276 293 491 871 962 1470 4080
2020-06-04 23:00 3.60 1010 2130 (2013) 149 (2000) 653 151 196 283 291 487 916 971 1290 2090
2020-06-04 22:00 3.62 1020 2130 (2013) 149 (2000) 653 151 196 283 291 487 916 971 1290 2090
2020-06-04 21:00 3.60 1010 2130 (2013) 149 (2000) 653 151 196 283 291 487 916 971 1290 2090
2020-06-04 20:00 3.63 1030 2130 (2013) 149 (2000) 653 151 196 283 291 487 916 971 1290 2090
2020-06-04 19:00 3.60 1010 2130 (2013) 149 (2000) 653 151 196 283 291 487 916 971 1290 2090
2020-06-04 18:00 3.62 1020 2130 (2013) 149 (2000) 653 151 196 283 291 487 916 971 1290 2090
2020-06-04 17:00 3.60 1010 2130 (2013) 149 (2000) 653 151 196 283 291 487 916 971 1290 2090
2020-06-04 16:00 3.59 1000 2130 (2013) 149 (2000) 653 151 196 283 291 487 916 971 1290 2090
2020-06-04 15:00 3.66 1050 2130 (2013) 149 (2000) 653 151 196 283 291 487 916 971 1290 2090
2020-06-04 14:00 3.64 1030 2130 (2013) 149 (2000) 653 151 196 283 291 487 916 971 1290 2090
2020-06-04 13:00 3.57 987 2130 (2013) 149 (2000) 653 151 196 283 291 487 916 971 1290 2090
2020-06-04 12:00 3.59 1000 2130 (2013) 149 (2000) 653 151 196 283 291 487 916 971 1290 2090
2020-06-04 11:00 3.58 994 2130 (2013) 149 (2000) 653 151 196 283 291 487 916 971 1290 2090
2020-06-04 10:00 3.60 1010 2130 (2013) 149 (2000) 653 151 196 283 291 487 916 971 1290 2090
2020-06-04 09:00 3.57 987 2130 (2013) 149 (2000) 653 151 196 283 291 487 916 971 1290 2090
2020-06-04 08:00 3.56 981 2130 (2013) 149 (2000) 653 151 196 283 291 487 916 971 1290 2090
2020-06-04 07:00 3.50 942 2130 (2013) 149 (2000) 653 151 196 283 291 487 916 971 1290 2090
2020-06-04 06:00 3.50 942 2130 (2013) 149 (2000) 653 151 196 283 291 487 916 971 1290 2090
2020-06-04 05:00 3.51 949 2130 (2013) 149 (2000) 653 151 196 283 291 487 916 971 1290 2090
2020-06-04 04:00 3.52 955 2130 (2013) 149 (2000) 653 151 196 283 291 487 916 971 1290 2090
2020-06-04 03:00 3.52 955 2130 (2013) 149 (2000) 653 151 196 283 291 487 916 971 1290 2090
2020-06-04 02:00 3.46 917 2130 (2013) 149 (2000) 653 151 196 283 291 487 916 971 1290 2090
2020-06-04 01:00 3.50 942 2130 (2013) 149 (2000) 653 151 196 283 291 487 916 971 1290 2090
2020-06-04 00:00 3.47 923 2130 (2013) 149 (2000) 653 151 196 283 291 487 916 971 1290 2090
2020-06-03 23:00 3.47 923 3800 (2013) 152 (2000) 725 154 196 271 287 489 882 1110 1280 3670
2020-06-03 22:00 3.48 930 3800 (2013) 152 (2000) 725 154 196 271 287 489 882 1110 1280 3670
2020-06-03 21:00 3.44 905 3800 (2013) 152 (2000) 725 154 196 271 287 489 882 1110 1280 3670
2020-06-03 20:00 3.49 936 3800 (2013) 152 (2000) 725 154 196 271 287 489 882 1110 1280 3670
2020-06-03 19:00 3.45 911 3800 (2013) 152 (2000) 725 154 196 271 287 489 882 1110 1280 3670
2020-06-03 18:00 3.45 911 3800 (2013) 152 (2000) 725 154 196 271 287 489 882 1110 1280 3670
2020-06-03 17:00 3.45 911 3800 (2013) 152 (2000) 725 154 196 271 287 489 882 1110 1280 3670
2020-06-03 16:00 3.49 936 3800 (2013) 152 (2000) 725 154 196 271 287 489 882 1110 1280 3670
2020-06-03 15:00 3.55 974 3800 (2013) 152 (2000) 725 154 196 271 287 489 882 1110 1280 3670
2020-06-03 14:00 3.50 942 3800 (2013) 152 (2000) 725 154 196 271 287 489 882 1110 1280 3670
2020-06-03 13:00 3.51 949 3800 (2013) 152 (2000) 725 154 196 271 287 489 882 1110 1280 3670
2020-06-03 12:00 3.52 955 3800 (2013) 152 (2000) 725 154 196 271 287 489 882 1110 1280 3670
2020-06-03 11:00 3.54 968 3800 (2013) 152 (2000) 725 154 196 271 287 489 882 1110 1280 3670
2020-06-03 10:00 3.52 955 3800 (2013) 152 (2000) 725 154 196 271 287 489 882 1110 1280 3670
2020-06-03 09:00 3.54 968 3800 (2013) 152 (2000) 725 154 196 271 287 489 882 1110 1280 3670
2020-06-03 08:00 3.51 949 3800 (2013) 152 (2000) 725 154 196 271 287 489 882 1110 1280 3670
2020-06-03 07:00 3.50 942 3800 (2013) 152 (2000) 725 154 196 271 287 489 882 1110 1280 3670
2020-06-03 06:00 3.52 955 3800 (2013) 152 (2000) 725 154 196 271 287 489 882 1110 1280 3670
2020-06-03 05:00 3.61 1010 3800 (2013) 152 (2000) 725 154 196 271 287 489 882 1110 1280 3670
2020-06-03 04:00 3.60 1010 3800 (2013) 152 (2000) 725 154 196 271 287 489 882 1110 1280 3670
2020-06-03 03:00 3.58 994 3800 (2013) 152 (2000) 725 154 196 271 287 489 882 1110 1280 3670
2020-06-03 02:00 3.59 1000 3800 (2013) 152 (2000) 725 154 196 271 287 489 882 1110 1280 3670
2020-06-03 01:00 3.58 994 3800 (2013) 152 (2000) 725 154 196 271 287 489 882 1110 1280 3670
2020-06-03 00:00 3.58 994 3800 (2013) 152 (2000) 725 154 196 271 287 489 882 1110 1280 3670
2020-06-02 23:00 3.57 987 16000 (2013) 156 (2000) 1330 158 198 247 272 482 718 992 1680 15300
2020-06-02 22:00 3.59 1000 16000 (2013) 156 (2000) 1330 158 198 247 272 482 718 992 1680 15300
2020-06-02 21:00 3.62 1020 16000 (2013) 156 (2000) 1330 158 198 247 272 482 718 992 1680 15300
2020-06-02 20:00 3.56 981 16000 (2013) 156 (2000) 1330 158 198 247 272 482 718 992 1680 15300
2020-06-02 19:00 3.61 1010 16000 (2013) 156 (2000) 1330 158 198 247 272 482 718 992 1680 15300
2020-06-02 18:00 3.64 1030 16000 (2013) 156 (2000) 1330 158 198 247 272 482 718 992 1680 15300
2020-06-02 17:00 3.65 1040 16000 (2013) 156 (2000) 1330 158 198 247 272 482 718 992 1680 15300
2020-06-02 16:00 3.63 1030 16000 (2013) 156 (2000) 1330 158 198 247 272 482 718 992 1680 15300
2020-06-02 15:00 3.65 1040 16000 (2013) 156 (2000) 1330 158 198 247 272 482 718 992 1680 15300
2020-06-02 14:00 3.61 1010 16000 (2013) 156 (2000) 1330 158 198 247 272 482 718 992 1680 15300
2020-06-02 13:00 3.67 1050 16000 (2013) 156 (2000) 1330 158 198 247 272 482 718 992 1680 15300
2020-06-02 12:00 3.66 1050 16000 (2013) 156 (2000) 1330 158 198 247 272 482 718 992 1680 15300
2020-06-02 11:00 3.72 1090 16000 (2013) 156 (2000) 1330 158 198 247 272 482 718 992 1680 15300
2020-06-02 10:00 3.66 1050 16000 (2013) 156 (2000) 1330 158 198 247 272 482 718 992 1680 15300
2020-06-02 09:00 3.67 1050 16000 (2013) 156 (2000) 1330 158 198 247 272 482 718 992 1680 15300
2020-06-02 08:00 3.70 1080 16000 (2013) 156 (2000) 1330 158 198 247 272 482 718 992 1680 15300
2020-06-02 07:00 3.69 1070 16000 (2013) 156 (2000) 1330 158 198 247 272 482 718 992 1680 15300
2020-06-02 06:00 3.72 1090 16000 (2013) 156 (2000) 1330 158 198 247 272 482 718 992 1680 15300
2020-06-02 05:00 3.73 1100 16000 (2013) 156 (2000) 1330 158 198 247 272 482 718 992 1680 15300
2020-06-02 04:00 3.77 1130 16000 (2013) 156 (2000) 1330 158 198 247 272 482 718 992 1680 15300
2020-06-02 03:00 3.71 1080 16000 (2013) 156 (2000) 1330 158 198 247 272 482 718 992 1680 15300
2020-06-02 02:00 3.74 1100 16000 (2013) 156 (2000) 1330 158 198 247 272 482 718 992 1680 15300
2020-06-02 01:00 3.74 1100 16000 (2013) 156 (2000) 1330 158 198 247 272 482 718 992 1680 15300
2020-06-02 00:00 3.75 1110 16000 (2013) 156 (2000) 1330 158 198 247 272 482 718 992 1680 15300
2020-06-01 23:00 3.74 1100 4120 (2013) 160 (2000) 816 162 191 222 258 510 788 1130 2500 4040
2020-06-01 22:00 3.81 1150 4120 (2013) 160 (2000) 816 162 191 222 258 510 788 1130 2500 4040
2020-06-01 21:00 3.79 1140 4120 (2013) 160 (2000) 816 162 191 222 258 510 788 1130 2500 4040
2020-06-01 20:00 3.77 1130 4120 (2013) 160 (2000) 816 162 191 222 258 510 788 1130 2500 4040
2020-06-01 19:00 3.74 1100 4120 (2013) 160 (2000) 816 162 191 222 258 510 788 1130 2500 4040
2020-06-01 18:00 3.76 1120 4120 (2013) 160 (2000) 816 162 191 222 258 510 788 1130 2500 4040
2020-06-01 17:00 3.80 1150 4120 (2013) 160 (2000) 816 162 191 222 258 510 788 1130 2500 4040
2020-06-01 16:00 3.87 1200 4120 (2013) 160 (2000) 816 162 191 222 258 510 788 1130 2500 4040
2020-06-01 15:00 3.81 1150 4120 (2013) 160 (2000) 816 162 191 222 258 510 788 1130 2500 4040
2020-06-01 14:00 3.78 1130 4120 (2013) 160 (2000) 816 162 191 222 258 510 788 1130 2500 4040
2020-06-01 13:00 3.84 1180 4120 (2013) 160 (2000) 816 162 191 222 258 510 788 1130 2500 4040
2020-06-01 12:00 3.86 1190 4120 (2013) 160 (2000) 816 162 191 222 258 510 788 1130 2500 4040
2020-06-01 11:00 3.88 1210 4120 (2013) 160 (2000) 816 162 191 222 258 510 788 1130 2500 4040
2020-06-01 10:00 3.91 1230 4120 (2013) 160 (2000) 816 162 191 222 258 510 788 1130 2500 4040
2020-06-01 09:00 3.83 1170 4120 (2013) 160 (2000) 816 162 191 222 258 510 788 1130 2500 4040
2020-06-01 08:00 3.86 1190 4120 (2013) 160 (2000) 816 162 191 222 258 510 788 1130 2500 4040
2020-06-01 07:00 3.91 1230 4120 (2013) 160 (2000) 816 162 191 222 258 510 788 1130 2500 4040
2020-06-01 05:30 3.92 1240 4120 (2013) 160 (2000) 816 162 191 222 258 510 788 1130 2500 4040
2020-06-01 05:00 3.95 1260 4120 (2013) 160 (2000) 816 162 191 222 258 510 788 1130 2500 4040
2020-06-01 04:00 3.94 1250 4120 (2013) 160 (2000) 816 162 191 222 258 510 788 1130 2500 4040
2020-06-01 03:00 3.94 1250 4120 (2013) 160 (2000) 816 162 191 222 258 510 788 1130 2500 4040
2020-06-01 02:00 3.93 1250 4120 (2013) 160 (2000) 816 162 191 222 258 510 788 1130 2500 4040
2020-06-01 01:00 3.95 1260 4120 (2013) 160 (2000) 816 162 191 222 258 510 788 1130 2500 4040
2020-06-01 00:00 3.94 1250 4120 (2013) 160 (2000) 816 162 191 222 258 510 788 1130 2500 4040
2020-05-31 23:00 3.95 1260 4990 (2015) 170 (2000) 831 171 200 222 271 555 913 1040 1800 4830
2020-05-31 22:00 4.02 1320 4990 (2015) 170 (2000) 831 171 200 222 271 555 913 1040 1800 4830
2020-05-31 21:00 4.10 1390 4990 (2015) 170 (2000) 831 171 200 222 271 555 913 1040 1800 4830
2020-05-31 20:00 4.02 1320 4990 (2015) 170 (2000) 831 171 200 222 271 555 913 1040 1800 4830
2020-05-31 19:00 4.03 1330 4990 (2015) 170 (2000) 831 171 200 222 271 555 913 1040 1800 4830
2020-05-31 18:00 4.05 1340 4990 (2015) 170 (2000) 831 171 200 222 271 555 913 1040 1800 4830
2020-05-31 17:00 4.09 1380 4990 (2015) 170 (2000) 831 171 200 222 271 555 913 1040 1800 4830
2020-05-31 16:00 4.06 1350 4990 (2015) 170 (2000) 831 171 200 222 271 555 913 1040 1800 4830
2020-05-31 15:00 4.15 1420 4990 (2015) 170 (2000) 831 171 200 222 271 555 913 1040 1800 4830
2020-05-31 14:00 4.13 1400 4990 (2015) 170 (2000) 831 171 200 222 271 555 913 1040 1800 4830
2020-05-31 13:00 4.05 1340 4990 (2015) 170 (2000) 831 171 200 222 271 555 913 1040 1800 4830
2020-05-31 12:00 4.17 1440 4990 (2015) 170 (2000) 831 171 200 222 271 555 913 1040 1800 4830
2020-05-31 11:00 4.13 1400 4990 (2015) 170 (2000) 831 171 200 222 271 555 913 1040 1800 4830
2020-05-31 10:00 4.18 1450 4990 (2015) 170 (2000) 831 171 200 222 271 555 913 1040 1800 4830
2020-05-31 09:00 4.15 1420 4990 (2015) 170 (2000) 831 171 200 222 271 555 913 1040 1800 4830
2020-05-31 08:00 4.21 1480 4990 (2015) 170 (2000) 831 171 200 222 271 555 913 1040 1800 4830
2020-05-31 07:00 4.26 1520 4990 (2015) 170 (2000) 831 171 200 222 271 555 913 1040 1800 4830
2020-05-31 06:00 4.30 1560 4990 (2015) 170 (2000) 831 171 200 222 271 555 913 1040 1800 4830
2020-05-31 05:00 4.33 1590 4990 (2015) 170 (2000) 831 171 200 222 271 555 913 1040 1800 4830
2020-05-31 04:00 4.33 1590 4990 (2015) 170 (2000) 831 171 200 222 271 555 913 1040 1800 4830
2020-05-31 03:00 4.37 1620 4990 (2015) 170 (2000) 831 171 200 222 271 555 913 1040 1800 4830
2020-05-31 02:00 4.38 1630 4990 (2015) 170 (2000) 831 171 200 222 271 555 913 1040 1800 4830
2020-05-31 01:00 4.41 1660 4990 (2015) 170 (2000) 831 171 200 222 271 555 913 1040 1800 4830
2020-05-31 00:00 4.41 1660 4990 (2015) 170 (2000) 831 171 200 222 271 555 913 1040 1800 4830
2020-05-30 23:00 4.45 1700 2390 (2015) 178 (2000) 697 179 202 228 286 538 873 1160 1770 2360
2020-05-30 22:00 4.47 1720 2390 (2015) 178 (2000) 697 179 202 228 286 538 873 1160 1770 2360
2020-05-30 21:00 4.49 1740 2390 (2015) 178 (2000) 697 179 202 228 286 538 873 1160 1770 2360
2020-05-30 20:00 4.52 1770 2390 (2015) 178 (2000) 697 179 202 228 286 538 873 1160 1770 2360
2020-05-30 19:00 4.52 1770 2390 (2015) 178 (2000) 697 179 202 228 286 538 873 1160 1770 2360
2020-05-30 18:00 4.55 1810 2390 (2015) 178 (2000) 697 179 202 228 286 538 873 1160 1770 2360
2020-05-30 17:00 4.55 1810 2390 (2015) 178 (2000) 697 179 202 228 286 538 873 1160 1770 2360
2020-05-30 16:00 4.62 1870 2390 (2015) 178 (2000) 697 179 202 228 286 538 873 1160 1770 2360
2020-05-30 15:00 4.61 1860 2390 (2015) 178 (2000) 697 179 202 228 286 538 873 1160 1770 2360
2020-05-30 14:00 4.65 1900 2390 (2015) 178 (2000) 697 179 202 228 286 538 873 1160 1770 2360
2020-05-30 13:00 4.65 1900 2390 (2015) 178 (2000) 697 179 202 228 286 538 873 1160 1770 2360
2020-05-30 12:00 4.70 1960 2390 (2015) 178 (2000) 697 179 202 228 286 538 873 1160 1770 2360
2020-05-30 11:00 4.75 2010 2390 (2015) 178 (2000) 697 179 202 228 286 538 873 1160 1770 2360
2020-05-30 10:00 4.76 2020 2390 (2015) 178 (2000) 697 179 202 228 286 538 873 1160 1770 2360
2020-05-30 09:00 4.79 2060 2390 (2015) 178 (2000) 697 179 202 228 286 538 873 1160 1770 2360
2020-05-30 08:00 4.84 2100 2390 (2015) 178 (2000) 697 179 202 228 286 538 873 1160 1770 2360
2020-05-30 07:00 4.84 2100 2390 (2015) 178 (2000) 697 179 202 228 286 538 873 1160 1770 2360
2020-05-30 06:00 4.86 2120 2390 (2015) 178 (2000) 697 179 202 228 286 538 873 1160 1770 2360
2020-05-30 05:00 4.91 2180 2390 (2015) 178 (2000) 697 179 202 228 286 538 873 1160 1770 2360
2020-05-30 04:00 4.94 2210 2390 (2015) 178 (2000) 697 179 202 228 286 538 873 1160 1770 2360
2020-05-30 03:00 4.98 2260 2390 (2015) 178 (2000) 697 179 202 228 286 538 873 1160 1770 2360
2020-05-30 02:00 5.01 2290 2390 (2015) 178 (2000) 697 179 202 228 286 538 873 1160 1770 2360
2020-05-30 01:00 5.04 2310 2390 (2015) 178 (2000) 697 179 202 228 286 538 873 1160 1770 2360
2020-05-30 00:00 5.09 2370 2390 (2015) 178 (2000) 697 179 202 228 286 538 873 1160 1770 2360
2020-05-29 23:00 5.13 2420 2240 (2011) 164 (2000) 748 166 204 244 298 652 807 964 2120 2230
2020-05-29 22:00 5.15 2440 2240 (2011) 164 (2000) 748 166 204 244 298 652 807 964 2120 2230
2020-05-29 21:00 5.18 2470 2240 (2011) 164 (2000) 748 166 204 244 298 652 807 964 2120 2230
2020-05-29 20:00 5.21 2500 2240 (2011) 164 (2000) 748 166 204 244 298 652 807 964 2120 2230
2020-05-29 19:00 5.26 2530 2240 (2011) 164 (2000) 748 166 204 244 298 652 807 964 2120 2230
2020-05-29 18:00 5.28 2550 2240 (2011) 164 (2000) 748 166 204 244 298 652 807 964 2120 2230
2020-05-29 17:00 5.35 2620 2240 (2011) 164 (2000) 748 166 204 244 298 652 807 964 2120 2230
2020-05-29 16:00 5.36 2630 2240 (2011) 164 (2000) 748 166 204 244 298 652 807 964 2120 2230
2020-05-29 15:00 5.42 2680 2240 (2011) 164 (2000) 748 166 204 244 298 652 807 964 2120 2230
2020-05-29 14:00 5.42 2680 2240 (2011) 164 (2000) 748 166 204 244 298 652 807 964 2120 2230
2020-05-29 13:00 5.51 2760 2240 (2011) 164 (2000) 748 166 204 244 298 652 807 964 2120 2230
2020-05-29 12:00 5.57 2820 2240 (2011) 164 (2000) 748 166 204 244 298 652 807 964 2120 2230
2020-05-29 11:00 5.57 2820 2240 (2011) 164 (2000) 748 166 204 244 298 652 807 964 2120 2230
2020-05-29 10:00 5.66 2910 2240 (2011) 164 (2000) 748 166 204 244 298 652 807 964 2120 2230
2020-05-29 09:00 5.67 2920 2240 (2011) 164 (2000) 748 166 204 244 298 652 807 964 2120 2230
2020-05-29 08:00 5.72 2960 2240 (2011) 164 (2000) 748 166 204 244 298 652 807 964 2120 2230
2020-05-29 07:00 5.82 3050 2240 (2011) 164 (2000) 748 166 204 244 298 652 807 964 2120 2230
2020-05-29 06:00 5.87 3090 2240 (2011) 164 (2000) 748 166 204 244 298 652 807 964 2120 2230
2020-05-29 05:00 5.97 3170 2240 (2011) 164 (2000) 748 166 204 244 298 652 807 964 2120 2230
2020-05-29 04:00 6.01 3210 2240 (2011) 164 (2000) 748 166 204 244 298 652 807 964 2120 2230
2020-05-29 03:00 6.07 3270 2240 (2011) 164 (2000) 748 166 204 244 298 652 807 964 2120 2230
2020-05-29 02:00 6.14 3330 2240 (2011) 164 (2000) 748 166 204 244 298 652 807 964 2120 2230
2020-05-29 01:00 6.28 3460 2240 (2011) 164 (2000) 748 166 204 244 298 652 807 964 2120 2230
2020-05-29 00:00 6.39 3560 2240 (2011) 164 (2000) 748 166 204 244 298 652 807 964 2120 2230
2020-05-28 23:00 6.51 3670 2750 (2011) 165 (2000) 742 167 197 239 303 512 892 1090 1920 2710
2020-05-28 22:00 6.57 3730 2750 (2011) 165 (2000) 742 167 197 239 303 512 892 1090 1920 2710
2020-05-28 21:00 6.52 3680 2750 (2011) 165 (2000) 742 167 197 239 303 512 892 1090 1920 2710
2020-05-28 20:00 6.52 3680 2750 (2011) 165 (2000) 742 167 197 239 303 512 892 1090 1920 2710
2020-05-28 19:00 6.59 3750 2750 (2011) 165 (2000) 742 167 197 239 303 512 892 1090 1920 2710
2020-05-28 18:00 6.70 3850 2750 (2011) 165 (2000) 742 167 197 239 303 512 892 1090 1920 2710
2020-05-28 17:00 6.79 3940 2750 (2011) 165 (2000) 742 167 197 239 303 512 892 1090 1920 2710
2020-05-28 16:00 6.86 4010 2750 (2011) 165 (2000) 742 167 197 239 303 512 892 1090 1920 2710
2020-05-28 15:00 6.84 3990 2750 (2011) 165 (2000) 742 167 197 239 303 512 892 1090 1920 2710
2020-05-28 14:00 6.83 3980 2750 (2011) 165 (2000) 742 167 197 239 303 512 892 1090 1920 2710
2020-05-28 13:00 6.66 3810 2750 (2011) 165 (2000) 742 167 197 239 303 512 892 1090 1920 2710
2020-05-28 12:00 6.58 3740 2750 (2011) 165 (2000) 742 167 197 239 303 512 892 1090 1920 2710
2020-05-28 11:00 6.59 3750 2750 (2011) 165 (2000) 742 167 197 239 303 512 892 1090 1920 2710
2020-05-28 10:00 6.50 3660 2750 (2011) 165 (2000) 742 167 197 239 303 512 892 1090 1920 2710
2020-05-28 09:00 6.45 3610 2750 (2011) 165 (2000) 742 167 197 239 303 512 892 1090 1920 2710
2020-05-28 08:00 6.28 3460 2750 (2011) 165 (2000) 742 167 197 239 303 512 892 1090 1920 2710
2020-05-28 07:00 6.01 3210 2750 (2011) 165 (2000) 742 167 197 239 303 512 892 1090 1920 2710
2020-05-28 06:00 5.78 3010 2750 (2011) 165 (2000) 742 167 197 239 303 512 892 1090 1920 2710
2020-05-28 05:00 5.54 2790 2750 (2011) 165 (2000) 742 167 197 239 303 512 892 1090 1920 2710
2020-05-28 04:00 5.44 2700 2750 (2011) 165 (2000) 742 167 197 239 303 512 892 1090 1920 2710
2020-05-28 03:00 5.41 2670 2750 (2011) 165 (2000) 742 167 197 239 303 512 892 1090 1920 2710
2020-05-28 02:00 5.41 2670 2750 (2011) 165 (2000) 742 167 197 239 303 512 892 1090 1920 2710
2020-05-28 01:00 5.42 2680 2750 (2011) 165 (2000) 742 167 197 239 303 512 892 1090 1920 2710
2020-05-28 00:00 5.45 2710 2750 (2011) 165 (2000) 742 167 197 239 303 512 892 1090 1920 2710
2020-05-27 23:00 5.44 2700 3710 (2011) 167 (2000) 734 169 202 248 306 507 813 1020 1310 3590
2020-05-27 22:00 5.46 2720 3710 (2011) 167 (2000) 734 169 202 248 306 507 813 1020 1310 3590
2020-05-27 21:00 5.55 2800 3710 (2011) 167 (2000) 734 169 202 248 306 507 813 1020 1310 3590
2020-05-27 20:00 5.69 2940 3710 (2011) 167 (2000) 734 169 202 248 306 507 813 1020 1310 3590
2020-05-27 19:00 5.80 3030 3710 (2011) 167 (2000) 734 169 202 248 306 507 813 1020 1310 3590
2020-05-27 18:00 5.79 3020 3710 (2011) 167 (2000) 734 169 202 248 306 507 813 1020 1310 3590
2020-05-27 17:00 5.55 2800 3710 (2011) 167 (2000) 734 169 202 248 306 507 813 1020 1310 3590
2020-05-27 16:00 5.05 2330 3710 (2011) 167 (2000) 734 169 202 248 306 507 813 1020 1310 3590
2020-05-27 15:00 4.67 1930 3710 (2011) 167 (2000) 734 169 202 248 306 507 813 1020 1310 3590
2020-05-27 14:00 4.36 1610 3710 (2011) 167 (2000) 734 169 202 248 306 507 813 1020 1310 3590
2020-05-27 13:00 4.21 1480 3710 (2011) 167 (2000) 734 169 202 248 306 507 813 1020 1310 3590
2020-05-27 12:00 4.17 1440 3710 (2011) 167 (2000) 734 169 202 248 306 507 813 1020 1310 3590
2020-05-27 11:00 4.13 1400 3710 (2011) 167 (2000) 734 169 202 248 306 507 813 1020 1310 3590
2020-05-27 10:00 4.12 1400 3710 (2011) 167 (2000) 734 169 202 248 306 507 813 1020 1310 3590
2020-05-27 09:00 4.10 1390 3710 (2011) 167 (2000) 734 169 202 248 306 507 813 1020 1310 3590
2020-05-27 08:00 4.12 1400 3710 (2011) 167 (2000) 734 169 202 248 306 507 813 1020 1310 3590
2020-05-27 07:00 4.12 1400 3710 (2011) 167 (2000) 734 169 202 248 306 507 813 1020 1310 3590
2020-05-27 05:30 4.14 1410 3710 (2011) 167 (2000) 734 169 202 248 306 507 813 1020 1310 3590
2020-05-27 05:00 4.14 1410 3710 (2011) 167 (2000) 734 169 202 248 306 507 813 1020 1310 3590
2020-05-27 04:00 4.14 1410 3710 (2011) 167 (2000) 734 169 202 248 306 507 813 1020 1310 3590
2020-05-27 03:00 4.13 1400 3710 (2011) 167 (2000) 734 169 202 248 306 507 813 1020 1310 3590
2020-05-27 02:00 4.15 1420 3710 (2011) 167 (2000) 734 169 202 248 306 507 813 1020 1310 3590
2020-05-27 01:00 4.15 1420 3710 (2011) 167 (2000) 734 169 202 248 306 507 813 1020 1310 3590
2020-05-27 00:00 4.16 1430 3710 (2011) 167 (2000) 734 169 202 248 306 507 813 1020 1310 3590
2020-05-26 23:00 4.17 1440 5410 (2011) 150 (2000) 831 153 206 272 313 478 903 922 1560 5220
2020-05-26 22:00 4.16 1430 5410 (2011) 150 (2000) 831 153 206 272 313 478 903 922 1560 5220
2020-05-26 21:00 4.17 1440 5410 (2011) 150 (2000) 831 153 206 272 313 478 903 922 1560 5220
2020-05-26 20:00 4.20 1470 5410 (2011) 150 (2000) 831 153 206 272 313 478 903 922 1560 5220
2020-05-26 19:00 4.19 1460 5410 (2011) 150 (2000) 831 153 206 272 313 478 903 922 1560 5220
2020-05-26 18:00 4.22 1490 5410 (2011) 150 (2000) 831 153 206 272 313 478 903 922 1560 5220
2020-05-26 17:00 4.21 1480 5410 (2011) 150 (2000) 831 153 206 272 313 478 903 922 1560 5220
2020-05-26 15:00 4.25 1510 5410 (2011) 150 (2000) 831 153 206 272 313 478 903 922 1560 5220
2020-05-26 14:00 4.28 1540 5410 (2011) 150 (2000) 831 153 206 272 313 478 903 922 1560 5220
2020-05-26 13:00 4.27 1530 5410 (2011) 150 (2000) 831 153 206 272 313 478 903 922 1560 5220
2020-05-26 12:00 4.30 1560 5410 (2011) 150 (2000) 831 153 206 272 313 478 903 922 1560 5220
2020-05-26 11:00 4.31 1570 5410 (2011) 150 (2000) 831 153 206 272 313 478 903 922 1560 5220
2020-05-26 10:00 4.35 1600 5410 (2011) 150 (2000) 831 153 206 272 313 478 903 922 1560 5220
2020-05-26 09:00 4.36 1610 5410 (2011) 150 (2000) 831 153 206 272 313 478 903 922 1560 5220
2020-05-26 08:00 4.40 1650 5410 (2011) 150 (2000) 831 153 206 272 313 478 903 922 1560 5220
2020-05-26 07:00 4.40 1650 5410 (2011) 150 (2000) 831 153 206 272 313 478 903 922 1560 5220
2020-05-26 06:00 4.42 1670 5410 (2011) 150 (2000) 831 153 206 272 313 478 903 922 1560 5220
2020-05-26 05:00 4.44 1690 5410 (2011) 150 (2000) 831 153 206 272 313 478 903 922 1560 5220
2020-05-26 04:00 4.46 1710 5410 (2011) 150 (2000) 831 153 206 272 313 478 903 922 1560 5220
2020-05-26 03:00 4.44 1690 5410 (2011) 150 (2000) 831 153 206 272 313 478 903 922 1560 5220
2020-05-26 02:00 4.46 1710 5410 (2011) 150 (2000) 831 153 206 272 313 478 903 922 1560 5220
2020-05-26 01:00 4.44 1690 5410 (2011) 150 (2000) 831 153 206 272 313 478 903 922 1560 5220
2020-05-26 00:00 4.37 1620 5410 (2011) 150 (2000) 831 153 206 272 313 478 903 922 1560 5220
2020-05-25 23:00 4.33 1590 3600 (2011) 146 (2000) 796 149 211 295 319 531 920 1040 2050 3530
2020-05-25 22:00 4.27 1530 3600 (2011) 146 (2000) 796 149 211 295 319 531 920 1040 2050 3530
2020-05-25 21:00 4.24 1510 3600 (2011) 146 (2000) 796 149 211 295 319 531 920 1040 2050 3530
2020-05-25 20:00 4.21 1480 3600 (2011) 146 (2000) 796 149 211 295 319 531 920 1040 2050 3530
2020-05-25 19:00 4.19 1460 3600 (2011) 146 (2000) 796 149 211 295 319 531 920 1040 2050 3530
2020-05-25 18:00 4.19 1460 3600 (2011) 146 (2000) 796 149 211 295 319 531 920 1040 2050 3530
2020-05-25 17:00 4.20 1470 3600 (2011) 146 (2000) 796 149 211 295 319 531 920 1040 2050 3530
2020-05-25 16:00 4.20 1470 3600 (2011) 146 (2000) 796 149 211 295 319 531 920 1040 2050 3530
2020-05-25 15:00 4.20 1470 3600 (2011) 146 (2000) 796 149 211 295 319 531 920 1040 2050 3530
2020-05-25 14:00 4.21 1480 3600 (2011) 146 (2000) 796 149 211 295 319 531 920 1040 2050 3530
2020-05-25 13:00 4.22 1490 3600 (2011) 146 (2000) 796 149 211 295 319 531 920 1040 2050 3530
2020-05-25 12:00 4.22 1490 3600 (2011) 146 (2000) 796 149 211 295 319 531 920 1040 2050 3530
2020-05-25 11:00 4.23 1500 3600 (2011) 146 (2000) 796 149 211 295 319 531 920 1040 2050 3530
2020-05-25 10:00 4.24 1510 3600 (2011) 146 (2000) 796 149 211 295 319 531 920 1040 2050 3530
2020-05-25 09:00 4.26 1520 3600 (2011) 146 (2000) 796 149 211 295 319 531 920 1040 2050 3530
2020-05-25 08:00 4.28 1540 3600 (2011) 146 (2000) 796 149 211 295 319 531 920 1040 2050 3530
2020-05-25 07:00 4.27 1530 3600 (2011) 146 (2000) 796 149 211 295 319 531 920 1040 2050 3530
2020-05-25 06:00 4.29 1550 3600 (2011) 146 (2000) 796 149 211 295 319 531 920 1040 2050 3530
2020-05-25 05:00 4.31 1570 3600 (2011) 146 (2000) 796 149 211 295 319 531 920 1040 2050 3530
2020-05-25 04:00 4.30 1560 3600 (2011) 146 (2000) 796 149 211 295 319 531 920 1040 2050 3530
2020-05-25 03:00 4.31 1570 3600 (2011) 146 (2000) 796 149 211 295 319 531 920 1040 2050 3530
2020-05-25 02:00 4.32 1580 3600 (2011) 146 (2000) 796 149 211 295 319 531 920 1040 2050 3530
2020-05-25 01:00 4.35 1600 3600 (2011) 146 (2000) 796 149 211 295 319 531 920 1040 2050 3530
2020-05-25 00:00 4.37 1620 3600 (2011) 146 (2000) 796 149 211 295 319 531 920 1040 2050 3530
2020-05-24 23:00 4.38 1630 2890 (2019) 146 (2000) 839 149 212 312 373 509 999 1310 2670 2880
2020-05-24 22:00 4.41 1660 2890 (2019) 146 (2000) 839 149 212 312 373 509 999 1310 2670 2880
2020-05-24 21:00 4.40 1650 2890 (2019) 146 (2000) 839 149 212 312 373 509 999 1310 2670 2880
2020-05-24 20:00 4.44 1690 2890 (2019) 146 (2000) 839 149 212 312 373 509 999 1310 2670 2880
2020-05-24 19:00 4.43 1680 2890 (2019) 146 (2000) 839 149 212 312 373 509 999 1310 2670 2880
2020-05-24 18:00 4.47 1720 2890 (2019) 146 (2000) 839 149 212 312 373 509 999 1310 2670 2880
2020-05-24 17:00 4.48 1730 2890 (2019) 146 (2000) 839 149 212 312 373 509 999 1310 2670 2880
2020-05-24 16:00 4.48 1730 2890 (2019) 146 (2000) 839 149 212 312 373 509 999 1310 2670 2880
2020-05-24 15:00 4.52 1770 2890 (2019) 146 (2000) 839 149 212 312 373 509 999 1310 2670 2880
2020-05-24 14:00 4.53 1780 2890 (2019) 146 (2000) 839 149 212 312 373 509 999 1310 2670 2880
2020-05-24 13:00 4.56 1820 2890 (2019) 146 (2000) 839 149 212 312 373 509 999 1310 2670 2880
2020-05-24 12:00 4.61 1860 2890 (2019) 146 (2000) 839 149 212 312 373 509 999 1310 2670 2880
2020-05-24 11:00 4.61 1860 2890 (2019) 146 (2000) 839 149 212 312 373 509 999 1310 2670 2880
2020-05-24 10:00 4.62 1870 2890 (2019) 146 (2000) 839 149 212 312 373 509 999 1310 2670 2880
2020-05-24 09:00 4.64 1890 2890 (2019) 146 (2000) 839 149 212 312 373 509 999 1310 2670 2880
2020-05-24 08:00 4.68 1940 2890 (2019) 146 (2000) 839 149 212 312 373 509 999 1310 2670 2880
2020-05-24 07:00 4.70 1960 2890 (2019) 146 (2000) 839 149 212 312 373 509 999 1310 2670 2880
2020-05-24 06:00 4.72 1980 2890 (2019) 146 (2000) 839 149 212 312 373 509 999 1310 2670 2880
2020-05-24 05:00 4.75 2010 2890 (2019) 146 (2000) 839 149 212 312 373 509 999 1310 2670 2880
2020-05-24 04:00 4.77 2030 2890 (2019) 146 (2000) 839 149 212 312 373 509 999 1310 2670 2880
2020-05-24 03:00 4.81 2070 2890 (2019) 146 (2000) 839 149 212 312 373 509 999 1310 2670 2880
2020-05-24 02:00 4.85 2110 2890 (2019) 146 (2000) 839 149 212 312 373 509 999 1310 2670 2880
2020-05-24 01:00 4.86 2120 2890 (2019) 146 (2000) 839 149 212 312 373 509 999 1310 2670 2880
2020-05-24 00:00 4.91 2180 2890 (2019) 146 (2000) 839 149 212 312 373 509 999 1310 2670 2880
2020-05-23 23:00 4.91 2180 4400 (2019) 149 (2000) 953 152 214 331 406 519 1150 1510 2290 4300
2020-05-23 22:00 4.93 2200 4400 (2019) 149 (2000) 953 152 214 331 406 519 1150 1510 2290 4300
2020-05-23 21:00 4.94 2210 4400 (2019) 149 (2000) 953 152 214 331 406 519 1150 1510 2290 4300
2020-05-23 20:00 4.94 2210 4400 (2019) 149 (2000) 953 152 214 331 406 519 1150 1510 2290 4300
2020-05-23 19:00 4.93 2200 4400 (2019) 149 (2000) 953 152 214 331 406 519 1150 1510 2290 4300
2020-05-23 18:00 4.90 2170 4400 (2019) 149 (2000) 953 152 214 331 406 519 1150 1510 2290 4300
2020-05-23 17:00 4.86 2120 4400 (2019) 149 (2000) 953 152 214 331 406 519 1150 1510 2290 4300
2020-05-23 16:00 4.77 2030 4400 (2019) 149 (2000) 953 152 214 331 406 519 1150 1510 2290 4300
2020-05-23 15:00 4.69 1950 4400 (2019) 149 (2000) 953 152 214 331 406 519 1150 1510 2290 4300
2020-05-23 14:00 4.62 1870 4400 (2019) 149 (2000) 953 152 214 331 406 519 1150 1510 2290 4300
2020-05-23 13:00 4.56 1820 4400 (2019) 149 (2000) 953 152 214 331 406 519 1150 1510 2290 4300
2020-05-23 12:00 4.52 1770 4400 (2019) 149 (2000) 953 152 214 331 406 519 1150 1510 2290 4300
2020-05-23 11:00 4.51 1760 4400 (2019) 149 (2000) 953 152 214 331 406 519 1150 1510 2290 4300
2020-05-23 10:00 4.49 1740 4400 (2019) 149 (2000) 953 152 214 331 406 519 1150 1510 2290 4300
2020-05-23 09:00 4.50 1750 4400 (2019) 149 (2000) 953 152 214 331 406 519 1150 1510 2290 4300
2020-05-23 08:00 4.49 1740 4400 (2019) 149 (2000) 953 152 214 331 406 519 1150 1510 2290 4300
2020-05-23 07:00 4.49 1740 4400 (2019) 149 (2000) 953 152 214 331 406 519 1150 1510 2290 4300
2020-05-23 06:00 4.49 1740 4400 (2019) 149 (2000) 953 152 214 331 406 519 1150 1510 2290 4300
2020-05-23 05:00 4.49 1740 4400 (2019) 149 (2000) 953 152 214 331 406 519 1150 1510 2290 4300
2020-05-23 04:00 4.49 1740 4400 (2019) 149 (2000) 953 152 214 331 406 519 1150 1510 2290 4300
2020-05-23 03:00 4.49 1740 4400 (2019) 149 (2000) 953 152 214 331 406 519 1150 1510 2290 4300
2020-05-23 02:00 4.50 1750 4400 (2019) 149 (2000) 953 152 214 331 406 519 1150 1510 2290 4300
2020-05-23 01:00 4.51 1760 4400 (2019) 149 (2000) 953 152 214 331 406 519 1150 1510 2290 4300
2020-05-23 00:00 4.51 1760 4400 (2019) 149 (2000) 953 152 214 331 406 519 1150 1510 2290 4300
2020-05-22 23:00 4.51 1760 11300 (2019) 152 (2000) 1550 155 215 347 416 565 1540 1900 4210 10900
2020-05-22 22:00 4.51 1760 11300 (2019) 152 (2000) 1550 155 215 347 416 565 1540 1900 4210 10900
2020-05-22 21:00 4.54 1790 11300 (2019) 152 (2000) 1550 155 215 347 416 565 1540 1900 4210 10900
2020-05-22 20:00 4.54 1790 11300 (2019) 152 (2000) 1550 155 215 347 416 565 1540 1900 4210 10900
2020-05-22 19:00 4.55 1810 11300 (2019) 152 (2000) 1550 155 215 347 416 565 1540 1900 4210 10900
2020-05-22 18:00 4.55 1810 11300 (2019) 152 (2000) 1550 155 215 347 416 565 1540 1900 4210 10900
2020-05-22 17:00 4.58 1830 11300 (2019) 152 (2000) 1550 155 215 347 416 565 1540 1900 4210 10900
2020-05-22 16:00 4.59 1840 11300 (2019) 152 (2000) 1550 155 215 347 416 565 1540 1900 4210 10900
2020-05-22 15:00 4.60 1850 11300 (2019) 152 (2000) 1550 155 215 347 416 565 1540 1900 4210 10900
2020-05-22 14:00 4.60 1850 11300 (2019) 152 (2000) 1550 155 215 347 416 565 1540 1900 4210 10900
2020-05-22 13:00 4.63 1880 11300 (2019) 152 (2000) 1550 155 215 347 416 565 1540 1900 4210 10900
2020-05-22 12:00 4.61 1860 11300 (2019) 152 (2000) 1550 155 215 347 416 565 1540 1900 4210 10900
2020-05-22 11:00 4.65 1900 11300 (2019) 152 (2000) 1550 155 215 347 416 565 1540 1900 4210 10900
2020-05-22 10:00 4.65 1900 11300 (2019) 152 (2000) 1550 155 215 347 416 565 1540 1900 4210 10900
2020-05-22 09:00 4.68 1940 11300 (2019) 152 (2000) 1550 155 215 347 416 565 1540 1900 4210 10900
2020-05-22 08:00 4.67 1930 11300 (2019) 152 (2000) 1550 155 215 347 416 565 1540 1900 4210 10900
2020-05-22 07:00 4.70 1960 11300 (2019) 152 (2000) 1550 155 215 347 416 565 1540 1900 4210 10900
2020-05-22 06:00 4.72 1980 11300 (2019) 152 (2000) 1550 155 215 347 416 565 1540 1900 4210 10900
2020-05-22 05:00 4.71 1970 11300 (2019) 152 (2000) 1550 155 215 347 416 565 1540 1900 4210 10900
2020-05-22 04:00 4.74 2000 11300 (2019) 152 (2000) 1550 155 215 347 416 565 1540 1900 4210 10900
2020-05-22 03:00 4.75 2010 11300 (2019) 152 (2000) 1550 155 215 347 416 565 1540 1900 4210 10900
2020-05-22 02:00 4.78 2050 11300 (2019) 152 (2000) 1550 155 215 347 416 565 1540 1900 4210 10900
2020-05-22 01:00 4.78 2050 11300 (2019) 152 (2000) 1550 155 215 347 416 565 1540 1900 4210 10900
2020-05-22 00:00 4.79 2060 11300 (2019) 152 (2000) 1550 155 215 347 416 565 1540 1900 4210 10900
2020-05-21 23:00 4.82 2080 8510 (2010) 152 (2000) 1500 155 216 297 377 634 1500 2660 4530 8320
2020-05-21 22:00 4.83 2090 8510 (2010) 152 (2000) 1500 155 216 297 377 634 1500 2660 4530 8320
2020-05-21 21:00 4.87 2130 8510 (2010) 152 (2000) 1500 155 216 297 377 634 1500 2660 4530 8320
2020-05-21 20:00 4.88 2140 8510 (2010) 152 (2000) 1500 155 216 297 377 634 1500 2660 4530 8320
2020-05-21 19:00 4.88 2140 8510 (2010) 152 (2000) 1500 155 216 297 377 634 1500 2660 4530 8320
2020-05-21 18:00 4.92 2190 8510 (2010) 152 (2000) 1500 155 216 297 377 634 1500 2660 4530 8320
2020-05-21 17:00 4.93 2200 8510 (2010) 152 (2000) 1500 155 216 297 377 634 1500 2660 4530 8320
2020-05-21 16:00 4.95 2220 8510 (2010) 152 (2000) 1500 155 216 297 377 634 1500 2660 4530 8320
2020-05-21 15:00 4.97 2240 8510 (2010) 152 (2000) 1500 155 216 297 377 634 1500 2660 4530 8320
2020-05-21 14:00 4.98 2260 8510 (2010) 152 (2000) 1500 155 216 297 377 634 1500 2660 4530 8320
2020-05-21 13:00 5.01 2290 8510 (2010) 152 (2000) 1500 155 216 297 377 634 1500 2660 4530 8320
2020-05-21 12:00 5.05 2330 8510 (2010) 152 (2000) 1500 155 216 297 377 634 1500 2660 4530 8320
2020-05-21 11:00 5.06 2340 8510 (2010) 152 (2000) 1500 155 216 297 377 634 1500 2660 4530 8320
2020-05-21 10:00 5.06 2340 8510 (2010) 152 (2000) 1500 155 216 297 377 634 1500 2660 4530 8320
2020-05-21 09:00 5.12 2410 8510 (2010) 152 (2000) 1500 155 216 297 377 634 1500 2660 4530 8320
2020-05-21 08:00 5.12 2410 8510 (2010) 152 (2000) 1500 155 216 297 377 634 1500 2660 4530 8320
2020-05-21 07:00 5.14 2430 8510 (2010) 152 (2000) 1500 155 216 297 377 634 1500 2660 4530 8320
2020-05-21 06:00 5.18 2470 8510 (2010) 152 (2000) 1500 155 216 297 377 634 1500 2660 4530 8320
2020-05-21 05:00 5.19 2480 8510 (2010) 152 (2000) 1500 155 216 297 377 634 1500 2660 4530 8320
2020-05-21 04:00 5.21 2500 8510 (2010) 152 (2000) 1500 155 216 297 377 634 1500 2660 4530 8320
2020-05-21 03:00 5.23 2510 8510 (2010) 152 (2000) 1500 155 216 297 377 634 1500 2660 4530 8320
2020-05-21 02:00 5.27 2540 8510 (2010) 152 (2000) 1500 155 216 297 377 634 1500 2660 4530 8320
2020-05-21 01:00 5.29 2560 8510 (2010) 152 (2000) 1500 155 216 297 377 634 1500 2660 4530 8320
2020-05-21 00:00 5.32 2590 8510 (2010) 152 (2000) 1500 155 216 297 377 634 1500 2660 4530 8320
2020-05-20 23:00 5.35 2620 2690 (2010) 149 (2000) 930 152 219 315 396 727 1220 1820 2110 2660
2020-05-20 22:00 5.37 2640 2690 (2010) 149 (2000) 930 152 219 315 396 727 1220 1820 2110 2660
2020-05-20 21:00 5.37 2640 2690 (2010) 149 (2000) 930 152 219 315 396 727 1220 1820 2110 2660
2020-05-20 20:00 5.41 2670 2690 (2010) 149 (2000) 930 152 219 315 396 727 1220 1820 2110 2660
2020-05-20 19:00 5.41 2670 2690 (2010) 149 (2000) 930 152 219 315 396 727 1220 1820 2110 2660
2020-05-20 18:00 5.49 2740 2690 (2010) 149 (2000) 930 152 219 315 396 727 1220 1820 2110 2660
2020-05-20 17:00 5.51 2760 2690 (2010) 149 (2000) 930 152 219 315 396 727 1220 1820 2110 2660
2020-05-20 16:00 5.54 2790 2690 (2010) 149 (2000) 930 152 219 315 396 727 1220 1820 2110 2660
2020-05-20 15:00 5.56 2810 2690 (2010) 149 (2000) 930 152 219 315 396 727 1220 1820 2110 2660
2020-05-20 14:00 5.60 2850 2690 (2010) 149 (2000) 930 152 219 315 396 727 1220 1820 2110 2660
2020-05-20 13:00 5.64 2890 2690 (2010) 149 (2000) 930 152 219 315 396 727 1220 1820 2110 2660
2020-05-20 12:00 5.66 2910 2690 (2010) 149 (2000) 930 152 219 315 396 727 1220 1820 2110 2660
2020-05-20 11:00 5.69 2940 2690 (2010) 149 (2000) 930 152 219 315 396 727 1220 1820 2110 2660
2020-05-20 10:00 5.75 2990 2690 (2010) 149 (2000) 930 152 219 315 396 727 1220 1820 2110 2660
2020-05-20 09:00 5.78 3010 2690 (2010) 149 (2000) 930 152 219 315 396 727 1220 1820 2110 2660
2020-05-20 08:00 5.80 3030 2690 (2010) 149 (2000) 930 152 219 315 396 727 1220 1820 2110 2660
2020-05-20 07:00 5.83 3060 2690 (2010) 149 (2000) 930 152 219 315 396 727 1220 1820 2110 2660
2020-05-20 06:00 5.88 3100 2690 (2010) 149 (2000) 930 152 219 315 396 727 1220 1820 2110 2660
2020-05-20 05:00 5.91 3130 2690 (2010) 149 (2000) 930 152 219 315 396 727 1220 1820 2110 2660
2020-05-20 04:00 5.93 3150 2690 (2010) 149 (2000) 930 152 219 315 396 727 1220 1820 2110 2660
2020-05-20 03:00 5.97 3170 2690 (2010) 149 (2000) 930 152 219 315 396 727 1220 1820 2110 2660
2020-05-20 02:00 6.02 3220 2690 (2010) 149 (2000) 930 152 219 315 396 727 1220 1820 2110 2660
2020-05-20 01:00 6.06 3260 2690 (2010) 149 (2000) 930 152 219 315 396 727 1220 1820 2110 2660
2020-05-20 00:00 6.10 3300 2690 (2010) 149 (2000) 930 152 219 315 396 727 1220 1820 2110 2660
2020-05-19 23:00 6.14 3330 4150 (2002) 148 (2000) 965 151 217 341 418 647 1010 1320 2890 4090
2020-05-19 22:00 6.15 3340 4150 (2002) 148 (2000) 965 151 217 341 418 647 1010 1320 2890 4090
2020-05-19 21:00 6.21 3390 4150 (2002) 148 (2000) 965 151 217 341 418 647 1010 1320 2890 4090
2020-05-19 20:00 6.24 3420 4150 (2002) 148 (2000) 965 151 217 341 418 647 1010 1320 2890 4090
2020-05-19 19:00 6.28 3460 4150 (2002) 148 (2000) 965 151 217 341 418 647 1010 1320 2890 4090
2020-05-19 18:00 6.32 3500 4150 (2002) 148 (2000) 965 151 217 341 418 647 1010 1320 2890 4090
2020-05-19 17:00 6.35 3520 4150 (2002) 148 (2000) 965 151 217 341 418 647 1010 1320 2890 4090
2020-05-19 16:00 6.42 3580 4150 (2002) 148 (2000) 965 151 217 341 418 647 1010 1320 2890 4090
2020-05-19 15:00 6.47 3630 4150 (2002) 148 (2000) 965 151 217 341 418 647 1010 1320 2890 4090
2020-05-19 14:00 6.52 3680 4150 (2002) 148 (2000) 965 151 217 341 418 647 1010 1320 2890 4090
2020-05-19 13:00 6.58 3740 4150 (2002) 148 (2000) 965 151 217 341 418 647 1010 1320 2890 4090
2020-05-19 12:00 6.60 3760 4150 (2002) 148 (2000) 965 151 217 341 418 647 1010 1320 2890 4090
2020-05-19 11:00 6.72 3870 4150 (2002) 148 (2000) 965 151 217 341 418 647 1010 1320 2890 4090
2020-05-19 10:00 6.75 3900 4150 (2002) 148 (2000) 965 151 217 341 418 647 1010 1320 2890 4090
2020-05-19 09:00 6.82 3970 4150 (2002) 148 (2000) 965 151 217 341 418 647 1010 1320 2890 4090
2020-05-19 08:00 6.90 4050 4150 (2002) 148 (2000) 965 151 217 341 418 647 1010 1320 2890 4090
2020-05-19 07:00 6.95 4090 4150 (2002) 148 (2000) 965 151 217 341 418 647 1010 1320 2890 4090
2020-05-19 06:00 7.04 4190 4150 (2002) 148 (2000) 965 151 217 341 418 647 1010 1320 2890 4090
2020-05-19 05:00 7.12 4270 4150 (2002) 148 (2000) 965 151 217 341 418 647 1010 1320 2890 4090
2020-05-19 04:00 7.22 4370 4150 (2002) 148 (2000) 965 151 217 341 418 647 1010 1320 2890 4090
2020-05-19 03:00 7.26 4410 4150 (2002) 148 (2000) 965 151 217 341 418 647 1010 1320 2890 4090
2020-05-19 02:00 7.41 4580 4150 (2002) 148 (2000) 965 151 217 341 418 647 1010 1320 2890 4090
2020-05-19 01:00 7.54 4700 4150 (2002) 148 (2000) 965 151 217 341 418 647 1010 1320 2890 4090
2020-05-19 00:00 7.61 4770 4150 (2002) 148 (2000) 965 151 217 341 418 647 1010 1320 2890 4090
2020-05-18 23:00 7.86 5020 20000 (2002) 149 (2000) 1990 150 171 362 408 601 1160 1750 5690 19300
2020-05-18 22:00 8.10 5270 20000 (2002) 149 (2000) 1990 150 171 362 408 601 1160 1750 5690 19300
2020-05-18 21:00 8.38 5580 20000 (2002) 149 (2000) 1990 150 171 362 408 601 1160 1750 5690 19300
2020-05-18 20:00 8.92 6220 20000 (2002) 149 (2000) 1990 150 171 362 408 601 1160 1750 5690 19300
2020-05-18 19:00 9.47 6910 20000 (2002) 149 (2000) 1990 150 171 362 408 601 1160 1750 5690 19300
2020-05-18 18:00 10.26 7980 20000 (2002) 149 (2000) 1990 150 171 362 408 601 1160 1750 5690 19300
2020-05-18 17:00 11.18 9320 20000 (2002) 149 (2000) 1990 150 171 362 408 601 1160 1750 5690 19300
2020-05-18 16:00 11.91 10500 20000 (2002) 149 (2000) 1990 150 171 362 408 601 1160 1750 5690 19300
2020-05-18 15:00 12.54 11700 20000 (2002) 149 (2000) 1990 150 171 362 408 601 1160 1750 5690 19300
2020-05-18 14:00 12.91 12500 20000 (2002) 149 (2000) 1990 150 171 362 408 601 1160 1750 5690 19300
2020-05-18 13:00 13.20 13000 20000 (2002) 149 (2000) 1990 150 171 362 408 601 1160 1750 5690 19300
2020-05-18 12:00 13.20 13000 20000 (2002) 149 (2000) 1990 150 171 362 408 601 1160 1750 5690 19300
2020-05-18 11:00 13.23 13100 20000 (2002) 149 (2000) 1990 150 171 362 408 601 1160 1750 5690 19300
2020-05-18 10:00 13.10 12800 20000 (2002) 149 (2000) 1990 150 171 362 408 601 1160 1750 5690 19300
2020-05-18 09:00 13.09 12800 20000 (2002) 149 (2000) 1990 150 171 362 408 601 1160 1750 5690 19300
2020-05-18 08:00 12.91 12500 20000 (2002) 149 (2000) 1990 150 171 362 408 601 1160 1750 5690 19300
2020-05-18 07:00 12.71 12100 20000 (2002) 149 (2000) 1990 150 171 362 408 601 1160 1750 5690 19300
2020-05-18 06:00 12.47 11600 20000 (2002) 149 (2000) 1990 150 171 362 408 601 1160 1750 5690 19300
2020-05-18 05:00 12.30 11300 20000 (2002) 149 (2000) 1990 150 171 362 408 601 1160 1750 5690 19300
2020-05-18 04:00 11.99 10700 20000 (2002) 149 (2000) 1990 150 171 362 408 601 1160 1750 5690 19300
2020-05-18 03:00 11.82 10400 20000 (2002) 149 (2000) 1990 150 171 362 408 601 1160 1750 5690 19300
2020-05-18 02:00 11.50 9830 20000 (2002) 149 (2000) 1990 150 171 362 408 601 1160 1750 5690 19300
2020-05-18 01:00 11.23 9400 20000 (2002) 149 (2000) 1990 150 171 362 408 601 1160 1750 5690 19300
2020-05-18 00:00 10.86 8840 20000 (2002) 149 (2000) 1990 150 171 362 408 601 1160 1750 5690 19300
2020-05-17 23:00 10.61 8480 4630 (2002) 149 (2001) 1130 149 159 385 427 674 1120 1430 3820 4590
2020-05-17 22:00 10.34 8100 4630 (2002) 149 (2001) 1130 149 159 385 427 674 1120 1430 3820 4590
2020-05-17 21:00 10.19 7890 4630 (2002) 149 (2001) 1130 149 159 385 427 674 1120 1430 3820 4590
2020-05-17 20:00 9.85 7420 4630 (2002) 149 (2001) 1130 149 159 385 427 674 1120 1430 3820 4590
2020-05-17 19:00 9.69 7200 4630 (2002) 149 (2001) 1130 149 159 385 427 674 1120 1430 3820 4590
2020-05-17 18:00 9.49 6940 4630 (2002) 149 (2001) 1130 149 159 385 427 674 1120 1430 3820 4590
2020-05-17 17:00 9.29 6690 4630 (2002) 149 (2001) 1130 149 159 385 427 674 1120 1430 3820 4590
2020-05-17 16:00 9.09 6440 4630 (2002) 149 (2001) 1130 149 159 385 427 674 1120 1430 3820 4590
2020-05-17 15:00 9.07 6410 4630 (2002) 149 (2001) 1130 149 159 385 427 674 1120 1430 3820 4590
2020-05-17 14:00 8.92 6220 4630 (2002) 149 (2001) 1130 149 159 385 427 674 1120 1430 3820 4590
2020-05-17 13:00 8.91 6200 4630 (2002) 149 (2001) 1130 149 159 385 427 674 1120 1430 3820 4590
2020-05-17 12:00 8.79 6060 4630 (2002) 149 (2001) 1130 149 159 385 427 674 1120 1430 3820 4590
2020-05-17 11:00 8.71 5970 4630 (2002) 149 (2001) 1130 149 159 385 427 674 1120 1430 3820 4590
2020-05-17 10:00 8.75 6020 4630 (2002) 149 (2001) 1130 149 159 385 427 674 1120 1430 3820 4590
2020-05-17 09:00 8.66 5910 4630 (2002) 149 (2001) 1130 149 159 385 427 674 1120 1430 3820 4590
2020-05-17 08:00 8.74 6000 4630 (2002) 149 (2001) 1130 149 159 385 427 674 1120 1430 3820 4590
2020-05-17 07:00 8.85 6130 4630 (2002) 149 (2001) 1130 149 159 385 427 674 1120 1430 3820 4590
2020-05-17 06:00 8.94 6240 4630 (2002) 149 (2001) 1130 149 159 385 427 674 1120 1430 3820 4590
2020-05-17 05:00 9.05 6380 4630 (2002) 149 (2001) 1130 149 159 385 427 674 1120 1430 3820 4590
2020-05-17 04:00 9.17 6530 4630 (2002) 149 (2001) 1130 149 159 385 427 674 1120 1430 3820 4590
2020-05-17 03:00 9.22 6590 4630 (2002) 149 (2001) 1130 149 159 385 427 674 1120 1430 3820 4590
2020-05-17 02:00 9.39 6810 4630 (2002) 149 (2001) 1130 149 159 385 427 674 1120 1430 3820 4590
2020-05-17 01:00 9.35 6770 4630 (2002) 149 (2001) 1130 149 159 385 427 674 1120 1430 3820 4590
2020-05-17 00:00 9.23 6610 4630 (2002) 149 (2001) 1130 149 159 385 427 674 1120 1430 3820 4590
2020-05-16 23:00 8.93 6230 4130 (2008) 151 (2000) 1020 151 159 393 439 607 1300 1490 2810 4070
2020-05-16 22:00 8.35 5550 4130 (2008) 151 (2000) 1020 151 159 393 439 607 1300 1490 2810 4070
2020-05-16 21:00 7.73 4890 4130 (2008) 151 (2000) 1020 151 159 393 439 607 1300 1490 2810 4070
2020-05-16 20:00 7.34 4500 4130 (2008) 151 (2000) 1020 151 159 393 439 607 1300 1490 2810 4070
2020-05-16 19:00 7.17 4330 4130 (2008) 151 (2000) 1020 151 159 393 439 607 1300 1490 2810 4070
2020-05-16 18:00 7.23 4380 4130 (2008) 151 (2000) 1020 151 159 393 439 607 1300 1490 2810 4070
2020-05-16 17:00 7.23 4380 4130 (2008) 151 (2000) 1020 151 159 393 439 607 1300 1490 2810 4070
2020-05-16 16:00 7.48 4640 4130 (2008) 151 (2000) 1020 151 159 393 439 607 1300 1490 2810 4070
2020-05-16 15:00 7.70 4860 4130 (2008) 151 (2000) 1020 151 159 393 439 607 1300 1490 2810 4070
2020-05-16 14:00 8.04 5200 4130 (2008) 151 (2000) 1020 151 159 393 439 607 1300 1490 2810 4070
2020-05-16 13:00 8.32 5510 4130 (2008) 151 (2000) 1020 151 159 393 439 607 1300 1490 2810 4070
2020-05-16 12:00 8.64 5880 4130 (2008) 151 (2000) 1020 151 159 393 439 607 1300 1490 2810 4070
2020-05-16 11:00 8.85 6130 4130 (2008) 151 (2000) 1020 151 159 393 439 607 1300 1490 2810 4070
2020-05-16 10:00 9.03 6360 4130 (2008) 151 (2000) 1020 151 159 393 439 607 1300 1490 2810 4070
2020-05-16 09:00 9.17 6530 4130 (2008) 151 (2000) 1020 151 159 393 439 607 1300 1490 2810 4070
2020-05-16 08:00 9.29 6690 4130 (2008) 151 (2000) 1020 151 159 393 439 607 1300 1490 2810 4070
2020-05-16 07:00 9.39 6810 4130 (2008) 151 (2000) 1020 151 159 393 439 607 1300 1490 2810 4070
2020-05-16 06:00 9.52 6980 4130 (2008) 151 (2000) 1020 151 159 393 439 607 1300 1490 2810 4070
2020-05-16 05:00 9.56 7040 4130 (2008) 151 (2000) 1020 151 159 393 439 607 1300 1490 2810 4070
2020-05-16 04:00 9.65 7160 4130 (2008) 151 (2000) 1020 151 159 393 439 607 1300 1490 2810 4070
2020-05-16 03:00 9.71 7230 4130 (2008) 151 (2000) 1020 151 159 393 439 607 1300 1490 2810 4070
2020-05-16 02:00 9.82 7380 4130 (2008) 151 (2000) 1020 151 159 393 439 607 1300 1490 2810 4070
2020-05-16 01:00 9.75 7280 4130 (2008) 151 (2000) 1020 151 159 393 439 607 1300 1490 2810 4070
2020-05-16 00:00 9.65 7160 4130 (2008) 151 (2000) 1020 151 159 393 439 607 1300 1490 2810 4070
2020-05-15 23:00 9.49 6940 2090 (2009) 152 (2000) 873 152 161 409 454 706 1310 1380 2010 2090
2020-05-15 22:00 9.14 6490 2090 (2009) 152 (2000) 873 152 161 409 454 706 1310 1380 2010 2090
2020-05-15 21:00 8.71 5970 2090 (2009) 152 (2000) 873 152 161 409 454 706 1310 1380 2010 2090
2020-05-15 20:00 8.40 5600 2090 (2009) 152 (2000) 873 152 161 409 454 706 1310 1380 2010 2090
2020-05-15 19:00 7.76 4910 2090 (2009) 152 (2000) 873 152 161 409 454 706 1310 1380 2010 2090
2020-05-15 18:00 7.16 4320 2090 (2009) 152 (2000) 873 152 161 409 454 706 1310 1380 2010 2090
2020-05-15 17:00 6.48 3640 2090 (2009) 152 (2000) 873 152 161 409 454 706 1310 1380 2010 2090
2020-05-15 16:00 5.78 3010 2090 (2009) 152 (2000) 873 152 161 409 454 706 1310 1380 2010 2090
2020-05-15 15:00 5.31 2580 2090 (2009) 152 (2000) 873 152 161 409 454 706 1310 1380 2010 2090
2020-05-15 14:00 5.10 2380 2090 (2009) 152 (2000) 873 152 161 409 454 706 1310 1380 2010 2090
2020-05-15 13:00 5.04 2310 2090 (2009) 152 (2000) 873 152 161 409 454 706 1310 1380 2010 2090
2020-05-15 12:00 5.02 2300 2090 (2009) 152 (2000) 873 152 161 409 454 706 1310 1380 2010 2090
2020-05-15 11:00 5.02 2300 2090 (2009) 152 (2000) 873 152 161 409 454 706 1310 1380 2010 2090
2020-05-15 10:00 5.04 2310 2090 (2009) 152 (2000) 873 152 161 409 454 706 1310 1380 2010 2090
2020-05-15 09:00 5.05 2330 2090 (2009) 152 (2000) 873 152 161 409 454 706 1310 1380 2010 2090
2020-05-15 08:00 5.05 2330 2090 (2009) 152 (2000) 873 152 161 409 454 706 1310 1380 2010 2090
2020-05-15 07:00 5.07 2350 2090 (2009) 152 (2000) 873 152 161 409 454 706 1310 1380 2010 2090
2020-05-15 06:00 5.09 2370 2090 (2009) 152 (2000) 873 152 161 409 454 706 1310 1380 2010 2090
2020-05-15 05:00 5.07 2350 2090 (2009) 152 (2000) 873 152 161 409 454 706 1310 1380 2010 2090
2020-05-15 04:00 5.05 2330 2090 (2009) 152 (2000) 873 152 161 409 454 706 1310 1380 2010 2090
2020-05-15 03:00 5.09 2370 2090 (2009) 152 (2000) 873 152 161 409 454 706 1310 1380 2010 2090
2020-05-15 02:00 5.13 2420 2090 (2009) 152 (2000) 873 152 161 409 454 706 1310 1380 2010 2090
2020-05-15 01:00 5.18 2470 2090 (2009) 152 (2000) 873 152 161 409 454 706 1310 1380 2010 2090
2020-05-15 00:00 5.24 2520 2090 (2009) 152 (2000) 873 152 161 409 454 706 1310 1380 2010 2090
2020-05-14 23:00 5.30 2570 4650 (2002) 152 (2000) 1010 152 163 306 434 662 1470 1590 1790 4510
2020-05-14 22:00 5.36 2630 4650 (2002) 152 (2000) 1010 152 163 306 434 662 1470 1590 1790 4510
2020-05-14 21:00 5.43 2690 4650 (2002) 152 (2000) 1010 152 163 306 434 662 1470 1590 1790 4510
2020-05-14 20:00 5.51 2760 4650 (2002) 152 (2000) 1010 152 163 306 434 662 1470 1590 1790 4510
2020-05-14 19:00 5.62 2870 4650 (2002) 152 (2000) 1010 152 163 306 434 662 1470 1590 1790 4510
2020-05-14 18:00 5.72 2960 4650 (2002) 152 (2000) 1010 152 163 306 434 662 1470 1590 1790 4510
2020-05-14 17:00 5.85 3070 4650 (2002) 152 (2000) 1010 152 163 306 434 662 1470 1590 1790 4510
2020-05-14 16:00 5.99 3190 4650 (2002) 152 (2000) 1010 152 163 306 434 662 1470 1590 1790 4510
2020-05-14 15:00 6.12 3310 4650 (2002) 152 (2000) 1010 152 163 306 434 662 1470 1590 1790 4510
2020-05-14 14:00 6.16 3350 4650 (2002) 152 (2000) 1010 152 163 306 434 662 1470 1590 1790 4510
2020-05-14 13:00 6.24 3420 4650 (2002) 152 (2000) 1010 152 163 306 434 662 1470 1590 1790 4510
2020-05-14 12:00 6.19 3370 4650 (2002) 152 (2000) 1010 152 163 306 434 662 1470 1590 1790 4510
2020-05-14 11:00 6.00 3200 4650 (2002) 152 (2000) 1010 152 163 306 434 662 1470 1590 1790 4510
2020-05-14 10:00 5.66 2910 4650 (2002) 152 (2000) 1010 152 163 306 434 662 1470 1590 1790 4510
2020-05-14 09:00 5.26 2530 4650 (2002) 152 (2000) 1010 152 163 306 434 662 1470 1590 1790 4510
2020-05-14 08:00 4.84 2100 4650 (2002) 152 (2000) 1010 152 163 306 434 662 1470 1590 1790 4510
2020-05-14 07:00 4.62 1870 4650 (2002) 152 (2000) 1010 152 163 306 434 662 1470 1590 1790 4510
2020-05-14 06:00 4.56 1820 4650 (2002) 152 (2000) 1010 152 163 306 434 662 1470 1590 1790 4510
2020-05-14 05:00 4.53 1780 4650 (2002) 152 (2000) 1010 152 163 306 434 662 1470 1590 1790 4510
2020-05-14 04:00 4.50 1750 4650 (2002) 152 (2000) 1010 152 163 306 434 662 1470 1590 1790 4510
2020-05-14 03:00 4.48 1730 4650 (2002) 152 (2000) 1010 152 163 306 434 662 1470 1590 1790 4510
2020-05-14 02:00 4.47 1720 4650 (2002) 152 (2000) 1010 152 163 306 434 662 1470 1590 1790 4510
2020-05-14 01:00 4.45 1700 4650 (2002) 152 (2000) 1010 152 163 306 434 662 1470 1590 1790 4510
2020-05-14 00:00 4.41 1660 4650 (2002) 152 (2000) 1010 152 163 306 434 662 1470 1590 1790 4510
2020-05-13 23:00 4.37 1620 8680 (2002) 157 (2000) 1340 157 168 296 465 640 1780 2120 2620 8380
2020-05-13 22:00 4.27 1530 8680 (2002) 157 (2000) 1340 157 168 296 465 640 1780 2120 2620 8380
2020-05-13 21:00 4.25 1510 8680 (2002) 157 (2000) 1340 157 168 296 465 640 1780 2120 2620 8380
2020-05-13 20:00 4.18 1450 8680 (2002) 157 (2000) 1340 157 168 296 465 640 1780 2120 2620 8380
2020-05-13 19:00 4.15 1420 8680 (2002) 157 (2000) 1340 157 168 296 465 640 1780 2120 2620 8380
2020-05-13 18:00 4.08 1370 8680 (2002) 157 (2000) 1340 157 168 296 465 640 1780 2120 2620 8380
2020-05-13 17:00 4.10 1390 8680 (2002) 157 (2000) 1340 157 168 296 465 640 1780 2120 2620 8380
2020-05-13 16:00 4.09 1380 8680 (2002) 157 (2000) 1340 157 168 296 465 640 1780 2120 2620 8380
2020-05-13 15:00 4.08 1370 8680 (2002) 157 (2000) 1340 157 168 296 465 640 1780 2120 2620 8380
2020-05-13 14:00 4.09 1380 8680 (2002) 157 (2000) 1340 157 168 296 465 640 1780 2120 2620 8380
2020-05-13 13:00 4.05 1340 8680 (2002) 157 (2000) 1340 157 168 296 465 640 1780 2120 2620 8380
2020-05-13 12:00 4.01 1310 8680 (2002) 157 (2000) 1340 157 168 296 465 640 1780 2120 2620 8380
2020-05-13 11:00 4.03 1330 8680 (2002) 157 (2000) 1340 157 168 296 465 640 1780 2120 2620 8380
2020-05-13 10:00 4.01 1310 8680 (2002) 157 (2000) 1340 157 168 296 465 640 1780 2120 2620 8380
2020-05-13 09:00 3.99 1290 8680 (2002) 157 (2000) 1340 157 168 296 465 640 1780 2120 2620 8380
2020-05-13 08:00 3.98 1280 8680 (2002) 157 (2000) 1340 157 168 296 465 640 1780 2120 2620 8380
2020-05-13 07:00 4.00 1300 8680 (2002) 157 (2000) 1340 157 168 296 465 640 1780 2120 2620 8380
2020-05-13 05:30 3.97 1280 8680 (2002) 157 (2000) 1340 157 168 296 465 640 1780 2120 2620 8380
2020-05-13 05:00 3.99 1290 8680 (2002) 157 (2000) 1340 157 168 296 465 640 1780 2120 2620 8380
2020-05-13 04:00 4.03 1330 8680 (2002) 157 (2000) 1340 157 168 296 465 640 1780 2120 2620 8380
2020-05-13 03:00 3.98 1280 8680 (2002) 157 (2000) 1340 157 168 296 465 640 1780 2120 2620 8380
2020-05-13 02:00 3.98 1280 8680 (2002) 157 (2000) 1340 157 168 296 465 640 1780 2120 2620 8380
2020-05-13 01:00 4.04 1330 8680 (2002) 157 (2000) 1340 157 168 296 465 640 1780 2120 2620 8380
2020-05-13 00:00 4.04 1330 8680 (2002) 157 (2000) 1340 157 168 296 465 640 1780 2120 2620 8380
2020-05-12 23:00 3.99 1290 4890 (2006) 160 (2000) 1050 160 175 274 372 654 1460 1720 2410 4770
2020-05-12 22:00 3.95 1260 4890 (2006) 160 (2000) 1050 160 175 274 372 654 1460 1720 2410 4770
2020-05-12 21:00 4.01 1310 4890 (2006) 160 (2000) 1050 160 175 274 372 654 1460 1720 2410 4770
2020-05-12 20:00 4.02 1320 4890 (2006) 160 (2000) 1050 160 175 274 372 654 1460 1720 2410 4770
2020-05-12 19:00 4.01 1310 4890 (2006) 160 (2000) 1050 160 175 274 372 654 1460 1720 2410 4770
2020-05-12 18:00 3.99 1290 4890 (2006) 160 (2000) 1050 160 175 274 372 654 1460 1720 2410 4770
2020-05-12 17:00 4.00 1300 4890 (2006) 160 (2000) 1050 160 175 274 372 654 1460 1720 2410 4770
2020-05-12 16:00 4.01 1310 4890 (2006) 160 (2000) 1050 160 175 274 372 654 1460 1720 2410 4770
2020-05-12 15:00 4.01 1310 4890 (2006) 160 (2000) 1050 160 175 274 372 654 1460 1720 2410 4770
2020-05-12 14:00 4.03 1330 4890 (2006) 160 (2000) 1050 160 175 274 372 654 1460 1720 2410 4770
2020-05-12 13:00 3.99 1290 4890 (2006) 160 (2000) 1050 160 175 274 372 654 1460 1720 2410 4770
2020-05-12 12:00 4.05 1340 4890 (2006) 160 (2000) 1050 160 175 274 372 654 1460 1720 2410 4770
2020-05-12 11:00 4.04 1330 4890 (2006) 160 (2000) 1050 160 175 274 372 654 1460 1720 2410 4770
2020-05-12 10:00 4.05 1340 4890 (2006) 160 (2000) 1050 160 175 274 372 654 1460 1720 2410 4770
2020-05-12 09:00 4.01 1310 4890 (2006) 160 (2000) 1050 160 175 274 372 654 1460 1720 2410 4770
2020-05-12 08:00 4.05 1340 4890 (2006) 160 (2000) 1050 160 175 274 372 654 1460 1720 2410 4770
2020-05-12 07:00 4.12 1400 4890 (2006) 160 (2000) 1050 160 175 274 372 654 1460 1720 2410 4770
2020-05-12 05:30 4.08 1370 4890 (2006) 160 (2000) 1050 160 175 274 372 654 1460 1720 2410 4770
2020-05-12 05:00 4.13 1400 4890 (2006) 160 (2000) 1050 160 175 274 372 654 1460 1720 2410 4770
2020-05-12 04:00 4.13 1400 4890 (2006) 160 (2000) 1050 160 175 274 372 654 1460 1720 2410 4770
2020-05-12 03:00 4.14 1410 4890 (2006) 160 (2000) 1050 160 175 274 372 654 1460 1720 2410 4770
2020-05-12 02:00 4.14 1410 4890 (2006) 160 (2000) 1050 160 175 274 372 654 1460 1720 2410 4770
2020-05-12 01:00 4.14 1410 4890 (2006) 160 (2000) 1050 160 175 274 372 654 1460 1720 2410 4770
2020-05-12 00:00 4.18 1450 4890 (2006) 160 (2000) 1050 160 175 274 372 654 1460 1720 2410 4770

A total of 2204 rows are displayed for years 2000 through 2019.